[[{"header":{"parameterUnit":"m.s-1","parameterCategory":1,"la1":30.6,"la2":28.766,"lo1":-90.7593,"lo2":-88.6598,"dy":0.0162,"dx":0.0183,"nx":116,"ny":114,"refTime":"2023-03-20T00:00:00:Z","depth":0,"parameterNumber":2,"parameterNumberName":"U-component_of_WINDS"},"data":[0.0,0.0,0.0,0.0,0.0,0.0,0.0,0.0,0.0,0.0,0.0,0.0,0.0,0.0,0.0,0.0,0.0,0.0,0.0,0.0,0.0,0.0,0.0,0.0,0.0,0.0,0.0,0.0,0.0,0.0,0.0,0.0,0.0,0.0,0.0,0.0,0.0,0.0,0.0,0.0,0.0,0.0,0.0,0.0,0.0,0.0,0.0,0.0,0.0,0.0,0.0,0.0,0.0,0.0,0.0,0.0,0.0,0.0,0.0,0.0,0.0,0.0,0.0,0.0,0.0,0.0,0.0,0.0,0.0,0.0,0.0,0.0,0.0,0.0,0.0,0.0,0.0,0.0,0.0,0.0,0.0,0.0,0.0,0.0,0.0,0.0,0.0,0.0,0.0,0.0,0.0,0.0,0.0,0.0,0.0,0.0,0.0,0.0,0.0,0.0,0.0,0.0,0.0,0.0,0.0,0.0,0.0,0.0,0.0,0.0,0.0,0.0,0.0,0.0,0.0,0.0,0.0,0.0,0.0,0.0,0.0,0.0,0.0,0.0,0.0,0.0,0.0,0.0,0.0,0.0,0.0,0.0,0.0,0.0,0.0,0.0,0.0,0.0,0.0,0.0,0.0,0.0,0.0,0.0,0.0,0.0,0.0,0.0,0.0,0.0,0.0,0.0,0.0,0.0,0.0,0.0,0.0,0.0,0.0,0.0,0.0,0.0,0.0,0.0,0.0,0.0,0.0,0.0,0.0,0.0,0.0,0.0,0.0,0.0,0.0,0.0,0.0,0.0,0.0,0.0,0.0,0.0,0.0,0.0,0.0,0.0,0.0,0.0,0.0,0.0,0.0,0.0,0.0,0.0,0.0,0.0,0.0,0.0,0.0,0.0,0.0,0.0,0.0,0.0,0.0,0.0,0.0,0.0,0.0,0.0,0.0,0.0,0.0,0.0,0.0,0.0,0.0,0.0,0.0,0.0,0.0,0.0,0.0,0.0,0.0,0.0,0.0,0.0,0.0,0.0,0.0,0.0,0.0,0.0,0.0,0.0,0.0,0.0,0.0,0.0,0.0,0.0,0.0,0.0,0.0,0.0,0.0,0.0,0.0,0.0,0.0,0.0,0.0,0.0,0.0,0.0,0.0,0.0,0.0,0.0,0.0,0.0,0.0,0.0,0.0,0.0,0.0,0.0,0.0,0.0,0.0,0.0,0.0,0.0,0.0,0.0,0.0,0.0,0.0,0.0,0.0,0.0,0.0,0.0,0.0,0.0,0.0,0.0,0.0,0.0,0.0,0.0,0.0,0.0,0.0,0.0,0.0,0.0,0.0,0.0,0.0,0.0,0.0,0.0,0.0,0.0,0.0,0.0,0.0,0.0,0.0,0.0,0.0,0.0,0.0,0.0,0.0,0.0,0.0,0.0,0.0,0.0,0.0,0.0,0.0,0.0,0.0,0.0,0.0,0.0,0.0,0.0,0.0,0.0,0.0,0.0,0.0,0.0,0.0,0.0,0.0,0.0,0.0,0.0,0.0,0.0,0.0,0.0,0.0,0.0,0.0,0.0,0.0,0.0,0.0,0.0,0.0,0.0,0.0,0.0,0.0,0.0,0.0,0.0,0.0,0.0,0.0,0.0,0.0,0.0,0.0,0.0,0.0,0.0,0.0,0.0,0.0,0.0,0.0,0.0,0.0,0.0,0.0,0.0,0.0,0.0,0.0,0.0,0.0,0.0,0.0,0.0,0.0,0.0,0.0,0.0,0.0,0.0,0.0,0.0,0.0,0.0,0.0,0.0,0.0,0.0,0.0,0.0,0.0,0.0,0.0,0.0,0.0,0.0,0.0,0.0,0.0,0.0,0.0,0.0,0.0,0.0,0.0,0.0,0.0,0.0,0.0,0.0,0.0,0.0,0.0,0.0,0.0,0.0,0.0,0.0,0.0,0.0,0.0,0.0,0.0,0.0,0.0,0.0,0.0,0.0,0.0,0.0,0.0,0.0,0.0,0.0,0.0,0.0,0.0,0.0,0.0,0.0,0.0,0.0,0.0,0.0,0.0,0.0,0.0,0.0,0.0,0.0,0.0,0.0,0.0,0.0,0.0,0.0,0.0,0.0,0.0,0.0,0.0,0.0,0.0,0.0,0.0,0.0,0.0,0.0,0.0,0.0,0.0,0.0,0.0,0.0,0.0,0.0,0.0,0.0,0.0,0.0,0.0,0.0,0.0,0.0,0.0,0.0,0.0,0.0,0.0,0.0,0.0,0.0,0.0,0.0,0.0,0.0,0.0,0.0,0.0,0.0,0.0,0.0,0.0,0.0,0.0,0.0,0.0,0.0,0.0,0.0,0.0,0.0,0.0,0.0,0.0,0.0,0.0,0.0,0.0,0.0,0.0,0.0,0.0,0.0,0.0,0.0,0.0,0.0,0.0,0.0,0.0,0.0,0.0,0.0,0.0,0.0,0.0,0.0,0.0,0.0,0.0,0.0,0.0,0.0,0.0,0.0,0.0,0.0,0.0,0.0,0.0,0.0,0.0,0.0,0.0,0.0,0.0,0.0,0.0,0.0,0.0,0.0,0.0,0.0,0.0,0.0,0.0,0.0,0.0,0.0,0.0,0.0,0.0,0.0,0.0,0.0,0.0,0.0,0.0,0.0,0.0,0.0,0.0,0.0,0.0,0.0,0.0,0.0,0.0,0.0,0.0,0.0,0.0,0.0,0.0,0.0,0.0,0.0,0.0,0.0,0.0,0.0,0.0,0.0,0.0,0.0,0.0,0.0,0.0,0.0,0.0,0.0,0.0,0.0,0.0,0.0,0.0,0.0,0.0,0.0,0.0,0.0,0.0,0.0,0.0,0.0,0.0,0.0,0.0,0.0,0.0,0.0,0.0,0.0,0.0,0.0,0.0,0.0,0.0,0.0,0.0,0.0,0.0,0.0,0.0,0.0,0.0,0.0,0.0,0.0,0.0,0.0,0.0,0.0,0.0,0.0,0.0,0.0,0.0,0.0,0.0,0.0,0.0,0.0,0.0,0.0,0.0,0.0,0.0,0.0,0.0,0.0,0.0,0.0,0.0,0.0,0.0,0.0,0.0,0.0,0.0,0.0,0.0,0.0,0.0,0.0,0.0,0.0,0.0,0.0,0.0,0.0,0.0,0.0,0.0,0.0,0.0,0.0,0.0,0.0,0.0,0.0,0.0,0.0,0.0,0.0,0.0,0.0,0.0,0.0,0.0,0.0,0.0,0.0,0.0,0.0,0.0,0.0,0.0,0.0,0.0,0.0,0.0,0.0,0.0,0.0,0.0,0.0,0.0,0.0,0.0,0.0,0.0,0.0,0.0,0.0,0.0,0.0,0.0,0.0,0.0,0.0,0.0,0.0,0.0,0.0,0.0,0.0,0.0,0.0,0.0,0.0,0.0,0.0,0.0,0.0,0.0,0.0,0.0,0.0,0.0,0.0,0.0,0.0,0.0,0.0,0.0,0.0,0.0,0.0,0.0,0.0,0.0,0.0,0.0,0.0,0.0,0.0,0.0,0.0,0.0,0.0,0.0,0.0,0.0,0.0,0.0,0.0,0.0,0.0,0.0,0.0,0.0,0.0,0.0,0.0,0.0,0.0,0.0,0.0,0.0,0.0,0.0,0.0,0.0,0.0,0.0,0.0,0.0,0.0,0.0,0.0,0.0,0.0,0.0,0.0,0.0,0.0,0.0,0.0,0.0,0.0,0.0,0.0,0.0,0.0,0.0,0.0,0.0,0.0,0.0,0.0,0.0,0.0,0.0,0.0,0.0,0.0,0.0,0.0,0.0,0.0,0.0,0.0,0.0,0.0,0.0,0.0,0.0,0.0,0.0,0.0,0.0,0.0,0.0,0.0,0.0,0.0,0.0,0.0,0.0,0.0,0.0,0.0,0.0,0.0,0.0,0.0,0.0,0.0,0.0,0.0,0.0,0.0,0.0,0.0,0.0,0.0,0.0,0.0,0.0,0.0,0.0,0.0,0.0,0.0,0.0,0.0,0.0,0.0,0.0,0.0,0.0,0.0,0.0,0.0,0.0,0.0,0.0,0.0,0.0,0.0,0.0,0.0,0.0,0.0,0.0,0.0,0.0,0.0,0.0,0.0,0.0,0.0,0.0,0.0,0.0,0.0,0.0,0.0,0.0,0.0,0.0,0.0,0.0,0.0,0.0,0.0,0.0,0.0,0.0,0.0,0.0,0.0,0.0,0.0,0.0,0.0,0.0,0.0,0.0,0.0,0.0,0.0,0.0,0.0,0.0,0.0,0.0,0.0,0.0,0.0,0.0,0.0,0.0,0.0,0.0,0.0,0.0,0.0,0.0,0.0,0.0,0.0,0.0,0.0,0.0,0.0,0.0,0.0,0.0,0.0,0.0,0.0,0.0,0.0,0.0,0.0,0.0,0.0,0.0,0.0,0.0,0.0,0.0,0.0,0.0,0.0,0.0,0.0,0.0,0.0,0.0,0.0,0.0,0.0,0.0,0.0,0.0,0.0,0.0,0.0,0.0,0.0,0.0,0.0,0.0,0.0,0.0,0.0,0.0,0.0,0.0,0.0,0.0,0.0,0.0,0.0,0.0,0.0,0.0,0.0,0.0,0.0,0.0,0.0,0.0,0.0,0.0,0.0,0.0,0.0,0.0,0.0,0.0,0.0,0.0,0.0,0.0,0.0,0.0,0.0,0.0,0.0,0.0,0.0,0.0,0.0,0.0,0.0,0.0,0.0,0.0,0.0,0.0,0.0,0.0,0.0,0.0,0.0,0.0,0.0,0.0,0.0,0.0,0.0,0.0,0.0,0.0,0.0,0.0,0.0,0.0,0.0,0.0,0.0,0.0,0.0,0.0,0.0,0.0,0.0,0.0,0.0,0.0,0.0,0.0,0.0,0.0,0.0,0.0,0.0,0.0,0.0,0.0,0.0,0.0,0.0,0.0,0.0,0.0,0.0,0.0,0.0,0.0,0.0,0.0,0.0,0.0,0.0,0.0,0.0,0.0,0.0,0.0,0.0,0.0,0.0,0.0,0.0,0.0,0.0,0.0,0.0,0.0,0.0,0.0,0.0,0.0,0.0,0.0,0.0,0.0,0.0,0.0,0.0,0.0,0.0,0.0,0.0,0.0,0.0,0.0,0.0,0.0,0.0,0.0,0.0,0.0,0.0,0.0,0.0,0.0,0.0,0.0,0.0,0.0,0.0,0.0,0.0,0.0,0.0,0.0,0.0,0.0,0.0,0.0,0.0,0.0,0.0,0.0,0.0,0.0,0.0,0.0,0.0,0.0,0.0,0.0,0.0,0.0,0.0,0.0,0.0,0.0,0.0,0.0,0.0,0.0,0.0,0.0,0.0,0.0,0.0,0.0,0.0,0.0,0.0,0.0,0.0,0.0,0.0,0.0,0.0,0.0,0.0,0.0,0.0,0.0,0.0,0.0,0.0,0.0,0.0,0.0,0.0,0.0,0.0,0.0,0.0,0.0,0.0,0.0,0.0,0.0,0.0,0.0,0.0,0.0,0.0,0.0,0.0,0.0,0.0,0.0,0.0,0.0,0.0,0.0,0.0,0.0,0.0,0.0,0.0,0.0,0.0,0.0,0.0,0.0,0.0,0.0,0.0,0.0,0.0,0.0,0.0,0.0,0.0,0.0,0.0,0.0,0.0,0.0,0.0,0.0,0.0,0.0,0.0,0.0,0.0,0.0,0.0,0.0,0.0,0.0,0.0,0.0,0.0,0.0,0.0,0.0,0.0,0.0,0.0,0.0,0.0,0.0,0.0,0.0,0.0,0.0,0.0,0.0,0.0,0.0,0.0,0.0,0.0,0.0,0.0,0.0,0.0,0.0,0.0,0.0,0.0,0.0,0.0,0.0,0.0,0.0,0.0,0.0,0.0,0.0,0.0,0.0,0.0,0.0,0.0,0.0,0.0,0.0,0.0,0.0,0.0,0.0,0.0,0.0,0.0,0.0,0.0,0.0,0.0,0.0,0.0,0.0,0.0,0.0,0.0,0.0,0.0,0.0,0.0,0.0,0.0,0.0,0.0,0.0,0.0,0.0,0.0,0.0,0.0,0.0,0.0,0.0,0.0,0.0,0.0,0.0,0.0,-2.5499,0.0,0.0,0.0,0.0,0.0,0.0,0.0,0.0,0.0,0.0,0.0,0.0,0.0,0.0,0.0,0.0,0.0,0.0,0.0,0.0,0.0,0.0,0.0,0.0,0.0,0.0,0.0,0.0,0.0,0.0,0.0,0.0,0.0,0.0,0.0,0.0,0.0,0.0,0.0,0.0,0.0,0.0,0.0,0.0,0.0,0.0,0.0,0.0,0.0,0.0,0.0,0.0,0.0,0.0,0.0,0.0,0.0,0.0,0.0,0.0,0.0,0.0,0.0,0.0,0.0,0.0,0.0,0.0,0.0,0.0,0.0,0.0,0.0,0.0,0.0,0.0,0.0,0.0,0.0,0.0,0.0,0.0,0.0,0.0,0.0,0.0,0.0,0.0,0.0,0.0,0.0,0.0,0.0,0.0,0.0,0.0,0.0,0.0,0.0,0.0,0.0,0.0,0.0,0.0,0.0,0.0,0.0,0.0,0.0,0.0,0.0,0.0,0.0,0.0,0.0,0.0,-2.6026,0.0,0.0,0.0,0.0,0.0,0.0,0.0,0.0,0.0,0.0,0.0,0.0,0.0,0.0,0.0,0.0,0.0,0.0,0.0,0.0,0.0,0.0,0.0,0.0,0.0,0.0,0.0,0.0,0.0,0.0,0.0,0.0,0.0,0.0,0.0,0.0,0.0,0.0,0.0,0.0,0.0,0.0,0.0,0.0,0.0,0.0,0.0,0.0,0.0,0.0,0.0,0.0,0.0,0.0,0.0,0.0,0.0,0.0,0.0,0.0,0.0,0.0,0.0,0.0,0.0,0.0,0.0,0.0,0.0,0.0,0.0,0.0,0.0,0.0,0.0,0.0,0.0,0.0,0.0,0.0,0.0,0.0,0.0,0.0,0.0,0.0,0.0,0.0,0.0,0.0,0.0,0.0,0.0,0.0,0.0,0.0,0.0,0.0,0.0,0.0,0.0,0.0,0.0,0.0,0.0,0.0,0.0,0.0,-2.9602,-2.9838,-3.0261,-3.0261,-3.0467,-3.0732,-2.8257,-2.7023,-2.671,-2.5628,0.0,0.0,0.0,0.0,0.0,0.0,0.0,0.0,0.0,0.0,0.0,0.0,0.0,0.0,0.0,0.0,0.0,0.0,0.0,0.0,0.0,0.0,0.0,0.0,0.0,0.0,0.0,0.0,0.0,0.0,0.0,0.0,0.0,0.0,0.0,0.0,0.0,0.0,-3.3885,-3.4621,-3.4873,-3.4661,-3.371,0.0,0.0,0.0,0.0,0.0,0.0,0.0,0.0,0.0,0.0,0.0,0.0,0.0,0.0,0.0,0.0,0.0,0.0,0.0,0.0,0.0,0.0,0.0,0.0,0.0,0.0,0.0,0.0,0.0,0.0,0.0,0.0,0.0,0.0,0.0,0.0,0.0,0.0,0.0,0.0,0.0,0.0,0.0,-2.9479,-3.0063,0.0,0.0,0.0,0.0,0.0,0.0,0.0,0.0,0.0,0.0,0.0,0.0,0.0,-2.9355,-3.1286,-3.1877,-3.1925,-3.1531,-3.2093,-3.2108,-3.1639,-3.1639,-3.1342,-3.0793,-3.0395,0.0,-2.8637,-2.7343,0.0,0.0,0.0,0.0,0.0,0.0,0.0,0.0,0.0,0.0,0.0,0.0,0.0,0.0,0.0,0.0,0.0,0.0,0.0,0.0,0.0,0.0,0.0,0.0,0.0,0.0,0.0,0.0,0.0,0.0,0.0,0.0,0.0,0.0,0.0,0.0,-3.3946,-3.4655,-3.4275,-3.5026,-3.5186,-3.4839,-3.4301,-3.4301,-3.4682,-3.4312,0.0,0.0,0.0,0.0,0.0,0.0,0.0,0.0,0.0,0.0,0.0,0.0,0.0,0.0,0.0,0.0,0.0,0.0,0.0,0.0,0.0,0.0,0.0,0.0,0.0,0.0,0.0,0.0,0.0,0.0,0.0,0.0,0.0,0.0,0.0,0.0,0.0,0.0,0.0,-2.9093,-2.9582,-2.9124,-2.9215,-2.8864,0.0,0.0,0.0,0.0,0.0,0.0,0.0,0.0,0.0,-2.9959,-3.0019,-3.0806,-3.2441,-3.2686,-3.3034,-3.3472,-3.3683,-3.3603,-3.3243,-3.3243,-3.2849,-3.2129,-3.174,-3.091,-2.9682,-2.7939,-2.6885,-2.6228,0.0,0.0,0.0,0.0,-2.4614,-2.4901,0.0,0.0,0.0,0.0,0.0,0.0,0.0,0.0,0.0,0.0,0.0,0.0,0.0,0.0,0.0,-3.2081,0.0,0.0,0.0,0.0,0.0,0.0,0.0,0.0,0.0,0.0,0.0,0.0,-3.469,-3.5284,-3.4913,-3.5484,-3.5572,-3.5318,-3.5345,-3.5503,-3.5684,-3.5255,-3.4067,0.0,0.0,0.0,0.0,0.0,0.0,0.0,0.0,0.0,0.0,0.0,0.0,0.0,0.0,0.0,0.0,0.0,0.0,0.0,0.0,0.0,0.0,0.0,0.0,0.0,0.0,0.0,0.0,0.0,0.0,0.0,0.0,0.0,0.0,0.0,0.0,0.0,0.0,-2.9568,-3.0008,-2.8672,-2.9993,-3.0133,0.0,0.0,0.0,0.0,0.0,0.0,-2.955,-2.958,-3.0259,-3.1752,-3.1813,-3.2522,-3.4046,-3.3938,-3.4404,-3.5396,-3.4912,-3.4655,-3.4545,-3.4182,-3.363,-3.2869,-3.2389,-3.1467,-3.0185,-2.8525,-2.7582,-2.7036,-2.5488,-2.5297,-2.5872,-2.5641,-2.5807,-2.6109,0.0,0.0,0.0,0.0,0.0,0.0,0.0,0.0,0.0,0.0,0.0,0.0,0.0,0.0,-3.2014,-3.2014,-3.2047,-3.2027,0.0,0.0,0.0,0.0,0.0,0.0,0.0,0.0,0.0,-3.3077,-3.3277,-3.4338,-3.62,-3.6302,-3.6695,-3.7255,-3.7401,-3.7148,-3.649,-3.4462,-3.3678,-3.3607,0.0,0.0,0.0,0.0,0.0,0.0,0.0,0.0,0.0,0.0,0.0,0.0,0.0,0.0,0.0,0.0,0.0,0.0,0.0,0.0,0.0,0.0,0.0,0.0,0.0,0.0,0.0,0.0,0.0,0.0,0.0,0.0,0.0,0.0,0.0,0.0,0.0,0.0,0.0,-3.0076,-3.215,0.0,0.0,0.0,0.0,-3.0566,-3.1123,-3.1473,-3.1375,-3.139,-3.2273,-3.4249,-3.4309,-3.5237,-3.7135,-3.7165,-3.7195,-3.7255,-3.5889,-3.5252,-3.5183,-3.3866,-3.2861,-3.2146,-3.2119,-3.1361,-3.0066,-2.9517,-2.8743,-2.7893,-2.7492,-2.7215,-2.7043,-2.7275,-2.7059,-2.6647,0.0,0.0,0.0,0.0,0.0,0.0,0.0,0.0,0.0,0.0,0.0,0.0,0.0,-3.2202,-3.2767,-3.3251,-3.2921,-3.2502,-3.2036,0.0,0.0,0.0,0.0,0.0,0.0,0.0,-3.2193,-3.3813,-3.4778,-3.543,-3.5713,-3.5742,-3.5673,-3.5554,-3.6028,-3.612,-3.5907,-3.5654,-3.4655,-3.3091,-3.1809,-3.04,0.0,0.0,0.0,0.0,0.0,0.0,0.0,0.0,0.0,0.0,0.0,0.0,0.0,0.0,0.0,0.0,0.0,0.0,0.0,0.0,0.0,0.0,0.0,0.0,0.0,0.0,0.0,0.0,0.0,0.0,0.0,0.0,0.0,0.0,0.0,0.0,0.0,-3.1727,-3.3186,0.0,-3.1773,-3.2029,-3.236,-3.2481,-3.3126,-3.386,-3.4681,-3.4726,-3.522,-3.6327,-3.6372,-3.6701,-3.7404,-3.7404,-3.7404,-3.7389,-3.5957,-3.5047,-3.4541,-3.3139,-3.2087,-3.1394,-3.1394,-3.1103,-3.0684,-3.0507,-2.9804,-2.8781,-2.8297,-2.8009,-2.7952,-2.8028,-2.7954,-2.7805,0.0,0.0,0.0,0.0,0.0,0.0,0.0,0.0,0.0,0.0,0.0,-3.1485,-3.1884,-3.252,-3.3139,-3.3611,-3.3096,-3.2458,-3.1726,0.0,0.0,0.0,0.0,0.0,0.0,-3.1082,-3.2501,-3.3908,-3.4849,-3.5381,-3.5446,-3.5446,-3.5349,-3.5207,-3.5848,-3.6148,-3.6184,-3.6724,-3.5542,-3.3306,-3.2605,-3.1482,-3.011,0.0,0.0,0.0,0.0,0.0,0.0,0.0,0.0,0.0,0.0,0.0,0.0,0.0,0.0,0.0,0.0,0.0,0.0,0.0,0.0,0.0,0.0,0.0,0.0,0.0,0.0,0.0,0.0,0.0,0.0,0.0,0.0,0.0,0.0,0.0,-3.3844,-3.2946,-3.4592,-3.51,-3.335,-3.3784,-3.4262,-3.4487,-3.51,-3.5863,-3.6746,-3.6791,-3.709,-3.7719,-3.7749,-3.7853,-3.8078,-3.8078,-3.7938,-3.7641,-3.6046,-3.4832,-3.3933,-3.2343,-3.1357,-3.0874,-3.0836,-3.0836,-3.0874,-3.0836,-3.0344,-2.9629,-2.9382,-2.9144,-2.9,-2.9183,-2.9144,-2.8948,0.0,0.0,0.0,0.0,0.0,0.0,0.0,0.0,0.0,0.0,-3.1133,-3.1951,-3.1841,-3.2541,-3.3008,-3.3024,-3.244,-3.1779,-3.1119,-3.036,0.0,0.0,0.0,0.0,-2.9156,-3.0381,-3.1767,-3.3312,-3.3268,-3.4014,-3.5502,-3.5502,-3.5893,-3.6552,-3.7165,-3.7434,-3.7404,-3.7434,-3.6327,-3.452,-3.3679,-3.3086,-3.2583,0.0,0.0,0.0,0.0,0.0,0.0,0.0,0.0,0.0,0.0,0.0,0.0,0.0,0.0,0.0,0.0,0.0,0.0,0.0,0.0,0.0,0.0,0.0,0.0,0.0,0.0,0.0,0.0,0.0,0.0,0.0,0.0,0.0,-3.169,-3.3872,-3.51,-3.3799,-3.6477,-3.7419,-3.4878,-3.6342,-3.7225,-3.6626,-3.715,-3.7494,-3.7494,-3.7494,-3.7778,-3.8407,-3.8422,-3.8736,-3.9337,-3.9337,-3.8922,-3.8098,-3.6105,-3.4594,-3.3503,-3.1559,-3.0698,-3.0698,-3.0482,-3.0495,-3.066,-3.0482,-3.0406,-3.0444,-3.0823,-3.0609,-3.0192,-3.0777,-3.0596,-2.9999,0.0,0.0,0.0,0.0,0.0,0.0,0.0,0.0,0.0,0.0,-3.1431,-3.2114,-3.2436,-3.2772,-3.3218,-3.3761,-3.1988,-3.0753,-3.0464,0.0,0.0,0.0,0.0,0.0,-3.0439,-3.1294,-3.2399,-3.3807,-3.3807,-3.4457,-3.5777,-3.5926,-3.635,-3.6956,-3.7769,-3.7853,-3.7434,-3.7913,-3.7539,-3.6447,-3.4841,-3.3517,-3.2526,0.0,0.0,0.0,0.0,0.0,0.0,0.0,0.0,0.0,0.0,0.0,0.0,0.0,0.0,0.0,0.0,0.0,0.0,0.0,0.0,0.0,0.0,0.0,0.0,0.0,0.0,0.0,0.0,0.0,0.0,0.0,0.0,-3.4442,-3.3769,-3.5519,-3.6926,-3.703,-3.8287,-3.8661,-3.7434,-3.8257,-3.8796,-3.8631,-3.9215,-3.9574,-3.9574,-3.9574,-3.9439,-3.914,-3.914,-3.8839,-3.8271,-3.8234,-3.7753,-3.6735,-3.4755,-3.3659,-3.3324,-3.1355,-3.0482,-3.0482,-3.0406,-3.0444,-3.0482,-3.0406,-3.0406,-3.0406,-3.052,-3.0455,-3.0352,-3.0494,-3.0455,-3.0184,0.0,0.0,0.0,0.0,0.0,0.0,0.0,0.0,0.0,0.0,-3.1323,-3.2138,-3.2658,-3.2918,-3.3146,-3.3299,-3.154,-3.0167,-2.9489,0.0,0.0,0.0,0.0,-3.025,-3.1172,-3.2154,-3.3035,-3.3865,-3.4159,-3.4839,-3.5908,-3.6305,-3.6847,-3.7554,-3.8335,-3.8531,-3.8272,-3.8661,-3.8437,-3.7719,-3.6567,-3.534,-3.4158,-3.3873,-3.3589,-3.326,-3.2706,-3.2931,-3.3335,-3.2273,0.0,0.0,0.0,0.0,0.0,0.0,0.0,0.0,0.0,0.0,0.0,0.0,0.0,0.0,0.0,0.0,0.0,0.0,0.0,0.0,0.0,0.0,0.0,0.0,-3.5175,-3.6761,-3.6941,-3.7943,-3.8916,-3.9559,-3.9993,-4.0083,-3.9679,-4.0008,-4.0247,-4.0247,-4.0591,-4.0816,-4.0816,-4.0546,-4.0232,-3.9843,-3.945,-3.8782,-3.7791,-3.7715,-3.6996,-3.5694,-3.4069,-3.3091,-3.2607,-3.1023,-3.0254,-3.0254,-3.019,-3.019,-3.0254,-3.019,-3.0152,0.0,0.0,0.0,0.0,0.0,-3.0111,-2.9574,0.0,0.0,0.0,0.0,0.0,0.0,0.0,0.0,0.0,0.0,0.0,-3.2067,-3.252,-3.2877,-3.2813,-3.2159,-3.0964,-2.9749,0.0,0.0,0.0,-2.9842,-3.0586,-3.1212,-3.1729,-3.2948,-3.37,-3.3875,-3.4474,-3.5234,-3.606,-3.6698,-3.7388,-3.8151,-3.8801,-3.9222,-3.9493,-3.9418,-3.911,-3.8616,-3.8542,-3.7734,-3.6537,-3.5938,-3.5295,-3.4578,-3.3305,-3.3275,-3.3724,-3.2976,0.0,0.0,0.0,0.0,0.0,0.0,0.0,0.0,0.0,0.0,0.0,0.0,0.0,0.0,0.0,0.0,0.0,0.0,0.0,0.0,0.0,0.0,0.0,0.0,-3.736,-3.917,-4.0442,-4.0681,-4.0891,-4.1324,-4.1482,-4.1459,-4.1384,-4.1519,-4.1564,-4.1542,-4.1602,-4.1534,-4.1384,0.0,0.0,0.0,0.0,-3.8509,-3.7601,-3.7319,-3.6371,-3.4774,-3.3675,-3.2659,-3.1739,-3.0646,-3.01,-3.0049,-2.9869,-2.9895,-3.0049,-2.9869,-2.9792,-2.983,-3.019,-3.033,-3.0317,-3.0253,-2.9601,-2.8694,0.0,0.0,0.0,0.0,0.0,0.0,0.0,0.0,0.0,-3.0543,-3.1403,-3.1883,-3.1818,-3.2152,-3.2102,-3.1365,-2.9878,-2.8755,0.0,0.0,-2.9827,-3.0409,-3.1542,-3.2472,-3.3111,-3.3833,-3.4506,-3.5049,-3.5194,-3.5884,-3.7034,-3.7331,-3.7798,-3.8451,-3.8899,-3.9438,-3.9936,-3.9561,-3.9649,-3.9963,-3.9424,-3.8422,-3.721,-3.709,-3.6641,-3.5998,-3.522,-3.5355,-3.5714,-3.4502,-3.4906,-3.5699,-3.4518,0.0,0.0,0.0,0.0,0.0,0.0,0.0,0.0,0.0,0.0,0.0,0.0,0.0,0.0,0.0,0.0,0.0,0.0,0.0,0.0,-3.6148,-3.8841,-4.1108,-4.1916,-4.2432,-4.2417,-4.1489,-4.1886,-4.2006,-4.1467,-4.2342,-4.2731,-4.2246,-4.2656,-4.2491,-4.1429,-4.1113,-4.0487,-3.94,-3.8329,-3.7319,-3.6292,-3.5574,-3.4622,-3.3471,0.0,0.0,-3.1455,-3.0813,-3.0284,-2.9869,-2.983,-2.983,-2.9869,-2.983,-2.9792,-2.9792,-2.9908,-2.9934,-2.9845,-2.9378,-2.9063,-2.8711,0.0,0.0,0.0,0.0,0.0,0.0,0.0,0.0,0.0,0.0,-2.9949,-3.0405,-3.082,-3.073,-3.0529,-3.018,-2.8818,0.0,0.0,-2.956,-3.0748,-3.1605,-3.2533,-3.3474,-3.4433,-3.4414,-3.4878,-3.5836,-3.5552,-3.606,-3.7302,-3.7397,-3.7843,-3.8516,-3.8797,-3.9194,-3.9602,-3.945,-3.9798,-4.0367,-4.0053,-3.9514,-3.8841,-3.8153,-3.7509,-3.6911,-3.6582,-3.6462,-3.6432,-3.6073,-3.6193,-3.6372,-3.5731,-3.5026,-3.4307,0.0,0.0,0.0,0.0,0.0,0.0,0.0,0.0,0.0,0.0,0.0,0.0,0.0,0.0,-3.2721,0.0,0.0,-3.7389,-3.8721,-4.0628,-4.2102,-4.2628,-4.2962,-4.2956,-4.2393,-4.2656,-4.2716,-4.2387,-4.2822,-4.3076,-4.288,-4.3016,-4.2738,-4.1784,-4.135,-4.0596,-3.9491,-3.8498,-3.7333,-3.5895,-3.5427,-3.4312,-3.2641,-3.2353,-3.1788,-3.0997,-3.0733,-3.0319,-2.9792,-2.9792,-2.9792,-2.9792,-2.9792,-2.9792,-2.9792,-2.9792,-2.9792,-2.9729,-2.9101,-2.8712,-2.8361,0.0,0.0,0.0,0.0,0.0,0.0,0.0,0.0,0.0,0.0,0.0,-2.8826,-2.959,-2.9166,-2.8722,0.0,0.0,0.0,0.0,-3.0233,-3.1775,-3.2901,-3.3609,-3.4447,-3.5398,-3.5049,-3.5378,-3.6504,-3.5996,-3.6365,-3.7528,-3.7528,-3.7886,-3.8553,-3.8892,-3.9195,-3.9491,-3.9689,-4.0187,-4.0771,-4.0651,-4.0516,-4.0277,-3.92,-3.8287,-3.7584,-3.7464,-3.709,-3.6746,-3.724,-3.7165,-3.6851,-3.6851,-3.6402,-3.5609,-3.4277,-3.3694,0.0,0.0,0.0,0.0,0.0,0.0,0.0,0.0,0.0,-3.1854,-3.3185,-3.3993,-3.4936,-3.6552,-3.7983,-3.9478,-4.1092,-4.1966,-4.2574,-4.2881,-4.2955,-4.2996,-4.317,-4.321,-4.321,-4.317,-4.3076,-4.3036,-4.317,-4.3036,-4.2674,-4.2065,-4.1374,-4.0607,-3.9776,-3.8739,-3.7424,-3.5855,-3.5548,-3.4344,-3.2378,-3.2378,-3.1813,-3.0771,-3.0771,-3.0419,-2.9792,-2.9792,-2.9792,-2.9792,-2.9792,-2.9792,-2.9792,-2.9792,-2.9792,-2.9729,-2.9101,-2.8549,-2.8021,0.0,0.0,0.0,0.0,0.0,0.0,0.0,0.0,0.0,0.0,0.0,0.0,0.0,0.0,0.0,0.0,0.0,0.0,-2.9156,-3.1545,-3.3217,-3.3829,-3.5005,-3.561,-3.557,-3.6096,-3.6618,-3.7201,-3.7128,-3.7521,-3.8376,-3.8376,-3.8517,-3.8811,-3.9587,-4.0307,-4.0872,-4.1084,-4.1572,-4.2126,-4.1542,-4.092,-4.0382,-4.0232,-3.9379,-3.8197,-3.7614,-3.736,-3.7315,-3.7389,-3.7749,-3.8182,-3.8182,-3.7719,-3.6941,-3.5654,0.0,-3.332,-3.2512,-3.2004,-3.1989,-3.311,-3.2886,-3.299,0.0,0.0,-3.531,-3.6596,-3.7389,-3.7913,-3.8138,-3.9607,-4.088,-4.1103,-4.2001,-4.268,-4.2714,-4.2729,-4.2729,-4.2769,-4.2915,-4.2955,-4.2769,-4.2915,-4.2955,-4.2769,-4.2729,-4.2448,-4.176,-4.0984,-4.0246,-3.9572,-3.7935,-3.6596,-3.5655,-3.4896,-3.4024,-3.298,-3.298,-3.239,-3.1298,-3.1298,-3.0746,-2.9792,-2.9792,-2.9792,-2.9792,-2.9792,-2.9792,-2.9792,-2.9792,-2.9792,-2.9729,-2.9101,-2.8549,-2.8021,0.0,0.0,0.0,0.0,0.0,0.0,0.0,0.0,0.0,0.0,0.0,0.0,0.0,0.0,0.0,0.0,0.0,0.0,-2.883,-3.1247,-3.3235,-3.4641,-3.5473,-3.6227,-3.6922,-3.6819,-3.7239,-3.8157,-3.7842,-3.8011,-3.8686,-3.8686,-3.8929,-3.9386,-3.9891,-4.0456,-4.1095,-4.1308,-4.1796,-4.2336,-4.1692,-4.122,-4.0891,-4.0127,-3.923,-3.8302,-3.7644,-3.6926,0.0,0.0,-3.6806,-3.6836,-3.7584,-3.6851,-3.5669,-3.5549,-3.4277,0.0,-3.3529,-3.317,-3.3006,0.0,-3.4756,-3.5205,-3.6686,-3.7105,-3.7554,-3.8886,-3.9364,-3.9747,-4.0398,-4.1103,-4.1724,0.0,-4.2429,-4.2648,-4.2541,-4.2541,-4.2327,-4.181,-4.2306,-4.2648,-4.2688,-4.2648,-4.2648,-4.2688,-4.2581,-4.2206,-4.1546,-4.0852,-4.0144,-3.9357,-3.8232,-3.6986,-3.5615,-3.4969,-3.393,-3.2579,-3.2579,-3.2001,-3.0947,-3.1248,-3.0796,-2.9792,-2.9792,-2.9792,-2.9792,-2.9792,-2.9792,-2.9792,-2.9792,-2.9792,-2.9679,-2.8787,-2.8298,-2.7984,0.0,0.0,0.0,0.0,0.0,0.0,0.0,0.0,0.0,0.0,0.0,0.0,0.0,0.0,0.0,0.0,0.0,0.0,0.0,-3.0753,-3.2897,-3.4922,-3.57,-3.6576,-3.7644,-3.7399,-3.7748,-3.8782,-3.834,-3.8391,-3.8907,-3.9084,-3.9439,-4.0002,-4.0494,-4.1001,-4.1492,-4.181,-4.2087,-4.2366,-4.1886,-4.1324,-4.0726,-3.9783,-3.8542,-3.7255,-3.6761,-3.6013,0.0,0.0,-3.519,-3.5115,-3.6028,-3.5609,-3.4816,-3.513,-3.4068,-3.2991,-3.3948,0.0,0.0,-3.5699,-3.6671,-3.7464,-3.8093,-3.8601,-3.932,-4.0666,-4.0898,-4.1128,-4.2114,-4.2179,-4.2208,-4.2534,-4.2581,-4.2459,-4.2366,-4.2164,-4.1831,-4.1189,-4.1514,-4.1909,-4.2206,-4.2356,-4.2433,-4.2541,-4.2231,-4.1828,-4.1332,-4.0558,-3.9838,-3.9218,-3.8551,-3.7347,-3.5615,-3.5234,-3.4151,-3.2453,-3.229,-3.1725,-3.0834,-3.0922,-3.052,-2.9792,-2.9792,-2.9792,-2.9792,-2.9792,-2.9792,-2.9792,-2.9792,-2.9691,-2.9453,-2.8637,-2.8235,-2.7971,0.0,0.0,0.0,0.0,0.0,0.0,0.0,0.0,0.0,0.0,0.0,0.0,0.0,0.0,0.0,0.0,0.0,0.0,0.0,-3.0475,-3.2407,-3.4427,-3.5774,-3.669,-3.7104,-3.7747,-3.8314,-3.8782,-3.8767,-3.8877,-3.9119,-3.9758,-4.0182,-4.0457,-4.1728,-4.2351,-4.241,-4.3,-4.2925,-4.2396,-4.2381,-4.119,-3.9448,-3.9439,-3.7404,-3.4623,-3.4608,0.0,0.0,0.0,-3.3036,-3.3559,-3.3604,-3.4472,0.0,-3.4728,-3.4039,0.0,0.0,0.0,-3.5759,-3.703,-3.8347,-3.9499,-4.0157,-4.0322,-4.0711,-4.2066,-4.2127,-4.2164,-4.2832,-4.2659,-4.2404,-4.2392,-4.2257,-4.2133,-4.2092,-4.1541,-4.112,-4.1091,-4.0539,-4.0408,0.0,-4.1904,-4.231,-4.2133,-4.1497,-4.112,-4.1091,-3.9915,-3.9218,-3.9204,-3.8551,-3.7347,-3.5615,-3.5601,-3.4719,-3.3086,-3.2478,-3.1913,-3.1336,-3.0306,-2.9829,-2.9792,-2.9792,-2.9792,-2.9792,-2.9792,-2.9792,-2.9792,-2.9792,-2.9453,-2.8913,-2.8875,-2.8561,-2.8021,0.0,0.0,0.0,0.0,0.0,0.0,0.0,0.0,0.0,0.0,0.0,0.0,0.0,0.0,0.0,0.0,0.0,0.0,0.0,-2.9248,-3.1147,-3.308,-3.4876,-3.61,-3.669,-3.7316,-3.7923,-3.8528,-3.8528,-3.8817,-3.9301,-3.9525,-3.9905,-4.0427,-4.0861,-4.1309,-4.1767,-4.1938,-4.1908,-4.1677,-4.0756,-4.0008,-3.9239,-3.7973,-3.6222,-3.4339,0.0,0.0,0.0,0.0,0.0,0.0,-3.193,0.0,0.0,-3.2138,0.0,0.0,0.0,0.0,-3.6699,-3.818,-3.9394,-4.0514,-4.1511,-4.1951,-4.2252,-4.2698,-4.1736,-4.0789,-4.0674,-4.0241,-3.9954,-4.0207,-4.0913,-4.1584,-4.2034,-4.1903,-4.1424,-4.0539,-4.0626,0.0,0.0,0.0,0.0,-4.2034,-4.1482,-4.1091,-4.1091,-4.0263,-3.961,-3.9218,-3.8551,-3.7347,-3.5615,-3.4881,-3.386,-3.2491,-3.1587,-3.106,-3.0846,-3.0131,-2.9792,-2.9792,-2.9792,-2.9792,-2.9792,-2.9792,-2.9792,-2.9792,-2.9792,-2.9679,-2.9453,-2.9026,-2.8775,-2.8511,0.0,0.0,0.0,0.0,0.0,0.0,0.0,0.0,0.0,0.0,0.0,0.0,0.0,0.0,0.0,0.0,0.0,0.0,0.0,0.0,-2.9452,-3.1144,-3.2631,-3.3741,-3.44,-3.4773,-3.5504,-3.6641,-3.6881,-3.7464,-3.8377,-3.8841,-3.9275,-3.9694,-3.9948,-4.0292,-4.0681,-4.0681,-4.0397,-3.9888,-3.9035,-3.8272,-3.7509,-3.6252,-3.4786,0.0,0.0,0.0,0.0,0.0,0.0,0.0,0.0,0.0,0.0,0.0,0.0,0.0,0.0,-3.6183,-3.7514,-3.8988,-4.0214,-4.1253,-4.198,-4.2535,-4.2742,-4.2322,-4.1024,-3.9704,-3.8956,-3.8449,-3.8133,-3.8182,-3.9059,-4.0046,-4.0945,-4.0858,-4.0641,-4.0481,-4.0626,-4.0423,0.0,0.0,0.0,-4.1294,-4.0989,-4.0641,-4.0423,-4.0002,-3.9494,-3.887,-3.842,-3.7347,-3.5615,-3.473,-3.337,-3.1637,-3.0947,-3.0507,-3.0306,-2.9955,-2.9792,-2.9792,-2.9792,-2.9792,-2.9792,-2.9792,-2.9792,-2.9792,-2.9792,-2.9666,-2.9465,-2.9302,-2.8976,-2.8511,0.0,0.0,0.0,0.0,0.0,0.0,0.0,0.0,0.0,0.0,0.0,0.0,0.0,0.0,0.0,0.0,0.0,0.0,0.0,0.0,0.0,-2.8717,-2.9358,-2.9982,-3.0596,-3.0591,-3.1523,-3.3425,-3.4084,-3.5102,-3.645,-3.7648,-3.8247,-3.8272,-3.8931,-3.9179,-3.9215,-3.9215,-3.8467,-3.7255,-3.7225,-3.6088,-3.4459,-3.4414,0.0,0.0,0.0,0.0,0.0,0.0,0.0,0.0,0.0,0.0,0.0,0.0,0.0,-3.506,-3.5785,-3.6904,-3.82,-3.9496,-4.0763,-4.169,-4.169,-4.2172,-4.2231,-4.0978,-3.9927,-3.8889,0.0,0.0,-3.6925,-3.6359,-3.691,-3.7839,-3.9117,-3.8783,-3.9073,0.0,0.0,0.0,0.0,0.0,0.0,-4.006,0.0,-3.9842,-3.9276,-3.9247,-3.8942,-3.8275,-3.815,-3.7266,-3.5574,-3.491,-3.3238,-3.057,-3.057,-3.0306,-2.9792,-2.9792,-2.9792,-2.9792,-2.9792,-2.9792,-2.9792,-2.9792,-2.9792,-2.9792,-2.9792,-2.9453,-2.9001,-2.9591,-2.9114,-2.8109,0.0,0.0,0.0,0.0,0.0,0.0,0.0,0.0,0.0,0.0,0.0,0.0,0.0,0.0,0.0,0.0,0.0,0.0,0.0,0.0,0.0,0.0,0.0,0.0,0.0,0.0,0.0,0.0,0.0,-3.3939,-3.517,-3.5501,-3.5857,-3.6252,-3.6432,-3.6558,-3.6643,-3.6643,-3.6162,-3.5351,0.0,-3.4312,-3.3694,0.0,0.0,0.0,0.0,0.0,0.0,0.0,0.0,0.0,0.0,0.0,-3.2096,0.0,0.0,-3.5511,-3.6647,-3.7886,-3.9089,-4.0061,-4.0787,-4.1332,-4.1651,-4.1376,-4.0842,-4.0006,-3.7754,-3.578,0.0,0.0,0.0,-3.5508,-3.736,0.0,-4.0437,-4.0902,0.0,-4.1091,0.0,-4.0641,-4.0147,-3.9958,0.0,0.0,-4.0104,-4.0031,-3.9871,-3.9871,-3.9581,-3.8971,-3.7443,-3.6119,-3.4989,-3.2804,-3.1094,-2.9993,-2.9993,-2.993,-2.9792,-2.9792,-2.9792,-2.9792,-2.9792,-2.9792,-2.9792,-2.9792,-2.9792,-2.9792,-2.9792,-2.9704,-2.9591,-2.9741,-2.9616,-2.9277,0.0,0.0,0.0,0.0,0.0,0.0,0.0,0.0,0.0,0.0,0.0,0.0,0.0,0.0,0.0,0.0,0.0,0.0,0.0,0.0,0.0,0.0,0.0,0.0,0.0,0.0,0.0,0.0,0.0,0.0,0.0,-3.3185,-3.3638,-3.3908,-3.3908,-3.3969,-3.4015,0.0,0.0,0.0,0.0,0.0,0.0,0.0,0.0,0.0,0.0,0.0,0.0,0.0,0.0,-3.1278,-3.1827,-3.2691,-3.3703,-3.4685,0.0,-3.6373,-3.7114,-3.8028,-3.8952,-3.9736,-4.008,-4.0342,-4.0539,-4.0261,-3.9585,-3.836,-3.6216,0.0,0.0,0.0,0.0,0.0,0.0,0.0,-3.961,-4.0408,-4.1004,0.0,-4.1541,0.0,-4.0597,-4.0539,-4.0423,0.0,-4.0365,-4.0292,-3.9726,-3.9958,-3.9526,-3.8231,-3.6835,-3.5287,-3.3548,-3.1601,-3.0331,-2.9792,-2.9792,-2.9792,-2.9792,-2.9792,-2.9792,-2.9792,0.0,-2.9792,-2.9792,-2.9792,-2.9792,-2.9792,-2.9792,-2.9792,-2.9792,-2.9792,-2.9628,-2.9365,0.0,0.0,0.0,0.0,0.0,0.0,0.0,0.0,0.0,0.0,0.0,0.0,0.0,0.0,0.0,0.0,0.0,0.0,0.0,0.0,0.0,0.0,0.0,0.0,0.0,0.0,0.0,0.0,0.0,0.0,0.0,0.0,0.0,0.0,0.0,0.0,0.0,0.0,0.0,0.0,0.0,0.0,0.0,0.0,0.0,0.0,0.0,0.0,0.0,0.0,-3.2616,-3.2719,-3.3462,-3.4691,-3.5898,-3.5952,-3.6645,-3.739,-3.7477,-3.7847,-3.84,-3.9068,-3.917,-3.9073,-3.9073,-3.8942,-3.8318,-3.6548,0.0,-3.3819,-3.2684,-3.2481,-3.2539,-3.2713,0.0,-3.6322,-3.8188,-3.903,-4.0118,-4.1889,-4.2092,-4.186,-4.1279,-4.1221,-4.0945,-4.0278,-4.0771,-4.0583,-3.9378,-3.9696,-3.8835,-3.6415,-3.5896,-3.4336,-3.1654,-3.0877,-3.0269,-2.9792,-2.9792,-2.9792,-2.9792,-2.9792,-2.9792,-2.9792,-2.9792,-2.9792,-2.9792,-2.9792,-2.9792,-2.9792,-2.9792,-2.9792,-2.9792,-2.9792,-2.9478,-2.9001,0.0,0.0,0.0,0.0,0.0,0.0,0.0,0.0,0.0,0.0,-2.7606,0.0,0.0,0.0,0.0,0.0,0.0,0.0,0.0,0.0,0.0,0.0,0.0,0.0,0.0,0.0,0.0,0.0,0.0,0.0,0.0,0.0,0.0,0.0,0.0,0.0,0.0,0.0,0.0,0.0,0.0,0.0,0.0,0.0,0.0,0.0,0.0,0.0,0.0,0.0,-3.3694,-3.4289,-3.5368,-3.6264,-3.701,-3.7417,-3.767,-3.7914,-3.8414,-3.8487,-3.8602,-3.9282,-3.892,-3.8376,-3.8376,-3.7564,0.0,0.0,-3.4095,-3.2742,-3.2524,-3.2481,-3.2829,-3.3906,0.0,0.0,0.0,0.0,-4.1091,0.0,0.0,0.0,0.0,0.0,0.0,0.0,-4.1033,-4.0757,-3.9987,-3.9396,-3.7351,-3.3555,-3.3343,-3.228,-3.0201,-3.0007,-2.9892,-2.9792,-2.9792,-2.9792,-2.9792,-2.9792,-2.9792,-2.9792,-2.9792,0.0,-2.9792,-2.9792,-2.9792,-2.9792,-2.9792,-2.9792,-2.9792,-2.9792,-2.9729,-2.9641,0.0,0.0,0.0,0.0,0.0,0.0,0.0,0.0,0.0,-2.9583,-2.9034,-2.8504,0.0,0.0,0.0,0.0,0.0,0.0,0.0,0.0,0.0,0.0,0.0,0.0,0.0,0.0,0.0,0.0,0.0,0.0,0.0,0.0,0.0,0.0,0.0,0.0,0.0,0.0,0.0,0.0,0.0,0.0,0.0,0.0,0.0,0.0,0.0,0.0,0.0,0.0,-3.3709,-3.4262,-3.5839,-3.6945,-3.7723,-3.7943,-3.8412,-3.887,-3.8811,-3.8899,-3.9101,-3.9408,-3.86,-3.7738,-3.7738,0.0,0.0,0.0,-3.3616,-3.2481,-3.2481,0.0,0.0,0.0,0.0,0.0,0.0,0.0,0.0,0.0,0.0,0.0,0.0,0.0,-4.1294,-4.0626,-4.0583,-4.0079,-3.9021,-3.7425,-3.5358,-3.2778,-3.2249,-3.1298,-2.9804,-2.9792,-2.9792,-2.9792,-2.9792,-2.9792,-2.9792,-2.9792,-2.9792,-2.9792,-2.9792,-2.9792,-2.9792,-2.9792,-2.9792,-2.9792,-2.9792,-2.9792,-2.9792,-2.9792,-2.9603,-2.939,0.0,0.0,0.0,0.0,0.0,0.0,0.0,-2.8577,-2.9093,-3.068,-3.0774,-3.0425,-2.9771,-2.8856,-2.8069,0.0,0.0,0.0,0.0,0.0,0.0,0.0,0.0,0.0,0.0,0.0,0.0,0.0,0.0,0.0,0.0,0.0,0.0,0.0,0.0,0.0,0.0,0.0,0.0,0.0,0.0,0.0,0.0,0.0,0.0,0.0,0.0,0.0,0.0,0.0,-3.3395,-3.3589,-3.5295,-3.6735,-3.7773,-3.7907,-3.8676,-3.9409,-3.901,-3.918,-3.9413,-3.9375,-3.8251,-3.7136,-3.7099,-3.6083,0.0,0.0,-3.3514,-3.2687,-3.2542,0.0,-3.273,0.0,0.0,0.0,0.0,0.0,0.0,0.0,0.0,0.0,0.0,0.0,0.0,-3.9958,-3.9441,-3.8709,-3.7664,-3.5586,-3.3779,-3.2447,-3.1739,-3.0871,-2.9804,-2.9792,-2.9792,-2.9792,-2.9792,-2.9792,-2.9792,-2.9792,-2.9792,-2.9792,-2.9792,-2.9792,-2.9792,-2.9792,-2.9792,-2.9792,-2.9792,-2.9792,-2.9792,-2.9792,-2.9503,-2.9176,0.0,0.0,0.0,0.0,0.0,0.0,0.0,-2.9334,-3.0037,-3.2132,-3.2327,-3.2193,-3.2026,-3.0734,-2.945,0.0,0.0,0.0,0.0,0.0,0.0,0.0,0.0,0.0,0.0,0.0,0.0,0.0,0.0,0.0,0.0,0.0,0.0,0.0,0.0,0.0,0.0,0.0,0.0,0.0,0.0,0.0,0.0,0.0,0.0,0.0,0.0,0.0,0.0,0.0,0.0,-3.2736,-3.3529,-3.51,-3.6742,-3.7295,0.0,0.0,-3.9188,-3.9222,-3.9069,-3.8922,-3.7747,-3.6631,-3.6438,0.0,0.0,-3.4428,-3.3862,-3.3209,-3.2629,-3.2481,-3.273,0.0,0.0,-3.543,0.0,0.0,0.0,0.0,0.0,0.0,0.0,0.0,0.0,-3.9378,-3.7242,-3.6211,-3.6688,-3.5228,-3.3491,-3.1587,-3.1427,-3.0871,-2.9804,-2.9792,-2.9792,-2.9792,-2.9792,-2.9792,-2.9792,-2.9792,-2.9792,-2.9792,-2.9792,-2.9792,0.0,-2.9792,-2.9792,-2.9792,-2.9792,-2.9792,-2.9792,-2.9792,-2.9754,-2.9729,0.0,0.0,0.0,0.0,0.0,0.0,0.0,-2.8834,-2.9747,-3.2366,-3.2627,-3.2852,-3.3651,-3.2754,-3.1368,0.0,0.0,0.0,0.0,0.0,0.0,0.0,0.0,0.0,0.0,0.0,0.0,0.0,0.0,0.0,0.0,0.0,0.0,0.0,0.0,0.0,0.0,0.0,0.0,0.0,0.0,0.0,0.0,0.0,0.0,0.0,0.0,0.0,0.0,0.0,0.0,0.0,-3.2826,-3.3724,0.0,0.0,-3.727,-3.8452,-3.8721,-3.9235,-3.9594,-3.9084,-3.7874,-3.672,-3.6529,0.0,-3.4563,-3.4414,-3.3601,-3.2933,-3.3064,-3.244,-3.2251,0.0,0.0,0.0,0.0,0.0,0.0,0.0,0.0,0.0,0.0,0.0,-3.9372,-3.7908,-3.6458,-3.5494,-3.5282,-3.3884,-3.2565,-3.1452,-3.1085,-3.0557,-2.9804,-2.9792,-2.9792,-2.9792,-2.9792,-2.9792,-2.9792,-2.9792,-2.9792,-2.9792,-2.9792,-2.9792,0.0,-2.9792,-2.9792,-2.9792,-2.9792,-2.9792,-2.9792,-2.9792,-2.9792,-2.9792,0.0,0.0,0.0,0.0,0.0,0.0,-2.8937,-2.9265,-3.0213,-3.2511,-3.2914,-3.3345,-3.4299,-3.3651,-3.2523,-3.1032,0.0,0.0,0.0,0.0,0.0,0.0,0.0,0.0,0.0,0.0,0.0,0.0,0.0,0.0,0.0,0.0,0.0,0.0,0.0,0.0,0.0,0.0,0.0,0.0,0.0,0.0,0.0,0.0,0.0,0.0,0.0,0.0,0.0,0.0,0.0,0.0,0.0,0.0,0.0,0.0,-3.6582,-3.8138,-3.8347,-3.9107,-3.9713,-3.8986,-3.7849,-3.6816,0.0,0.0,-3.4563,-3.4414,-3.3543,-3.2875,-3.3137,-3.2266,-3.1816,0.0,0.0,-3.3663,0.0,0.0,0.0,0.0,0.0,-3.8899,0.0,-3.8899,-3.8222,-3.6638,-3.5949,-3.5156,-3.4063,-3.2701,-3.1788,-3.1399,-3.1035,-3.0507,-2.9804,-2.9792,-2.9792,-2.9792,-2.9792,-2.9792,-2.9792,-2.9792,-2.9792,-2.9792,-2.9792,-2.9792,0.0,-2.9792,-2.9792,-2.9792,-2.9792,-2.9792,-2.9792,-2.9792,-2.9792,-2.9792,0.0,0.0,0.0,0.0,0.0,0.0,0.0,-3.13,-3.2004,-3.2717,-3.3436,-3.3842,-3.3721,-3.2988,-3.2591,-3.2757,0.0,0.0,0.0,0.0,0.0,0.0,0.0,0.0,0.0,0.0,0.0,-3.1094,-2.9971,0.0,0.0,0.0,0.0,0.0,0.0,0.0,0.0,0.0,0.0,0.0,0.0,0.0,0.0,0.0,0.0,0.0,0.0,0.0,0.0,0.0,0.0,0.0,0.0,0.0,0.0,0.0,-3.5878,-3.7569,-3.8212,-3.8901,-3.9203,-3.8338,-3.7493,-3.6689,0.0,0.0,-3.4414,-3.4414,-3.3906,-3.33,-3.2643,-3.1944,-3.1495,-3.1509,0.0,0.0,0.0,0.0,0.0,0.0,0.0,0.0,-3.8217,-3.8217,-3.7477,-3.5735,-3.5628,0.0,-3.3197,-3.2014,-3.1399,-3.1386,-3.1386,-3.0871,-2.9804,-2.9792,-2.9792,-2.9792,-2.9792,-2.9792,-2.9792,-2.9792,-2.9792,-2.9792,-2.9792,-2.9792,0.0,-2.9792,-2.9792,-2.9792,-2.9792,-2.9792,-2.9792,-2.9792,-2.9792,-2.9792,0.0,0.0,0.0,0.0,0.0,0.0,0.0,-3.0075,-3.0678,-3.1952,-3.2198,-3.2613,-3.3601,-3.3352,-3.301,-3.2741,0.0,0.0,0.0,0.0,0.0,0.0,0.0,0.0,0.0,0.0,-3.0839,-3.0629,-3.1184,-3.1567,-3.1767,0.0,0.0,0.0,0.0,0.0,0.0,0.0,0.0,0.0,0.0,0.0,0.0,0.0,0.0,0.0,0.0,0.0,0.0,0.0,0.0,0.0,0.0,0.0,0.0,0.0,0.0,0.0,-3.6776,-3.7554,-3.7953,-3.7675,-3.7035,-3.6295,-3.5903,0.0,-3.4563,-3.4414,-3.3906,-3.3445,-3.3209,-3.2266,-3.1816,-3.2716,0.0,0.0,0.0,0.0,0.0,0.0,0.0,0.0,0.0,0.0,-3.7477,-3.5735,-3.5615,-3.4869,-3.3197,-3.2365,-3.1775,-3.1399,-3.0683,-3.0131,-2.9792,-2.9792,-2.9792,-2.9792,-2.9792,-2.9792,-2.9792,-2.9792,-2.9792,-2.9792,-2.9792,-2.9792,-2.9792,-2.9792,-2.9792,-2.9754,-2.9365,-2.9164,-2.9164,-2.9164,-2.9164,-2.9164,0.0,0.0,0.0,0.0,0.0,0.0,0.0,-3.0196,-3.061,-3.13,-3.1479,-3.2102,-3.361,-3.3339,-3.3195,-3.3544,0.0,0.0,0.0,0.0,0.0,0.0,0.0,0.0,0.0,-3.0635,-3.1116,-3.1027,-3.194,-3.2398,-3.2398,-3.2659,-3.2275,0.0,0.0,0.0,0.0,0.0,0.0,0.0,0.0,0.0,-3.3704,0.0,0.0,0.0,0.0,0.0,0.0,0.0,0.0,0.0,0.0,0.0,0.0,0.0,0.0,0.0,0.0,-3.6941,-3.736,-3.712,-3.6592,0.0,0.0,0.0,-3.4563,-3.4414,-3.3906,-3.3431,-3.3151,-3.2237,-3.1714,-3.2312,0.0,0.0,0.0,0.0,0.0,0.0,0.0,0.0,0.0,-3.8072,-3.7477,-3.5735,-3.5615,-3.4869,-3.3197,-3.2328,-3.175,-3.1399,-3.0557,-3.0005,-2.9792,-2.9792,-2.9792,-2.9792,-2.9792,-2.9792,-2.9792,-2.9792,-2.9792,-2.9792,-2.9792,-2.9792,0.0,-2.9792,-2.9792,-2.9754,-2.9402,-2.9076,-2.8888,-2.8888,-2.8888,-2.8863,0.0,0.0,0.0,0.0,0.0,0.0,0.0,0.0,0.0,0.0,-3.1242,-3.2164,-3.3659,-3.3066,-3.3195,0.0,0.0,0.0,0.0,0.0,0.0,0.0,0.0,0.0,0.0,-3.0282,-3.0826,-3.2137,-3.2365,-3.249,-3.2552,-3.3183,-3.2782,-3.1547,-3.1547,-3.1532,-3.1486,-3.1439,-3.1797,-3.2521,-3.3106,-3.2982,0.0,0.0,0.0,0.0,0.0,0.0,0.0,0.0,0.0,0.0,0.0,0.0,0.0,0.0,0.0,0.0,0.0,0.0,0.0,0.0,0.0,0.0,0.0,0.0,0.0,-3.4356,-3.3877,-3.3314,-3.2629,-3.1973,-3.138,-3.0772,0.0,0.0,0.0,0.0,0.0,0.0,-3.6417,0.0,-3.7244,-3.7854,-3.7477,-3.5735,-3.5574,-3.4803,-3.3134,-3.1951,-3.1336,-3.1336,-3.0834,-3.0306,-2.9792,-2.9792,-2.9792,-2.9792,-2.9792,-2.9792,-2.9792,-2.9792,-2.9792,0.0,-2.9792,-2.9792,-2.9792,-2.9792,-2.9792,-2.9792,-2.9741,-2.9402,-2.8888,-2.885,-2.8838,-2.875,0.0,0.0,0.0,0.0,0.0,0.0,0.0,0.0,0.0,0.0,-3.1529,-3.1878,-3.2801,-3.308,-3.3554,0.0,0.0,0.0,0.0,0.0,0.0,0.0,0.0,0.0,0.0,-3.0808,-3.135,-3.2342,-3.2884,-3.3444,-3.4012,-3.4181,-3.3752,-3.2921,-3.2921,-3.2644,-3.2121,-3.1624,-3.2074,-3.3136,-3.2782,-3.2844,0.0,0.0,0.0,0.0,-3.2601,-3.2624,0.0,0.0,0.0,0.0,0.0,0.0,0.0,0.0,-3.3604,0.0,-3.4113,0.0,-3.5923,-3.5774,-3.5451,-3.4979,0.0,0.0,0.0,0.0,0.0,0.0,0.0,-3.235,-3.2031,0.0,0.0,0.0,-3.3198,0.0,0.0,-3.6997,-3.7476,-3.7636,-3.7346,-3.7854,-3.7477,-3.5735,-3.5234,-3.4233,-3.25,-3.1386,-3.0796,-3.0796,-3.0269,-2.993,-2.9792,-2.9792,-2.9792,-2.9792,-2.9792,-2.9792,-2.9792,-2.9792,-2.9792,-2.9792,-2.9792,-2.9792,-2.9792,-2.9792,-2.9792,-2.9741,-2.9302,-2.9013,-2.8838,-2.8448,-2.8298,-2.8222,0.0,0.0,0.0,0.0,0.0,0.0,0.0,0.0,0.0,0.0,0.0,0.0,0.0,0.0,0.0,0.0,0.0,0.0,0.0,0.0,0.0,0.0,0.0,0.0,-3.0478,-3.0989,-3.1627,-3.2398,-3.3075,-3.3767,-3.4489,-3.4166,-3.3767,-3.3398,-3.3075,-3.2736,-3.2367,-3.1997,-3.2275,-3.2906,-3.2552,0.0,0.0,0.0,0.0,0.0,-3.2398,-3.2342,0.0,-3.2066,-3.194,-3.1902,0.0,0.0,0.0,0.0,-3.326,-3.3499,-3.3499,-3.4247,-3.4966,-3.4571,-3.4703,-3.4725,-3.4012,0.0,0.0,0.0,0.0,0.0,0.0,0.0,0.0,0.0,-3.1888,0.0,0.0,0.0,0.0,-3.6736,-3.6881,-3.7012,0.0,-3.723,-3.6743,-3.5682,-3.4982,-3.3893,-3.2311,-3.1424,-3.0859,-3.062,-3.008,-2.9792,-2.9792,-2.9792,-2.9792,-2.9792,-2.9792,-2.9792,-2.9792,-2.9792,-2.9792,-2.9792,-2.9792,-2.9792,-2.9792,-2.9792,-2.9792,-2.9767,-2.9453,-2.9126,-2.8825,-2.831,-2.8109,-2.7996,0.0,0.0,0.0,0.0,0.0,0.0,0.0,0.0,0.0,0.0,0.0,0.0,0.0,0.0,0.0,0.0,0.0,0.0,0.0,0.0,0.0,0.0,0.0,-3.0837,-3.0409,-3.1036,-3.174,-3.2552,-3.3229,-3.3937,-3.4643,-3.4106,-3.3767,-3.3537,-3.2859,-3.249,-3.2398,-3.2398,-3.2398,-3.2398,-3.2398,0.0,0.0,0.0,0.0,0.0,0.0,0.0,0.0,-3.2094,-3.1996,-3.194,-3.1626,0.0,0.0,0.0,0.0,0.0,-3.332,-3.3754,-3.402,-3.3449,-3.3972,-3.4427,-3.3706,0.0,0.0,0.0,0.0,0.0,0.0,-3.1495,0.0,0.0,0.0,0.0,-3.5436,-3.5198,-3.5256,-3.633,-3.6069,0.0,-3.7003,-3.6514,-3.5895,-3.5332,-3.4561,-3.3504,-3.203,-3.1449,-3.0947,-3.0507,-3.0043,-2.9792,-2.9792,-2.9792,-2.9792,-2.9792,-2.9792,-2.9792,-2.9792,-2.9792,-2.9792,-2.9792,0.0,0.0,-2.9792,-2.9792,-2.9792,-2.9792,-2.9792,-2.949,-2.895,-2.8335,-2.8109,-2.7946,0.0,0.0,0.0,0.0,0.0,0.0,0.0,0.0,0.0,0.0,0.0,0.0,0.0,0.0,0.0,0.0,0.0,0.0,0.0,0.0,0.0,0.0,-3.0712,-3.1126,-3.1789,-3.1382,-3.1847,-3.3244,-3.3981,-3.469,-3.5367,-3.5799,-3.5414,-3.4305,-3.3567,-3.2936,-3.2398,-3.2398,-3.2398,-3.2398,-3.2398,0.0,0.0,0.0,0.0,0.0,0.0,0.0,0.0,-3.2094,-3.1996,-3.194,-3.1626,0.0,0.0,0.0,0.0,0.0,-3.2512,-3.2631,-3.2734,-3.3195,-3.3291,-3.3221,-3.2974,0.0,0.0,0.0,0.0,0.0,0.0,-3.1495,-3.1451,0.0,0.0,-3.4791,0.0,0.0,-3.6939,-3.7128,0.0,-3.7362,-3.6292,-3.6525,-3.5937,-3.3964,-3.3302,-3.2354,-3.0924,-3.0344,-3.0005,-2.993,-2.9829,-2.9792,-2.9792,-2.9792,-2.9792,-2.9792,-2.9792,-2.9792,-2.9792,-2.9792,-2.9792,-2.9792,0.0,-2.9792,-2.9792,-2.9792,-2.9792,-2.9792,-2.9792,-2.9741,-2.9528,-2.8499,-2.8109,-2.7946,0.0,0.0,0.0,0.0,0.0,0.0,0.0,0.0,0.0,0.0,0.0,0.0,0.0,0.0,0.0,0.0,0.0,0.0,0.0,0.0,0.0,-3.152,-3.1476,-3.1415,-3.1182,-3.1944,-3.252,-3.2859,-3.3966,-3.4659,-3.4982,-3.529,-3.489,-3.386,-3.3167,-3.289,-3.2936,-3.2936,-3.2936,-3.2936,0.0,0.0,0.0,0.0,0.0,0.0,0.0,0.0,0.0,0.0,-3.1996,-3.194,-3.1626,0.0,0.0,0.0,0.0,0.0,-3.1781,-3.1812,-3.1797,-3.1928,-3.241,-3.2742,-3.222,0.0,0.0,0.0,0.0,0.0,0.0,0.0,-3.2396,-3.3427,0.0,-3.5357,-3.6591,-3.6765,-3.6765,0.0,0.0,-3.6763,-3.5658,-3.5391,-3.4662,-3.3171,-3.2404,-3.1591,-3.0645,-3.0382,-3.0093,-2.9804,-2.9792,-2.9792,-2.9792,-2.9792,-2.9792,-2.9792,-2.9792,-2.9792,-2.9792,-2.9792,-2.9792,-2.9792,0.0,-2.9792,-2.9792,-2.9792,-2.9792,-2.9767,-2.9453,-2.9327,-2.9189,-2.8072,-2.7469,-2.7178,0.0,0.0,0.0,0.0,0.0,0.0,0.0,0.0,0.0,0.0,0.0,0.0,0.0,0.0,0.0,0.0,0.0,0.0,0.0,0.0,-3.2698,-3.2542,-3.2536,-3.2086,-3.112,-3.257,-3.3187,-3.2875,-3.4135,-3.4813,-3.4967,-3.4813,-3.4366,-3.3629,-3.2936,-3.2921,-3.3398,-3.3398,-3.3506,-3.3644,0.0,0.0,0.0,0.0,0.0,0.0,0.0,0.0,0.0,0.0,0.0,0.0,0.0,0.0,0.0,-3.1511,-3.1511,-3.1511,-3.1544,-3.1411,-3.122,-3.1071,0.0,0.0,0.0,0.0,0.0,0.0,0.0,0.0,0.0,-3.1758,0.0,-3.4913,-3.5566,-3.6075,-3.6664,-3.6751,-3.6751,-3.6751,-3.6461,-3.5961,-3.5195,-3.4189,-3.3221,-3.2266,-3.1601,-3.0984,-3.0457,-3.0419,-3.0231,-2.9804,-2.9792,-2.9792,-2.9792,-2.9792,-2.9792,-2.9792,-2.9792,-2.9792,-2.9792,-2.9792,-2.9792,-2.9792,-2.9792,-2.9716,-2.9603,-2.9741,-2.9628,-2.9365,-2.9013,-2.8737,-2.8448,-2.7595,-2.6964,-2.6499,0.0,0.0,0.0,0.0,0.0,0.0,0.0,0.0,0.0,0.0,0.0,0.0,0.0,0.0,0.0,0.0,0.0,0.0,0.0,0.0,-3.3604,-3.2967,-3.3532,-3.3656,-3.3195,-3.3131,-3.3517,-3.4351,-3.5075,-3.5737,-3.6322,-3.5707,-3.5075,-3.4397,-3.3644,-3.3352,-3.3398,-3.3398,-3.3798,-3.4366,-3.3675,0.0,0.0,0.0,0.0,0.0,0.0,0.0,0.0,0.0,0.0,0.0,0.0,0.0,-3.1511,-3.1511,-3.1511,-3.1616,-3.2095,-3.1694,-3.122,-3.1628,-3.1333,0.0,-3.1426,-3.1061,0.0,-3.1395,0.0,0.0,0.0,-3.2152,-3.3678,-3.437,-3.5996,-3.7375,-3.7984,0.0,-3.8072,-3.8072,-3.6925,-3.5787,-3.4899,-3.3606,-3.2201,-3.0855,-3.071,-3.0432,-2.988,-2.9854,-2.9829,-2.9792,-2.9792,-2.9792,-2.9792,-2.9792,-2.9792,-2.9792,-2.9792,-2.9792,-2.9792,-2.9792,-2.9792,-2.9792,-2.9792,-2.949,-2.9001,-2.9566,-2.9176,-2.8273,-2.8712,-2.8298,-2.7394,-2.7318,-2.6964,-2.6499,0.0,0.0,0.0,0.0,0.0,0.0,0.0,0.0,0.0,0.0,0.0,0.0,0.0,0.0,0.0,0.0,0.0,0.0,0.0,0.0,-3.3114,-3.2636,-3.3186,-3.3477,-3.3411,-3.4116,-3.4476,-3.4505,-3.5183,-3.583,-3.6476,-3.5799,-3.5152,-3.4474,-3.3721,-3.3398,-3.3398,-3.3398,-3.3567,-3.3783,-3.3506,-3.3152,0.0,0.0,0.0,0.0,0.0,0.0,0.0,0.0,-3.0995,-3.1061,0.0,0.0,-3.1511,-3.1511,-3.1511,-3.1512,-3.1531,-3.1338,-3.1073,-3.1068,-3.0877,0.0,0.0,-3.1322,-3.1351,-3.1973,-3.1946,0.0,0.0,0.0,-3.3657,-3.4649,-3.6,-3.7006,-3.7221,-3.7595,-3.7634,-3.7092,-3.635,-3.5245,-3.3463,-3.2633,-3.1617,-3.0221,-3.0105,-3.0018,-2.9804,-2.9792,-2.9792,-2.9792,-2.9792,-2.9792,-2.9792,-2.9792,-2.9792,-2.9792,-2.9792,-2.9792,-2.9792,-2.9792,-2.9792,-2.9792,-2.9792,-2.9465,-2.8938,-2.9553,-2.9126,-2.8134,-2.8335,-2.7946,-2.7281,-2.7281,-2.6964,-2.6499,0.0,0.0,0.0,0.0,0.0,0.0,0.0,0.0,0.0,0.0,0.0,0.0,0.0,0.0,0.0,0.0,0.0,0.0,0.0,-3.2851,-3.3024,-3.322,-3.3377,-3.3625,-3.3976,-3.4855,-3.5146,-3.4828,-3.5506,-3.5922,-3.6153,-3.5691,-3.5152,-3.4474,-3.3721,-3.3521,-3.3721,-3.3506,-3.3537,-3.3721,-3.349,-3.3121,0.0,0.0,0.0,0.0,0.0,0.0,0.0,0.0,-3.0372,0.0,0.0,0.0,0.0,0.0,-3.1212,-3.0871,-3.0791,-3.0763,-3.0661,-3.0119,0.0,0.0,-3.1366,-3.1495,-3.1683,-3.235,-3.2481,-3.2611,-3.3014,0.0,0.0,0.0,-3.5676,-3.6433,-3.6433,-3.6552,-3.6413,-3.5845,-3.4945,-3.3796,-3.2306,-3.1513,-3.0766,-2.9855,-2.9792,-2.9792,-2.9792,-2.9792,-2.9792,-2.9792,-2.9792,-2.9792,-2.9792,-2.9792,-2.9792,-2.9792,-2.9792,-2.9792,-2.9792,-2.9792,-2.9792,-2.9779,-2.9603,-2.9289,-2.8913,-2.9164,-2.8699,-2.7821,-2.7657,-2.7356,-2.7052,-2.7052,-2.6813,-2.6499,0.0,0.0,0.0,0.0,0.0,0.0,0.0,0.0,0.0,0.0,0.0,0.0,0.0,0.0,0.0,0.0,0.0,0.0,-3.389,-3.3356,-3.3574,-3.492,-3.4332,-3.439,-3.5256,-3.5303,-3.5365,-3.5521,-3.6153,-3.6138,-3.5506,-3.5506,-3.5152,-3.4459,-3.3721,-3.3798,-3.4428,-3.369,-3.3798,-3.4428,-3.3675,-3.3383,-3.3321,0.0,0.0,0.0,0.0,0.0,0.0,0.0,-2.9006,0.0,0.0,0.0,0.0,-3.1107,-3.0597,-2.9675,-3.0021,-3.0085,-2.9867,-2.8954,0.0,0.0,-3.1395,-3.1495,-3.1683,-3.2365,-3.2495,-3.2463,-3.2256,0.0,0.0,-3.3917,-3.496,-3.579,-3.579,-3.5073,-3.4574,-3.4574,-3.2651,-3.1384,-3.1565,-3.0238,-2.9509,-2.9792,-2.9792,-2.9792,-2.9792,-2.9792,-2.9792,-2.9792,-2.9792,-2.9792,-2.9792,-2.9792,-2.9792,-2.9792,-2.9792,-2.9792,-2.9792,-2.9792,-2.9792,-2.9767,-2.9176,-2.8888,-2.8838,-2.8323,-2.777,-2.7231,-2.6713,-2.6499,-2.6499,-2.6499,-2.6499,-2.6499,0.0,0.0,0.0,0.0,0.0,0.0,0.0,0.0,0.0,0.0,0.0,0.0,0.0,0.0,0.0,0.0,0.0,0.0,0.0,-3.2835,-3.3207,-3.3853,-3.4036,-3.4103,-3.3976,-3.4472,-3.5237,-3.6184,-3.5953,-3.5676,-3.5506,-3.5506,-3.489,-3.3737,-3.4029,-3.3765,-3.2967,-3.2275,-3.2382,-3.2952,-3.2259,-3.2275,-3.2675,0.0,0.0,0.0,0.0,0.0,0.0,0.0,0.0,0.0,0.0,0.0,0.0,-3.0178,-3.0193,-3.0212,-3.0126,-2.9761,0.0,-3.0453,0.0,0.0,0.0,-3.2542,0.0,0.0,-3.3401,-3.297,-3.2904,0.0,0.0,-3.2993,-3.3952,-3.4492,-3.3887,-3.4036,-3.3711,-3.2488,-3.1549,-3.0784,-3.0266,-2.9584,-2.9209,-2.93,-2.93,-2.9365,-2.9509,-2.9509,-2.9611,-2.9792,-2.9792,-2.9792,-2.9792,-2.9792,-2.9792,-2.9792,-2.9792,-2.9792,-2.9792,-2.9792,-2.9792,-2.9767,-2.9176,-2.8675,-2.8285,-2.7331,-2.7341,-2.7808,-2.7256,-2.7065,-2.7065,-2.7065,-2.6826,-2.6499,0.0,0.0,0.0,0.0,0.0,0.0,0.0,0.0,0.0,0.0,0.0,0.0,0.0,0.0,0.0,0.0,0.0,0.0,0.0,0.0,-3.2982,-3.3809,-3.3861,-3.3998,-3.4214,-3.4674,-3.5306,-3.6091,-3.5722,-3.5199,-3.4675,-3.526,-3.4921,-3.386,-3.4597,-3.4289,-3.3211,-3.2475,-3.2259,-3.2351,-3.1951,-3.2028,-3.2398,0.0,0.0,0.0,0.0,0.0,0.0,0.0,0.0,0.0,0.0,0.0,0.0,-2.9562,-2.928,-2.9017,-2.9269,-2.9039,0.0,-3.0104,-3.019,-3.0539,-3.2614,0.0,0.0,0.0,0.0,-3.3446,-3.3364,-3.3161,0.0,-3.2465,-3.2937,-3.3083,-3.227,-3.2253,-3.1902,-3.0842,-3.0276,-2.9772,-2.9318,-2.9105,-2.9013,-2.9091,-2.9091,-2.917,-2.9275,-2.9341,-2.947,-2.965,-2.974,-2.9792,-2.9792,-2.9792,-2.9792,-2.9792,-2.9792,-2.9792,-2.9792,-2.9792,-2.9792,-2.9767,-2.9176,-2.836,-2.7419,-2.7002,-2.709,-2.7419,-2.7115,-2.6989,-2.6989,-2.6989,-2.6788,-2.6499,0.0,0.0,0.0,0.0,0.0,0.0,0.0,0.0,0.0,0.0,-3.5234,0.0,0.0,0.0,0.0,0.0,0.0,0.0,0.0,0.0,-3.2958,-3.4442,-3.3906,-3.4183,-3.5491,-3.5444,-3.5383,-3.5321,-3.5383,-3.4706,-3.3429,-3.4768,-3.5059,-3.4428,-3.5121,-3.5013,-3.4274,-3.346,-3.2767,-3.2213,-3.2213,-3.2213,-3.2213,-3.2275,0.0,0.0,0.0,0.0,0.0,0.0,0.0,0.0,-2.9402,-2.8678,-2.7914,-2.9082,-2.8184,-2.6986,-2.792,0.0,0.0,-2.8736,-2.9886,0.0,-3.2234,-3.3301,-3.4094,-3.4094,0.0,-3.3827,-3.364,-3.3605,-3.3262,-3.2268,-3.211,-3.1783,-3.0932,-3.0152,-2.9665,-2.9588,-2.8961,-2.8578,-2.8764,-2.8764,-2.8843,-2.9013,-2.9052,-2.9052,-2.9052,-2.9263,-2.938,-2.9419,-2.965,-2.9792,-2.9792,-2.9792,-2.9792,-2.9792,-2.9792,-2.9767,-2.9716,-2.9767,-2.9767,-2.9679,-2.9101,-2.7996,-2.6688,-2.719,-2.7102,-2.6637,-2.6587,-2.6562,-2.6562,-2.6512,-2.6499,-2.6499,0.0,0.0,0.0,0.0,0.0,0.0,0.0,0.0,0.0,0.0,0.0,0.0,0.0,0.0,0.0,0.0,0.0,0.0,0.0,0.0,-3.3555,-3.4459,-3.4859,-3.5198,-3.5506,-3.4998,-3.4414,-3.3844,-3.4414,-3.4245,-3.3413,-3.4291,-3.4351,-3.366,-3.4397,-3.4027,-3.2752,-3.1567,-3.0955,-3.0817,-3.0817,-3.0817,-3.0905,-3.1413,-3.0859,0.0,0.0,0.0,0.0,0.0,0.0,0.0,-2.8835,-2.8607,-2.8323,-2.8109,-2.8109,-2.8166,-2.8119,-2.8113,0.0,0.0,-3.1542,-3.2756,-3.2364,-3.3135,-3.3985,-3.4094,-3.3868,-3.364,-3.3605,-3.3466,-3.3086,-3.2232,-3.211,-3.1599,-3.0152,-2.9819,-2.9484,-2.8843,-2.8618,-2.851,-2.8538,-2.8538,-2.8578,-2.863,-2.863,-2.8697,-2.8843,-2.9052,-2.9236,-2.9419,-2.965,-2.9792,-2.9792,-2.9792,-2.9792,-2.9792,-2.9792,-2.9553,-2.9126,-2.9578,-2.9541,-2.9051,-2.8524,-2.8084,-2.7758,-2.7883,-2.7858,-2.7708,-2.7268,-2.714,-2.709,-2.665,-2.6499,-2.6499,0.0,0.0,0.0,0.0,0.0,0.0,0.0,0.0,0.0,0.0,0.0,0.0,0.0,0.0,0.0,0.0,0.0,0.0,0.0,0.0,0.0,-3.5375,-3.578,-3.5845,-3.5521,-3.5167,-3.4474,-3.3398,-3.3783,-3.3767,-3.3413,-3.4166,-3.4305,-3.3937,-3.4335,-3.3719,-3.2321,-3.132,-3.0678,-3.0402,-3.0402,-3.0402,-3.0432,-3.0797,-3.0505,-2.9879,-2.9879,0.0,0.0,0.0,0.0,0.0,0.0,0.0,-2.8064,-2.7705,-2.763,-2.7658,-2.7672,0.0,0.0,-3.0526,0.0,-3.3296,-3.2529,-3.315,-3.3831,-3.357,-3.3482,-3.3347,-3.2952,-3.281,-3.2475,-3.1673,-3.118,-3.0519,-2.9289,-2.9145,-2.8961,-2.855,-2.851,-2.851,-2.851,-2.851,-2.851,-2.851,-2.851,-2.855,-2.8657,-2.8855,-2.904,-2.9236,-2.9482,-2.9525,-2.9377,-2.9377,-2.9252,-2.8988,-2.8988,-2.8963,-2.89,-2.9239,-2.9214,-2.8875,-2.8587,-2.8348,-2.8109,-2.8109,-2.8109,-2.8084,-2.7795,-2.7519,-2.7291,-2.7002,-2.6725,-2.6499,0.0,0.0,0.0,0.0,0.0,0.0,0.0,0.0,0.0,0.0,0.0,0.0,0.0,0.0,0.0,0.0,0.0,0.0,0.0,0.0,0.0,0.0,-3.6474,-3.6184,-3.5521,-3.5398,-3.4675,-3.3398,-3.329,-3.3323,-3.3569,-3.406,-3.4382,-3.4489,-3.4258,-3.3442,-3.2167,-3.1382,-3.0674,-3.0063,-3.0171,-3.0156,-3.0063,-3.0186,-3.0156,-3.0048,-3.0048,0.0,-3.0191,-2.9905,0.0,0.0,0.0,0.0,-2.76,-2.76,-2.721,-2.6837,-2.7136,0.0,-2.8712,-3.0801,-3.2338,0.0,-3.2742,-3.3288,-3.3691,-3.2965,-3.3085,-3.3051,-3.2232,-3.211,-3.1783,-3.0857,-3.0152,-2.9406,-2.8618,-2.851,-2.851,-2.851,-2.851,-2.851,-2.851,-2.851,-2.851,-2.851,-2.851,-2.8474,-2.8378,-2.8552,-2.8699,-2.8782,-2.8991,-2.8998,-2.8712,-2.875,-2.8561,-2.8109,-2.8109,-2.8398,-2.8888,-2.8888,-2.895,-2.9038,-2.8938,-2.8725,-2.8398,-2.8398,-2.8398,-2.8386,-2.8285,-2.7971,-2.7557,-2.7457,-2.7165,-2.6763,0.0,0.0,0.0,0.0,0.0,0.0,0.0,0.0,0.0,0.0,0.0,0.0,0.0,0.0,0.0,0.0,0.0,0.0,0.0,0.0,0.0,0.0,-3.6507,-3.6184,-3.5521,-3.4936,-3.4243,-3.3398,-3.2813,-3.308,-3.4085,-3.3725,-3.3875,-3.4459,0.0,-3.2244,-3.1443,-3.0197,-2.9289,-2.8719,-2.9294,-2.9196,-2.8735,-2.9294,-2.9156,-2.8673,0.0,0.0,0.0,-2.922,-2.9082,0.0,0.0,0.0,-2.76,-2.76,-2.754,-2.743,0.0,0.0,-2.8955,0.0,-3.1671,-3.2709,0.0,0.0,-3.3632,0.0,-3.2897,-3.3051,-3.2232,-3.211,-3.1599,-3.0114,-2.9781,-2.9406,-2.8618,-2.851,-2.851,-2.851,-2.851,-2.851,-2.851,-2.851,-2.851,-2.851,-2.851,-2.8318,-2.7849,-2.8007,-2.7892,-2.7467,-2.7817,-2.7977,-2.794,-2.8136,-2.8185,-2.8109,-2.8109,-2.8398,-2.8888,-2.8888,-2.9202,-2.9641,-2.9151,-2.9176,-2.9566,-2.9566,-2.9566,-2.9515,-2.9013,-2.8737,-2.8612,-2.8172,-2.7946,-2.7821,0.0,0.0,0.0,0.0,0.0,0.0,0.0,0.0,0.0,0.0,0.0,0.0,0.0,0.0,0.0,0.0,0.0,0.0,0.0,0.0,0.0,0.0,0.0,-3.5999,-3.4967,-3.4659,-3.3966,-3.2844,-3.2468,-3.2936,-3.4178,-3.3492,-3.3596,0.0,0.0,0.0,0.0,-2.9412,-2.8673,-2.8427,-2.8735,-2.8442,-2.7919,0.0,0.0,0.0,0.0,0.0,0.0,-2.852,-2.8445,-2.8334,-2.7665,0.0,0.0,0.0,-2.73,0.0,-2.7687,-2.7964,-2.8633,0.0,-3.1279,-3.2089,-3.2691,0.0,-3.3636,-3.229,-3.2441,-3.2533,-3.1599,-3.1415,-3.1044,-2.9896,-2.9328,-2.8882,-2.855,-2.851,-2.851,-2.851,-2.851,-2.851,-2.851,-2.851,-2.851,-2.851,-2.851,-2.8282,-2.7714,-2.7794,-2.7656,-2.7211,-2.7459,-2.7544,-2.7368,-2.7452,-2.7338,-2.7028,-2.7458,-2.7934,-2.8473,-2.875,-2.9252,-2.9779,-2.9528,-2.9553,-2.9792,-2.9792,-2.9792,-2.9767,-2.9515,-2.9214,-2.8863,-2.8624,-2.8373,-2.8072,0.0,0.0,0.0,0.0,0.0,0.0,0.0,0.0,0.0,0.0,0.0,0.0,0.0,0.0,0.0,0.0,0.0,0.0,0.0,0.0,0.0,0.0,0.0,0.0,-3.4536,-3.4505,-3.3735,-3.2136,0.0,-3.2682,-3.363,-3.3164,-3.3241,0.0,-3.2656,-3.1579,0.0,0.0,-2.8633,-2.8627,-2.8288,0.0,0.0,0.0,0.0,0.0,0.0,0.0,0.0,0.0,0.0,0.0,0.0,0.0,0.0,0.0,0.0,0.0,0.0,0.0,-2.8278,-2.9755,-3.0684,-3.1453,0.0,0.0,-3.3268,0.0,-3.1969,-3.1807,-3.0673,-3.0528,-3.0291,-2.9323,-2.8687,-2.8318,-2.8318,-2.8318,-2.8366,-2.8498,-2.851,-2.8462,-2.8318,-2.8318,-2.8258,-2.8114,-2.8114,-2.7873,-2.7332,-2.727,-2.7131,-2.6736,-2.6907,-2.6906,-2.6701,-2.6808,-2.6656,-2.6213,-2.7097,-2.7708,-2.8134,-2.8825,-2.939,-2.9779,-2.9641,-2.9578,-2.9578,-2.9578,-2.9578,-2.9591,-2.9729,-2.9528,-2.9151,-2.9151,-2.8888,-2.8511,0.0,0.0,0.0,0.0,0.0,0.0,0.0,0.0,0.0,0.0,0.0,0.0,0.0,0.0,0.0,-3.5156,0.0,0.0,0.0,0.0,0.0,0.0,0.0,0.0,0.0,-3.4505,0.0,0.0,0.0,0.0,-3.2131,-3.2521,-3.2734,-3.2749,-3.2243,-3.1698,-3.1087,0.0,0.0,0.0,0.0,0.0,0.0,0.0,0.0,0.0,0.0,0.0,0.0,0.0,0.0,0.0,0.0,0.0,0.0,0.0,0.0,0.0,0.0,-2.7563,0.0,-2.865,0.0,0.0,0.0,0.0,0.0,0.0,-3.1709,-3.1007,-2.9571,-2.9568,-2.9348,-2.8031,-2.7765,-2.7726,-2.7726,-2.7726,-2.7906,-2.845,-2.851,-2.8318,-2.7774,-2.7726,-2.7522,-2.7018,-2.697,-2.6729,-2.6214,-2.6178,-2.5937,-2.5408,-2.5573,-2.5784,-2.5947,-2.633,-2.6421,-2.6226,-2.7449,-2.8084,-2.8147,-2.9252,-2.9767,-2.9767,-2.9214,-2.8938,-2.8938,-2.8938,-2.8938,-2.8988,-2.9578,-2.9779,-2.9741,-2.9741,-2.9729,-2.9628,0.0,0.0,0.0,0.0,0.0,0.0,0.0,0.0,0.0,0.0,0.0,0.0,0.0,-3.5983,-3.5448,-3.5146,-3.4118,0.0,0.0,0.0,0.0,0.0,0.0,0.0,0.0,0.0,0.0,0.0,0.0,-3.1695,-3.1996,-3.2038,-3.2239,-3.2571,-3.204,-3.1276,-3.0377,-2.9463,0.0,0.0,0.0,0.0,0.0,0.0,0.0,0.0,0.0,0.0,0.0,0.0,0.0,0.0,0.0,0.0,0.0,0.0,0.0,0.0,0.0,0.0,0.0,-2.8586,-2.9391,-3.0132,0.0,-3.1681,-3.2087,-3.0997,-3.061,-3.0107,-2.8822,-2.8899,-2.8736,-2.741,-2.7186,-2.7186,-2.7186,-2.7186,-2.7246,-2.7438,-2.7462,-2.739,-2.7198,-2.7186,-2.7102,-2.691,-2.6898,-2.6657,-2.6129,-2.6093,-2.5853,-2.5324,-2.55,-2.5688,-2.591,-2.6166,-2.627,-2.6226,-2.7474,-2.7921,-2.7632,-2.9114,-2.9591,-2.9227,-2.8976,-2.9139,-2.9453,-2.9051,-2.9151,-2.9503,-2.9716,-2.9792,-2.9792,-2.9792,-2.9792,-2.9767,0.0,0.0,0.0,0.0,0.0,0.0,0.0,0.0,0.0,0.0,0.0,0.0,0.0,0.0,-3.4771,-3.4303,-3.3634,-3.301,-3.2441,-3.2813,0.0,0.0,0.0,0.0,0.0,0.0,0.0,0.0,0.0,0.0,0.0,-3.1091,-3.1191,-3.1509,-3.1146,-3.0714,0.0,0.0,0.0,-2.8763,0.0,0.0,-2.7592,0.0,0.0,0.0,0.0,0.0,0.0,0.0,0.0,0.0,0.0,0.0,0.0,0.0,0.0,0.0,-2.6386,0.0,0.0,0.0,0.0,-2.9479,-2.9871,0.0,-3.1219,-3.0079,-2.9778,-2.9375,-2.8338,-2.8265,-2.8014,-2.6806,-2.6609,-2.6609,-2.6609,-2.6609,-2.6681,-2.6873,-2.6898,-2.6825,-2.6633,-2.6609,-2.6549,-2.6369,-2.6357,0.0,-2.5853,-2.5829,-2.5673,-2.5312,-2.55,-2.5641,-2.5688,-2.6015,-2.6166,-2.6097,-2.7099,-2.7457,-2.7318,-2.8637,-2.9114,-2.8888,-2.87,-2.8976,-2.9478,-2.9089,-2.9151,-2.9528,-2.9716,-2.9792,-2.9792,-2.9792,-2.9792,-2.9792,0.0,0.0,0.0,0.0,0.0,0.0,0.0,0.0,0.0,0.0,0.0,0.0,0.0,0.0,0.0,-3.2552,-3.3044,-3.3136,-3.2444,-3.2413,0.0,0.0,0.0,0.0,0.0,0.0,0.0,0.0,0.0,0.0,0.0,0.0,-2.9592,-2.9606,-2.9592,-3.0003,-3.0636,0.0,-2.9225,-2.9765,0.0,-2.7419,-2.7843,0.0,0.0,0.0,-2.7841,-2.8109,0.0,-2.8662,0.0,0.0,0.0,0.0,0.0,0.0,0.0,0.0,0.0,0.0,0.0,0.0,0.0,0.0,-2.8708,0.0,-2.952,-2.9395,-2.9181,-2.8826,-2.8077,-2.763,-2.7047,-2.6227,-2.6057,-2.6069,-2.6069,-2.6069,-2.6274,-2.6777,-2.6849,-2.6633,-2.6129,-2.6069,-2.5865,-2.5348,-2.5312,-2.5312,-2.5312,-2.5312,-2.5312,-2.5312,-2.5488,-2.5488,-2.5312,-2.591,-2.6097,-2.591,-2.6339,-2.6788,-2.7316,-2.7846,-2.8361,-2.8838,-2.8335,-2.8411,-2.8863,-2.8863,-2.8863,-2.8925,-2.9541,-2.9767,-2.9767,-2.9754,-2.9767,-2.9792,0.0,0.0,0.0,0.0,0.0,0.0,0.0,0.0,0.0,0.0,0.0,0.0,0.0,0.0,-3.4135,-3.3198,-3.3767,-3.3675,-3.2475,-3.2844,-3.3213,-3.3398,-3.3398,-3.3875,-3.4891,0.0,0.0,0.0,0.0,0.0,0.0,0.0,0.0,0.0,-2.9086,-2.8992,-2.9195,-2.882,0.0,-2.8354,-2.7795,-2.7739,0.0,0.0,0.0,0.0,0.0,-2.8667,-2.8657,0.0,-2.8493,-2.782,0.0,0.0,0.0,0.0,0.0,0.0,-2.5186,0.0,0.0,0.0,0.0,0.0,0.0,0.0,0.0,-2.8282,-2.8078,-2.7776,-2.7046,-2.6387,-2.5813,-2.5421,-2.5464,-2.5528,-2.5528,-2.5528,-2.5588,-2.5745,-2.5757,-2.5697,-2.554,-2.5528,-2.5468,0.0,-2.5312,-2.5312,-2.5312,-2.5312,-2.5312,-2.5312,-2.5347,-2.55,-2.5723,-2.591,-2.6084,-2.6327,-2.6832,-2.6964,-2.6751,-2.767,-2.8185,-2.8323,-2.8172,-2.8197,-2.8335,-2.8335,-2.8335,-2.8386,-2.895,-2.9126,-2.9076,-2.8712,-2.9089,-2.9729,0.0,0.0,0.0,0.0,0.0,0.0,0.0,0.0,0.0,0.0,0.0,0.0,0.0,0.0,0.0,-3.3906,-3.452,-3.4335,-3.2906,-3.3183,-3.3275,-3.2998,-3.2982,-3.349,-3.4583,0.0,0.0,0.0,0.0,0.0,0.0,0.0,0.0,0.0,0.0,0.0,0.0,0.0,0.0,0.0,-2.7821,0.0,0.0,-2.7936,-2.788,0.0,0.0,0.0,-2.8815,-2.9064,-2.852,0.0,0.0,0.0,0.0,0.0,0.0,0.0,0.0,0.0,0.0,0.0,0.0,0.0,-2.7496,-2.7675,-2.7808,0.0,-2.7292,-2.7145,-2.6663,-2.6179,-2.5643,-2.4959,-2.4832,-2.4907,-2.5055,-2.5022,-2.4975,-2.4975,-2.4975,-2.5059,-2.5288,-2.5312,-2.5312,-2.5312,-2.5312,-2.5312,-2.5312,-2.5312,-2.5312,-2.5312,-2.5312,-2.5418,-2.5653,-2.584,-2.6015,-2.6258,-2.6471,-2.6575,-2.6512,-2.6879,-2.7318,-2.7733,-2.7256,-2.7193,-2.7419,-2.7419,-2.7557,-2.7821,-2.8373,-2.8586,-2.8574,-2.8486,-2.8863,-2.9415,0.0,0.0,0.0,0.0,0.0,0.0,0.0,0.0,0.0,0.0,0.0,0.0,0.0,0.0,0.0,0.0,0.0,-3.4891,-3.349,-3.3398,-3.3106,-3.2428,-3.2398,-3.2705,-3.3398,-3.2151,0.0,0.0,0.0,0.0,0.0,0.0,0.0,0.0,0.0,0.0,0.0,0.0,0.0,-2.8547,-2.7959,-2.8124,0.0,0.0,-2.79,-2.8157,-2.9289,-2.9402,-2.9045,-2.9454,-2.8378,0.0,0.0,0.0,0.0,0.0,-2.5615,0.0,0.0,0.0,0.0,0.0,0.0,0.0,-2.7173,-2.6925,-2.6806,-2.6806,-2.6806,-2.675,-2.663,-2.6478,-2.5946,-2.4829,-2.436,-2.4296,-2.4679,-2.457,-2.4468,0.0,0.0,0.0,-2.5095,-2.5192,-2.5204,-2.5143,-2.5192,-2.5252,-2.5312,-2.5312,-2.5312,-2.5312,-2.5312,-2.5312,-2.5347,-2.5723,-2.591,-2.5945,-2.5706,-2.5933,-2.6474,-2.5862,-2.6176,-2.7165,-2.6063,-2.585,-2.6311,-2.6311,-2.66,-2.708,-2.7745,-2.7934,-2.7896,-2.8411,-2.87,-2.8875,0.0,0.0,0.0,0.0,0.0,0.0,0.0,0.0,0.0,0.0,0.0,0.0,0.0,0.0,0.0,0.0,0.0,0.0,0.0,-3.3398,-3.3106,-3.2428,-3.2398,-3.2705,-3.3398,-3.2517,-3.2418,0.0,0.0,0.0,0.0,0.0,0.0,0.0,0.0,0.0,0.0,0.0,0.0,-2.8592,-2.8457,0.0,-2.9397,-2.9262,-2.9217,-2.9349,-3.0086,-3.0265,-3.0101,-2.9741,-2.8966,-2.7993,0.0,0.0,0.0,-2.5615,0.0,0.0,0.0,0.0,0.0,0.0,0.0,0.0,-2.7211,-2.7067,-2.6951,0.0,-2.6873,-2.6666,-2.6147,-2.563,-2.5351,-2.5528,-2.4558,-2.3904,0.0,0.0,0.0,0.0,0.0,0.0,-2.4095,-2.4434,-2.4506,-2.4131,-2.4446,-2.482,-2.5288,-2.5312,-2.5312,-2.5312,-2.5312,-2.5382,-2.5535,-2.5793,-2.598,-2.6131,-2.5774,-2.5933,-2.6474,-2.5862,-2.5975,-2.6612,-2.59,-2.5423,-2.5146,-2.5146,-2.5209,-2.5448,-2.6879,-2.6892,-2.6151,-2.6763,-2.7507,-2.8285,0.0,0.0,0.0,0.0,0.0,0.0,0.0,0.0,0.0,0.0,0.0,0.0,0.0,0.0,0.0,0.0,0.0,0.0,0.0,0.0,-3.3475,-3.2444,-3.2398,-3.2678,-3.3284,-3.2583,-3.2471,-3.2983,0.0,0.0,0.0,0.0,0.0,0.0,0.0,0.0,0.0,0.0,-2.8004,-2.8607,-2.8607,0.0,-2.9606,-2.9606,-2.9606,-2.9696,-3.0283,-3.0507,-3.0417,-2.9789,-2.9397,0.0,0.0,-2.6881,-2.6587,0.0,-2.6363,-2.6168,0.0,0.0,0.0,-2.7096,0.0,0.0,0.0,-2.6695,-2.6583,-2.6506,-2.6455,-2.6309,0.0,0.0,-2.5003,-2.4954,0.0,0.0,0.0,0.0,0.0,0.0,0.0,0.0,-2.3869,-2.4056,-2.4037,-2.383,-2.423,-2.4604,-2.4903,-2.5168,-2.5312,-2.5312,-2.5312,-2.5347,-2.5453,-2.5653,-2.5828,-2.605,-2.5937,-2.612,-2.6461,-2.5586,-2.5511,-2.5996,-2.4858,-2.4381,-2.4406,-2.4406,-2.4211,-2.4086,-2.5511,-2.5711,-2.531,-2.6185,-2.7014,-2.777,0.0,0.0,0.0,0.0,0.0,0.0,0.0,0.0,0.0,0.0,0.0,0.0,0.0,0.0,0.0,0.0,0.0,0.0,0.0,0.0,-3.3739,-3.2616,-3.2542,-3.2686,-3.3001,-3.2425,-3.2283,-3.2627,0.0,0.0,0.0,0.0,0.0,0.0,0.0,0.0,0.0,0.0,0.0,-2.8607,0.0,-2.9101,-2.9606,-2.9606,-2.9681,-2.9849,-3.0477,-3.0612,-3.0417,-2.9789,-2.9606,-2.9397,-2.8184,-2.7615,0.0,0.0,0.0,0.0,0.0,0.0,0.0,0.0,0.0,-2.7303,0.0,0.0,0.0,0.0,0.0,0.0,0.0,0.0,0.0,0.0,0.0,0.0,0.0,0.0,0.0,0.0,0.0,0.0,-2.3806,-2.3703,-2.3697,-2.3794,-2.423,-2.4484,-2.4484,-2.5023,-2.5312,-2.5312,-2.5312,-2.5312,-2.5312,-2.55,-2.5688,-2.591,-2.5985,-2.613,-2.6298,-2.5272,-2.4996,-2.5222,-2.3847,-2.3471,-2.3841,-2.3841,-2.3521,-2.3208,-2.4349,-2.4725,-2.4795,-2.5921,-2.6751,-2.7419,-3.6068,-3.6068,0.0,0.0,0.0,0.0,0.0,0.0,0.0,0.0,0.0,0.0,0.0,0.0,0.0,0.0,0.0,0.0,-3.5095,0.0,0.0,-3.3121,-3.3006,-3.2734,-3.2313,-3.2014,-3.1887,-3.1905,0.0,0.0,0.0,0.0,0.0,0.0,-2.76,0.0,0.0,0.0,-2.8532,0.0,-2.9235,-2.9547,0.0,-2.9606,-2.9924,-3.0492,-3.1137,-3.0987,-3.0417,0.0,-2.9606,-2.9472,0.0,-2.7664,-2.7076,-2.8858,0.0,0.0,0.0,0.0,0.0,0.0,-2.76,0.0,0.0,0.0,-2.7257,-2.7232,0.0,0.0,0.0,0.0,0.0,0.0,0.0,0.0,0.0,0.0,0.0,0.0,0.0,0.0,0.0,-2.316,-2.33,-2.377,-2.423,-2.4484,-2.4484,-2.5023,-2.5312,-2.5312,-2.5312,-2.5312,-2.5312,-2.55,-2.5688,-2.5898,-2.5543,-2.551,-2.5674,-2.5096,-2.4582,-2.4167,-2.3979,-2.364,-2.3195,-2.3195,-2.3158,-2.3208,-2.4349,-2.4519,-2.4217,-2.5297,-2.6364,-2.7369,-3.5973,-3.6005,0.0,0.0,0.0,0.0,0.0,0.0,0.0,0.0,0.0,0.0,0.0,0.0,0.0,0.0,0.0,-3.5217,0.0,0.0,0.0,-3.3618,-3.321,-3.2846,-3.2485,-3.2022,-3.1727,-3.1626,-3.0879,0.0,0.0,0.0,0.0,0.0,-2.76,0.0,-2.8188,0.0,-2.8816,0.0,0.0,0.0,0.0,-2.9606,-2.9968,-3.0597,-3.1256,-3.1062,-3.0462,0.0,-3.0118,0.0,0.0,0.0,0.0,0.0,0.0,0.0,0.0,0.0,0.0,0.0,0.0,0.0,-2.751,0.0,-2.7488,0.0,0.0,0.0,0.0,0.0,0.0,0.0,-2.5315,0.0,0.0,0.0,0.0,0.0,0.0,0.0,0.0,0.0,0.0,-2.2974,-2.3682,-2.4085,-2.4085,-2.4578,-2.4987,-2.53,-2.5312,-2.5312,-2.5312,-2.55,-2.5688,-2.591,-2.5862,-2.5943,-2.6097,-2.5209,-2.4662,-2.4443,-2.3747,-2.3333,-2.3108,-2.3108,-2.3108,-2.3158,-2.3634,-2.3672,-2.3597,-2.4745,-2.5636,-2.6427,-3.5814,0.0,0.0,0.0,0.0,0.0,0.0,0.0,0.0,0.0,0.0,0.0,-3.4772,-3.518,0.0,0.0,-3.591,-3.5622,0.0,0.0,-3.4531,0.0,0.0,0.0,-3.2477,-3.2133,-3.185,-3.1511,-3.1002,0.0,0.0,0.0,0.0,0.0,0.0,-2.7869,-2.8338,0.0,-2.9041,-2.934,-2.9726,-2.9756,-2.9636,-2.9786,-3.0118,-3.0597,-3.1256,-3.1062,-3.0507,-3.0507,-3.0387,0.0,-2.916,0.0,0.0,0.0,0.0,0.0,-2.7779,0.0,0.0,0.0,0.0,0.0,0.0,0.0,0.0,0.0,0.0,0.0,0.0,0.0,0.0,0.0,0.0,0.0,0.0,0.0,0.0,0.0,0.0,0.0,0.0,0.0,-2.315,-2.2438,-2.3389,-2.395,-2.3806,-2.4254,-2.4771,-2.5288,-2.5312,-2.5347,-2.5382,-2.5465,-2.5676,-2.598,-2.6062,-2.6183,-2.6223,-2.5247,-2.4713,-2.4544,-2.3534,-2.3108,-2.3108,-2.3108,-2.3108,-2.3108,-2.3108,-2.3108,-2.3221,-2.4199,-2.5021,-2.5737,-3.5504,-3.5504,0.0,0.0,0.0,0.0,0.0,0.0,0.0,0.0,0.0,0.0,0.0,0.0,0.0,0.0,0.0,-3.5446,-3.4738,0.0,-3.412,0.0,0.0,-3.3621,0.0,-3.2271,-3.2168,-3.1511,0.0,0.0,0.0,0.0,0.0,0.0,0.0,-2.76,-2.772,-2.9022,-2.9217,-2.8742,-2.9983,-3.0118,-2.9666,0.0,-3.0492,-3.0597,-3.1256,0.0,0.0,-3.0507,-3.0103,0.0,0.0,0.0,0.0,0.0,0.0,0.0,0.0,0.0,0.0,-2.7585,0.0,0.0,0.0,0.0,-2.76,0.0,0.0,0.0,0.0,0.0,0.0,0.0,0.0,0.0,0.0,0.0,0.0,0.0,0.0,0.0,0.0,-2.3573,-2.3551,-2.2462,-2.3682,-2.4278,-2.383,-2.4254,-2.4771,-2.5288,-2.5312,-2.5382,-2.5571,-2.5382,-2.5618,-2.6179,-2.598,-2.5822,-2.5598,-2.5059,-2.4531,-2.3991,-2.3358,-2.3108,-2.3108,-2.3108,-2.3108,-2.3108,-2.3108,-2.3108,-2.3183,-2.3803,-2.4682,-2.5686,0.0,0.0,0.0,0.0,0.0,0.0,0.0,-3.4848,0.0,0.0,-3.4713,0.0,0.0,-3.6207,-3.642,0.0,0.0,-3.5962,-3.5287,-3.5224,0.0,0.0,0.0,-3.3994,0.0,0.0,0.0,0.0,0.0,0.0,0.0,0.0,0.0,0.0,0.0,-2.7854,0.0,0.0,0.0,0.0,0.0,-3.0372,-3.0223,0.0,-3.0507,-3.0597,-3.1256,-3.1062,0.0,-3.1002,-3.0477,-2.9681,-3.0058,-2.9594,-2.8933,-2.8921,-2.8457,0.0,0.0,0.0,-2.6482,-2.7375,0.0,0.0,0.0,0.0,0.0,0.0,0.0,0.0,0.0,0.0,0.0,0.0,0.0,0.0,0.0,0.0,0.0,0.0,0.0,0.0,0.0,0.0,0.0,-2.2751,-2.3032,-2.3296,-2.3381,-2.389,-2.4343,-2.4771,-2.5119,-2.5382,-2.5606,-2.5535,-2.554,-2.5608,-2.554,-2.553,-2.5561,-2.4682,-2.4381,-2.4494,-2.3509,-2.3108,-2.3108,-2.3108,-2.3108,-2.3108,-2.3108,-2.3108,-2.317,-2.3791,-2.4456,-2.5322,-3.5549,0.0,0.0,0.0,0.0,0.0,0.0,0.0,0.0,0.0,-3.5235,0.0,-3.6716,0.0,-3.6985,0.0,-3.6686,-3.6327,-3.522,-3.537,0.0,-3.4158,-3.4384,0.0,0.0,0.0,0.0,0.0,0.0,-3.1511,0.0,0.0,0.0,0.0,0.0,-2.7839,-2.8248,-2.8502,-2.9205,0.0,0.0,-3.0866,0.0,0.0,-3.0717,-3.0597,0.0,-3.1212,-3.0883,-3.1077,-3.0462,-2.9636,-2.9774,-2.9385,-2.8813,-2.8353,-2.8233,-2.8143,-2.772,-2.6986,0.0,-2.739,-2.6956,0.0,-2.7405,0.0,0.0,0.0,0.0,0.0,0.0,0.0,0.0,0.0,0.0,0.0,0.0,0.0,0.0,0.0,0.0,0.0,0.0,0.0,-2.2928,-2.2332,-2.2677,-2.2947,0.0,0.0,-2.4256,-2.4609,-2.5222,-2.5535,-2.5606,-2.5606,-2.5477,-2.5222,-2.5222,-2.5323,-2.5494,-2.4462,-2.4305,-2.4725,-2.3597,-2.3108,-2.3108,-2.3108,-2.3108,-2.3108,-2.3108,-2.3108,-2.3145,-2.3521,-2.401,-2.4808,-3.5624,0.0,0.0,0.0,-3.4966,0.0,0.0,0.0,-3.5549,0.0,-3.6671,-3.7464,-3.7509,-3.8063,-3.7928,-3.6641,-3.7075,-3.6582,-3.4683,-3.5145,0.0,0.0,-3.4173,-3.3918,-3.2647,0.0,0.0,0.0,0.0,0.0,0.0,0.0,0.0,0.0,-2.8229,0.0,-2.7645,-2.8308,-2.8966,-2.9666,-3.0898,-3.1406,-3.1406,-3.1451,-3.1047,-3.0569,-3.1256,-3.1511,-3.1406,-3.0731,-3.0088,-2.9502,-2.8846,-2.8184,-2.76,-2.7645,-2.763,-2.76,-2.76,-2.757,-2.7555,-2.7585,0.0,0.0,0.0,0.0,-2.76,0.0,0.0,0.0,0.0,0.0,0.0,0.0,0.0,0.0,0.0,0.0,0.0,0.0,0.0,0.0,0.0,-2.3112,-2.2928,-2.1365,-2.2609,0.0,0.0,0.0,-2.4434,-2.4721,-2.544,-2.5769,-2.5606,-2.5571,-2.5408,-2.5099,-2.5074,-2.5151,-2.5303,-2.438,-2.4224,-2.4687,-2.3584,-2.3108,-2.3108,-2.3108,-2.3108,-2.3108,-2.3108,-2.3108,-2.3108,-2.3133,-2.3509,-2.4268,-3.5534,-3.5504,-3.5504,0.0,-3.5355,-3.507,0.0,0.0,0.0,0.0,-3.7345,-3.8332,-3.8841,-3.905,-3.8616,-3.7285,-3.7315,0.0,0.0,0.0,0.0,-3.4294,-3.4876,-3.4846,-3.3993,-3.4174,0.0,-3.3724,0.0,0.0,-3.2183,0.0,0.0,0.0,0.0,0.0,-2.7645,-2.8308,-2.8697,-2.8921,-2.9759,-3.0088,0.0,0.0,-3.0517,-3.0443,-3.1228,-3.1511,-3.1406,-3.0731,-3.0088,-2.9577,-2.9412,-2.8543,-2.7705,-2.8188,-2.8004,-2.76,-2.76,-2.724,-2.6986,-2.748,-2.7225,-2.7001,0.0,0.0,0.0,0.0,0.0,0.0,0.0,0.0,0.0,0.0,0.0,0.0,0.0,0.0,0.0,-2.3484,0.0,0.0,0.0,-2.2376,-2.2063,-2.2009,-2.238,0.0,0.0,0.0,0.0,-2.4065,-2.456,-2.5101,-2.5606,-2.5453,-2.5269,-2.5099,-2.4548,-2.4398,-2.4559,-2.3629,-2.3492,-2.3966,-2.3348,-2.3108,-2.3108,-2.3108,-2.3108,-2.3108,-2.3108,-2.3108,-2.3158,-2.3584,-2.413,-2.4795,-3.5564,0.0,0.0,-3.5504,0.0,0.0,-3.5026,-3.5579,0.0,-3.6447,-3.7599,0.0,-3.8931,-3.923,-3.8871,-3.7524,-3.7404,0.0,-3.5594,0.0,0.0,-3.4936,-3.5011,-3.4876,-3.4518,-3.4219,0.0,-3.4038,0.0,0.0,-3.2019,0.0,0.0,0.0,0.0,-2.8382,-2.8094,-2.8742,-2.919,-2.946,-2.9834,-3.0135,0.0,-3.0623,-3.0714,-3.0716,-3.1174,-3.1351,-3.1289,-3.0389,-2.9864,-2.9502,-2.8918,-2.8214,-2.7675,-2.8064,-2.7899,-2.76,-2.76,-2.733,-2.7136,-2.751,-2.7315,-2.7151,-2.751,-2.76,-2.76,0.0,0.0,0.0,0.0,0.0,0.0,0.0,0.0,0.0,0.0,0.0,0.0,0.0,-2.3262,0.0,0.0,-2.2133,-2.1619,-2.1933,-2.2368,0.0,0.0,0.0,0.0,-2.3893,-2.4687,-2.5232,-2.5453,-2.5453,-2.5113,-2.4509,-2.3928,-2.3705,-2.381,-2.3183,-2.3176,-2.366,-2.3255,-2.3108,-2.3108,-2.3108,-2.3108,-2.3108,-2.3108,-2.3108,-2.3145,-2.3471,-2.3785,-2.4249,-3.5609,0.0,0.0,0.0,0.0,0.0,0.0,-3.5833,0.0,-3.6656,0.0,-3.8497,-3.8407,-3.8931,-3.8751,-3.7404,0.0,-3.6776,-3.5594,-3.5504,-3.5504,-3.5504,-3.4846,-3.4548,-3.4638,-3.3873,-3.3529,0.0,0.0,0.0,0.0,0.0,0.0,0.0,0.0,0.0,0.0,-2.9367,-2.9834,-3.024,-3.0404,-3.0753,-3.1145,-3.1219,-3.1146,-3.1043,-3.1043,-3.1161,-3.1099,-2.9931,-2.9525,-2.9313,-2.7993,-2.7575,-2.7575,-2.76,-2.76,-2.76,-2.76,-2.76,-2.76,-2.76,-2.76,-2.76,-2.7575,-2.76,-2.76,-2.7575,-2.7414,-2.7144,0.0,0.0,0.0,0.0,0.0,0.0,0.0,0.0,0.0,0.0,0.0,0.0,0.0,0.0,0.0,0.0,0.0,0.0,0.0,0.0,0.0,-2.3916,-2.5025,-2.547,-2.5204,0.0,-2.4943,-2.389,-2.3405,-2.3159,-2.3167,-2.2973,-2.3139,-2.3561,-2.323,-2.3108,-2.3108,-2.3108,-2.3108,-2.3108,-2.3108,-2.3108,-2.3108,-2.3108,-2.3158,-2.3434,-3.5534,0.0,0.0,0.0,0.0,-3.6626,-3.7015,-3.7539,-3.7928,-3.8048,-3.8751,-3.902,-3.8452,-3.8497,-3.8048,-3.6761,-3.6656,0.0,0.0,0.0,0.0,-3.5504,-3.4846,-3.4773,-3.531,-3.4128,-3.3769,0.0,0.0,0.0,0.0,0.0,0.0,0.0,0.0,0.0,-2.9415,-2.9562,0.0,-2.878,-2.9894,-3.033,-3.0364,-3.0734,-3.0881,-3.0851,-3.0851,-3.0984,-3.094,-2.9638,-2.9195,-2.8986,-2.7802,-2.7452,-2.7463,-2.7575,-2.76,-2.76,-2.76,-2.76,-2.76,-2.76,-2.76,-2.7575,-2.7463,-2.7539,-2.7575,-2.7463,-2.6971,-2.6733,-2.7174,0.0,0.0,0.0,0.0,0.0,0.0,0.0,0.0,0.0,0.0,-2.2747,0.0,0.0,0.0,0.0,0.0,0.0,0.0,0.0,0.0,0.0,-2.3878,0.0,0.0,0.0,-2.4601,-2.4374,-2.3469,-2.3043,-2.3019,-2.2831,-2.28,-2.2874,-2.3037,-2.3108,-2.3108,-2.3108,-2.3108,-2.3108,-2.3108,-2.3108,-2.3108,-2.3108,-2.3409,-2.3954,-3.5926,0.0,0.0,0.0,0.0,0.0,0.0,-3.8411,-3.8808,-3.8931,-3.8901,-3.8901,-3.8916,-3.8601,-3.8003,-3.7045,-3.6671,-3.6207,-3.5549,-3.5504,-3.5504,-3.5504,-3.519,-3.516,-3.5489,-3.4188,-3.3814,-3.4503,0.0,0.0,0.0,0.0,0.0,0.0,0.0,-2.9639,0.0,0.0,0.0,-2.9882,-3.0109,-3.0306,-3.05,-3.0704,-3.0762,-3.0702,-3.0702,-3.0513,-3.0192,-2.9381,-2.8876,-2.8476,-2.7595,-2.735,-2.7401,-2.7372,-2.7423,-2.7488,-2.7397,-2.7397,-2.7397,-2.7397,-2.7397,-2.7372,-2.731,-2.7361,-2.7372,-2.731,-2.6971,-2.6802,-2.7111,-2.6803,0.0,0.0,0.0,0.0,0.0,0.0,0.0,0.0,0.0,0.0,0.0,0.0,0.0,0.0,0.0,0.0,0.0,0.0,0.0,0.0,0.0,0.0,0.0,0.0,0.0,-2.4121,-2.3075,-2.2746,-2.2999,-2.3062,-2.3096,-2.3127,-2.3436,-2.359,-2.3521,-2.3233,-2.3108,-2.3108,-2.3108,-2.3108,-2.3108,-2.3108,-2.3647,-2.4456,0.0,-3.6216,0.0,0.0,-3.6763,0.0,-3.8141,-3.8829,-3.9268,-3.9403,-3.9065,-3.8916,-3.917,-3.8841,-3.8227,-3.73,-3.6761,-3.6207,-3.5549,-3.5504,-3.5504,-3.5504,-3.537,-3.5355,-3.5504,-3.4053,-3.3604,0.0,0.0,0.0,0.0,0.0,0.0,0.0,0.0,0.0,0.0,0.0,-3.0239,-3.0997,-3.0454,-3.0441,-3.0762,-3.0762,-3.0702,-3.0583,-3.0452,-2.9972,-2.9363,-2.8933,-2.8485,-2.7983,-2.7362,-2.7233,-2.735,-2.7258,-2.731,-2.7376,-2.7258,-2.7233,-2.7207,-2.7207,-2.7207,-2.7181,-2.7155,-2.7181,-2.7181,-2.7155,-2.7067,-2.7003,-2.7003,-2.686,0.0,0.0,0.0,0.0,0.0,0.0,0.0,0.0,0.0,0.0,-2.2837,0.0,0.0,0.0,0.0,0.0,0.0,0.0,0.0,0.0,0.0,-2.4553,-2.4041,0.0,-2.4049,-2.3794,-2.2702,-2.2534,-2.3168,-2.3269,-2.344,-2.368,-2.376,-2.3816,-2.3778,-2.3296,-2.3108,-2.3108,-2.3108,-2.3108,-2.3108,-2.3108,-2.3747,-2.4637,0.0,0.0,0.0,0.0,0.0,0.0,-3.7845,-3.8937,-3.9639,-3.9427,-3.9873,-3.9768,-3.8616,-3.899,-3.8571,-3.6731,-3.6522,-3.6207,-3.5549,-3.5504,-3.5504,-3.5504,-3.4906,-3.4861,-3.5489,-3.3604,-3.2931,0.0,0.0,-3.0898,0.0,0.0,0.0,0.0,0.0,0.0,0.0,-3.0978,-3.0746,-3.0247,-3.0588,-3.0673,-3.0612,-3.0612,-3.0598,-3.0525,-2.9914,-2.9305,-2.8709,-2.8055,-2.7808,-2.7675,-2.7167,-2.7119,-2.7233,-2.735,-2.7401,-2.7401,-2.7376,-2.7284,-2.7207,-2.7207,-2.7207,-2.7155,-2.7055,-2.7119,-2.7155,-2.7041,-2.7003,-2.7003,-2.7003,-2.6389,-2.6145,0.0,0.0,0.0,0.0,0.0,0.0,0.0,0.0,0.0,0.0,-2.2569,0.0,0.0,-2.2794,0.0,0.0,0.0,0.0,-2.4442,0.0,-2.4862,-2.4813,-2.3691,-2.3372,-2.3794,-2.2702,-2.2758,-2.3697,-2.3081,-2.3292,-2.4197,-2.348,-2.3183,-2.3183,-2.3133,-2.3108,-2.3108,-2.3108,-2.3108,-2.3108,-2.3108,-2.3496,-2.4142,0.0,0.0,0.0,0.0,0.0,0.0,0.0,-3.9333,-3.9753,-4.0127,-4.0099,-3.9965,-3.9869,-3.8987,-3.8014,-3.6945,-3.6533,-3.6093,-3.5549,-3.5504,-3.5504,-3.5504,-3.5235,-3.522,-3.5489,-3.3918,-3.323,0.0,0.0,0.0,0.0,0.0,0.0,0.0,0.0,-3.0544,-3.0834,-3.0658,-3.0572,-3.0529,-3.063,-3.0642,-3.0598,-3.0598,-3.0598,-3.0525,-2.9856,-2.9218,-2.8607,-2.7913,-2.7449,-2.7128,-2.6945,-2.6963,-2.7067,-2.7041,-2.7093,-2.7144,-2.7067,-2.7015,-2.6963,-2.6963,-2.6963,-2.6963,-2.6884,-2.691,-2.6937,-2.6884,-2.6873,-2.6873,-2.6873,-2.6628,-2.637,0.0,0.0,0.0,0.0,0.0,0.0,0.0,0.0,0.0,0.0,0.0,0.0,0.0,0.0,0.0,0.0,0.0,0.0,-2.5041,0.0,-2.4475,-2.4408,-2.3796,-2.3589,-2.3794,-2.3047,-2.3207,-2.4206,-2.416,-2.4493,-2.5037,-2.4417,-2.3923,-2.3597,-2.3246,-2.3108,-2.3108,-2.3108,-2.3108,-2.3108,-2.3108,-2.3684,-2.4519,-3.8193,0.0,-3.7891,0.0,-3.7965,-3.8329,-3.9674,-3.992,-4.01,-4.048,-4.0167,-3.998,-4.0182,-3.8929,-3.7727,-3.6813,-3.6344,-3.5878,-3.5371,-3.5326,-3.5326,-3.5326,-3.5326,0.0,-3.5407,-3.411,-3.3423,-3.3499,-3.2124,0.0,0.0,0.0,0.0,0.0,-3.001,-3.0432,-3.1058,-3.0528,-3.05,-3.0791,-3.0642,-3.0598,-3.0598,-3.0598,-3.0598,-3.0496,-2.9639,-2.9058,-2.8578,-2.7737,-2.7157,-2.6806,-2.6806,-2.6899,-2.6977,-2.6899,-2.6925,-2.6977,-2.6873,-2.6832,-2.6806,-2.6806,-2.6806,-2.6806,-2.6806,-2.6806,-2.6806,-2.6806,-2.6806,-2.6806,-2.6806,-2.6806,-2.666,-2.6181,0.0,0.0,0.0,0.0,0.0,0.0,-2.3245,-2.2594,-2.1375,-2.1895,0.0,0.0,0.0,0.0,0.0,0.0,0.0,0.0,0.0,0.0,-2.4642,-2.3959,-2.3755,-2.3989,-2.3493,-2.3749,-2.4747,-2.5162,-2.5363,-2.5347,-2.4938,-2.4506,-2.3954,-2.3346,-2.3108,-2.3108,-2.3108,-2.3208,-2.3358,-2.3358,-2.396,-2.4813,-3.9291,-3.9175,-3.9175,-3.9175,-3.9175,-3.9378,-3.9987,-4.0655,-4.0844,-4.0176,-4.0089,-3.9765,-3.8907,-3.8782,-3.8001,-3.607,-3.5908,-3.5628,-3.4946,-3.4902,-3.4902,0.0,0.0,-3.5001,-3.518,-3.3875,-3.3285,-3.3499,0.0,0.0,-3.0327,0.0,-3.0525,-3.1263,-3.1146,-3.1102,-3.1087,-3.0881,-3.0791,-3.0791,-3.0642,-3.0598,-3.0598,-3.0598,-3.0598,-3.0438,-2.9174,-2.8723,-2.852,-2.7241,-2.682,-2.6806,-2.6806,-2.6899,-2.7003,-2.7003,-2.7003,-2.7003,-2.7003,-2.6899,-2.6806,-2.6806,-2.6806,-2.6806,-2.6806,-2.6806,-2.6806,-2.6806,-2.6806,-2.6806,-2.6806,-2.6806,-2.6806,-2.6806,0.0,0.0,0.0,0.0,0.0,0.0,-2.4612,-2.3859,-2.099,-2.1669,0.0,0.0,0.0,0.0,0.0,0.0,0.0,-2.5573,-2.4945,0.0,-2.5873,-2.4091,-2.366,-2.4506,-2.4001,-2.4336,-2.53,-2.5711,-2.549,-2.48,-2.4788,-2.4506,-2.3954,-2.3346,-2.3108,-2.3108,-2.3108,-2.3446,-2.3991,-2.3991,-2.4343,-2.4863,-3.9842,-3.9813,-3.9813,-3.9813,-3.9813,-4.0031,-4.067,-4.096,-4.1018,-4.08,-4.0379,-3.9649,-3.8521,-3.801,-3.739,0.0,-3.5972,-3.5477,0.0,-3.4902,-3.4902,-3.4902,-3.4902,-3.4935,-3.5001,-3.3731,-3.3097,-3.316,0.0,0.0,0.0,-3.0601,-3.0601,-3.0293,-3.0837,-3.0984,-3.0762,-3.0791,-3.0762,-3.0672,-3.0612,-3.0598,-3.0598,-3.0598,-3.0336,-2.9813,-2.8985,-2.8405,-2.7869,-2.707,-2.6806,-2.6806,-2.6806,-2.6832,-2.6873,-2.6873,-2.6873,-2.6873,-2.6873,-2.6832,-2.6806,-2.6806,-2.6806,-2.6806,-2.6806,-2.6806,-2.6806,-2.6806,-2.6806,-2.6806,-2.6806,-2.6806,-2.6806,-2.6806,-2.6806,0.0,0.0,0.0,0.0,0.0,-2.2738,-2.2106,-2.0833,-2.1656,0.0,0.0,0.0,0.0,0.0,0.0,0.0,0.0,-2.512,0.0,-2.6082,-2.4912,-2.4441,-2.4701,-2.4396,-2.4719,-2.55,-2.5793,-2.5864,-2.571,-2.5094,-2.4921,-2.4983,-2.3647,-2.3333,-2.3715,-2.3715,-2.3841,-2.4042,-2.4418,-2.4895,-2.5372,-4.0525,-4.0481,-4.0481,-4.0481,-4.0481,-4.0699,-4.1366,-4.1265,-4.1004,-4.0757,-4.0162,-3.9363,-3.8318,-3.7447,0.0,-3.6201,-3.5545,-3.5025,-3.4731,-3.4702,-3.4702,-3.4702,-3.4702,-3.4735,-3.4802,-3.3539,0.0,-3.3004,-3.1646,-3.0778,-3.0367,-3.0734,-3.0631,-3.0192,-3.0705,-3.0791,-3.0598,-3.0702,-3.0672,-3.0598,-3.0598,-3.0598,-3.0598,-3.0598,-3.0176,-2.9508,-2.8913,-2.8274,-2.7608,-2.6997,-2.6806,-2.6806,-2.6806,-2.6647,-2.65,-2.6727,-2.6806,-2.6806,-2.6806,-2.6806,-2.6806,-2.6806,-2.6806,-2.6806,-2.6806,-2.6806,-2.6806,-2.6806,-2.6806,-2.6806,-2.6806,-2.6982,-2.7142,-2.7142,-2.7142,-2.6994,-2.6629,0.0,0.0,0.0,0.0,0.0,0.0,-2.1782,-2.2523,0.0,0.0,0.0,0.0,0.0,0.0,-2.5858,-2.504,0.0,-2.6198,-2.5323,-2.4993,-2.5107,-2.5093,-2.5297,-2.5618,-2.6001,-2.6212,-2.6164,-2.5411,-2.5297,-2.5485,-2.4054,-2.3791,-2.4293,-2.4079,-2.4243,-2.4632,-2.4983,-2.546,-2.5925,-4.1279,-4.1163,-4.1163,0.0,-4.1163,0.0,-4.1932,-4.1497,-4.0844,-4.0133,-3.9552,-3.8942,-3.8275,-3.7114,-3.6112,-3.5523,0.0,0.0,0.0,-3.4414,-3.4414,-3.4414,-3.4414,-3.4481,-3.4664,-3.3422,-3.2798,-3.2914,-3.1466,-3.0791,-3.0791,-3.0672,-3.0672,-3.0791,-3.0672,-3.0598,-3.0598,-3.0598,-3.0598,-3.0598,-3.0598,-3.0598,-3.0598,-3.0598,-3.0147,-2.945,-2.8884,-2.8245,-2.755,-2.6929,-2.6727,-2.6727,-2.67,-2.6272,-2.5975,-2.6621,-2.6779,-2.6727,-2.6727,-2.6779,-2.6779,-2.6753,-2.6779,-2.6806,-2.6806,-2.6806,-2.6806,-2.6806,-2.6806,-2.682,-2.6837,-2.7331,-2.7724,-2.7753,-2.7712,-2.7614,-2.7586,0.0,0.0,0.0,0.0,0.0,0.0,-2.2046,-2.2184,0.0,0.0,0.0,0.0,0.0,-2.6097,-2.4938,-2.4938,-2.5411,-2.63,-2.5632,-2.5414,-2.5692,-2.5997,-2.5949,-2.5643,-2.6369,-2.6498,-2.6176,-2.5782,-2.5624,-2.5573,-2.4494,-2.4381,-2.482,-2.4318,-2.472,-2.5598,-2.5636,-2.6034,-2.6499,0.0,0.0,-4.186,-4.186,-4.186,-4.1744,-4.1381,-4.1192,-4.0684,-3.9567,-3.9291,-3.8942,-3.8275,-3.752,-3.6809,-3.6141,-3.5067,-3.4414,-3.4414,-3.4414,-3.4414,-3.4414,-3.4414,-3.4414,-3.4481,-3.3711,-3.2841,-3.1851,-3.1051,-3.0642,-3.0642,-3.0598,-3.0612,-3.0642,-3.0598,-3.0598,-3.0598,-3.0598,-3.0598,-3.0598,-3.0598,-3.0598,-3.0598,-3.0598,-2.9915,-2.8884,-2.8767,-2.7955,-2.6929,-2.6302,-2.6111,-2.6029,-2.5564,-2.5328,-2.5412,-2.65,-2.6474,-2.6111,-2.6111,-2.6447,-2.67,-2.6233,-2.6447,-2.6806,-2.6806,-2.6806,-2.6806,-2.6806,-2.6806,-2.6924,-2.7391,-2.7594,-2.7855,-2.8376,-2.7653,-2.6849,-2.6395,-2.4773,0.0,0.0,-2.2614,-2.2419,-2.2133,-2.2594,-2.3208,0.0,0.0,0.0,0.0,-2.6967,-2.7205,-2.6135,-2.6477,-2.6995,-2.7635,-2.7162,-2.6834,-2.6587,-2.6683,-2.6442,-2.5985,-2.6468,-2.6426,-2.5955,-2.5715,-2.585,-2.6197,-2.5071,-2.4946,-2.5398,-2.5272,-2.5372,-2.5649,-2.6122,-2.6373,-2.6499,-4.2092,-4.2092,-4.2092,-4.2092,-4.2092,-4.1874,-4.1192,-4.0844,-4.0292,-3.9334,-3.8928,-3.8609,-3.8246,-3.7404,-3.6707,-3.6344,-3.5415,-3.4719,-3.4428,-3.4414,-3.4414,-3.4414,-3.4414,-3.4414,-3.4414,-3.379,-3.2832,-3.1495,-3.1177,-3.0858,-3.0598,-3.0598,-3.0598,-3.0598,-3.0598,-3.0598,-3.0598,-3.0598,-3.0598,-3.0598,-3.0598,-3.0598,-3.0598,-3.0598,-2.9987,-2.9073,-2.8811,-2.7889,-2.6697,-2.6087,-2.5715,-2.5425,-2.5105,-2.4823,-2.4823,-2.6029,-2.5961,-2.5536,-2.5839,-2.5934,-2.5961,-2.5921,-2.634,-2.6806,-2.6806,-2.7012,-2.7215,-2.7215,-2.7447,-2.7752,-2.81,-2.8377,-2.858,-2.8709,-2.8109,-2.7357,-2.6423,-2.4989,0.0,-2.2827,-2.2698,-2.2656,-2.2656,-2.317,-2.386,-2.4725,-2.5787,0.0,-2.6499,-2.7996,-2.8247,-2.6914,-2.7369,-2.7808,-2.8109,-2.7705,-2.7297,-2.6898,-2.7138,-2.7045,-2.6626,-2.7176,-2.7053,-2.6383,-2.6399,-2.6436,-2.6424,-2.5523,-2.5498,-2.5963,-2.5699,-2.5762,-2.6059,-2.6386,-2.6499,-2.6499,-4.2092,-4.2092,-4.2092,-4.2092,-4.2092,-4.1845,-4.1062,-4.0466,-3.9842,-3.9146,-3.8551,-3.8202,-3.8202,-3.7157,-3.6417,-3.6315,-3.577,-3.5131,-3.4457,-3.4414,-3.4414,-3.4414,-3.4414,-3.4414,-3.4414,-3.379,-3.2919,-3.1816,-3.1613,-3.125,-3.0743,-3.0641,-3.0598,-3.0598,-3.0598,-3.0598,-3.0598,-3.0598,-3.0598,-3.0598,-3.0598,-3.0598,-3.0598,-3.0598,-3.0176,-2.9523,-2.9015,-2.801,-2.6834,-2.6133,-2.5564,-2.5086,-2.4901,-2.4564,-2.441,-2.5533,-2.5448,-2.5109,-2.5744,-2.5536,-2.5273,-2.5893,-2.642,-2.6835,-2.691,-2.7345,-2.7724,-2.7826,-2.8303,-2.8738,-2.884,-2.9261,-2.9479,-2.9044,-2.8683,-2.8068,-2.6989,0.0,-2.4485,-2.3441,-2.3323,-2.3358,-2.3358,-2.381,-2.4393,-2.5021,-2.6364,-2.7102,-2.6876,-2.8624,-2.9051,-2.7708,-2.8122,-2.8324,-2.825,-2.7916,-2.7541,-2.7138,-2.7621,-2.7664,-2.7332,-2.8035,-2.7878,-2.7131,-2.7235,-2.7052,-2.6575,-2.5963,-2.6047,-2.6449,-2.5946,-2.6059,-2.6499,-2.6499,-2.6499,-2.6499,-4.2092,-4.2092,-4.2092,-4.2092,-4.2092,-4.1671,-4.0437,-4.0162,-3.9683,-3.8507,-3.826,-3.8202,-3.8202,-3.7578,-3.6925,-3.6359,-3.577,-3.5131,-3.4457,-3.4414,-3.4414,-3.4414,-3.4414,-3.4414,-3.4414,-3.379,-3.3402,-3.3198,-3.2063,-3.1437,-3.1366,-3.0829,-3.0598,-3.0598,-3.0598,-3.0598,-3.0598,-3.0598,-3.0598,-3.0598,-3.0598,-3.0598,-3.0598,-3.0598,-3.0176,-2.9581,-2.9479,-2.8625,-2.7393,-2.627,-2.5797,-2.5506,-2.4472,-2.4399,-2.483,-2.5524,-2.5306,-2.4988,-2.5715,-2.5839,-2.5921,-2.65,-2.6727,-2.6924,-2.7434,-2.7623,-2.7855,-2.8419,-2.8636,-2.884,-2.9377,-2.9537,-2.974,-3.0234,-2.8557,-2.7102,-2.6903,0.0,-2.4093,-2.3894,-2.428,-2.4525,-2.4525,-2.4612,-2.5109,-2.6172,-2.6474,-2.719,-2.8473,-2.8838,-2.9164,-2.9402,-2.949,-2.9336,-2.8963,-2.8872,-2.8651,-2.827,-2.8527,-2.8351,-2.7879,-2.8346,-2.8226,-2.7679,-2.741,-2.7231,-2.714,-2.6587,-2.6411,-2.6487,-2.6399,-2.6411,-2.6499,-2.6499,-2.6499,-2.6499,-4.2034,-4.2092,-4.2092,-4.2092,-4.1802,-4.1221,-4.0249,-3.9813,-3.9276,-3.8318,-3.8202,-3.8202,-3.8202,-3.7346,-3.6649,-3.633,-3.5415,-3.4719,-3.4428,-3.4414,-3.4414,-3.4414,-3.4414,-3.4414,-3.4414,-3.4124,-3.3819,-3.3503,-3.2513,-3.1843,-3.148,-3.0872,-3.0598,-3.0598,-3.0598,-3.0598,-3.0598,-3.0598,-3.0598,-3.0598,-3.0598,-3.0598,-3.0598,-3.0598,-3.0423,-3.0089,-2.9711,-2.9001,-2.8039,-2.6756,-2.6082,-2.5642,-2.4703,-2.4587,-2.4904,-2.5503,-2.5532,-2.5258,-2.4942,-2.5337,-2.5937,-2.6246,-2.6778,-2.7425,-2.8075,-2.8507,-2.8812,-2.9131,-2.9464,-2.9813,-3.0089,-3.0132,-3.0118,-3.0074,-2.8826,0.0,0.0,-2.5997,-2.5146,-2.4494,-2.4908,-2.5234,-2.5234,-2.5234,-2.5699,-2.6851,-2.7216,-2.7808,-2.8838,-2.9227,-2.9515,-2.9779,-2.9792,-2.9624,-2.9275,-2.9275,-2.9118,-2.8816,-2.8934,-2.8905,-2.8776,-2.8969,-2.8786,-2.8363,-2.7922,-2.7557,-2.7278,-2.6725,-2.6499,-2.6499,-2.6499,-2.6499,-2.6499,-2.6499,-2.6499,-2.6499,-4.1526,-4.1758,-4.186,-4.186,-4.1439,-4.0873,-4.0191,-3.9581,-3.8957,-3.8289,-3.8202,-3.8202,-3.8202,-3.707,-3.6301,-3.6301,-3.5154,-3.4414,-3.4414,-3.4414,-3.4414,-3.4414,-3.4414,-3.4414,-3.4414,-3.4414,-3.4095,-3.3503,-3.2832,-3.2147,-3.148,-3.0872,-3.0598,-3.0598,-3.0598,-3.0598,-3.0598,-3.0598,-3.0598,-3.0598,-3.0598,-3.0598,-3.0598,-3.0598,-3.0598,-3.0539,-3.0016,-2.9432,-2.8713,-2.755,-2.6731,-2.6094,-2.5435,-2.5214,-2.5295,-2.5743,-2.6038,-2.6061,-2.531,-2.5767,-2.6501,-2.6545,-2.7225,-2.8024,-2.8741,-2.9276,-2.9639,-2.9813,-3.0234,-3.0598,-3.0598,-3.0477,-3.0198,-2.9678,0.0,0.0,0.0,-2.6656,-2.6219,-2.5126,-2.5473,-2.5799,-2.5799,-2.5799,-2.6201,-2.7205,-2.7795,-2.8285,-2.8675,-2.9402,-2.9792,-2.9792,-2.9792,-2.965,-2.9419,-2.9419,-2.9314,-2.9091,-2.917,-2.9236,-2.9419,-2.947,-2.9362,-2.9051,-2.8398,-2.7871,-2.7419,-2.6776,-2.6499,-2.6499,-2.6499,-2.6499,-2.6499,-2.6499,-2.6499,-2.6499,-4.0234,-4.0742,-4.1163,-4.1163,-4.1134,-4.0873,-4.0191,-3.9581,-3.8957,-3.8289,-3.8202,-3.8202,-3.8202,-3.707,-3.6301,-3.6301,-3.5154,-3.4414,-3.4414,-3.4414,-3.4414,-3.4414,-3.4414,-3.4414,-3.4414,-3.4414,-3.4095,-3.3503,-3.2832,-3.2147,-3.148,-3.0872,-3.0598,-3.0598,-3.0598,-3.0598,-3.0598,-3.0598,-3.0598,-3.0598,-3.0598,-3.0598,-3.0598,-3.0598,-3.0598,-3.0598,-3.0554,-3.0088,-2.9434,-2.8771,-2.8077,-2.7377,-2.6762,-2.6455,-2.6373,-2.6442,-2.6942,-2.7592,-2.8196,-2.8424,-2.8481,-2.8481,-2.8553,-2.8769,-2.9392,-2.9566,-2.9798,-3.0409,-3.0569,-3.0598,-3.0598,-3.0099,-2.967,-2.9628,0.0,0.0,-2.6812,-2.6684,-2.6408,-2.5635,-2.6084,-2.6436,-2.6436,-2.6436,-2.6675,-2.7278,-2.7795,-2.8122,-2.816,-2.9202,-2.9792,-2.9792,-2.9792,-2.965,-2.9419,-2.9419,-2.9314,-2.9091,-2.9275,-2.938,-2.9419,-2.965,-2.9767,-2.9666,-2.8574,-2.8084,-2.7959,-2.6939,-2.6499,-2.6499,-2.6499,-2.6499,-2.6499,-2.6499,-2.6499,-2.6499,-4.0017,-4.0307,-4.0481,-4.0481,-4.0176,-3.9842,-3.9581,-3.8986,-3.8492,-3.8231,-3.8202,-3.8202,-3.8202,-3.707,-3.6301,-3.6301,-3.5154,-3.4414,-3.4414,-3.4414,-3.4414,-3.4414,-3.4414,-3.4414,-3.4414,-3.4414,-3.4095,-3.3503,-3.2832,-3.2147,-3.148,-3.0872,-3.0598,-3.0598,-3.0598,-3.0598,-3.0598,-3.0598,-3.0598,-3.0598,-3.0598,-3.0598,-3.0598,-3.0598,-3.0598,-3.0598,-3.0598,-3.0452,-3.0116,-2.9499,-2.8761,-2.8052,-2.7406,-2.6873,-2.6589,-2.7007,-2.734,-2.7787,-2.8944,-2.895,-2.8665,-2.8695,-2.898,-2.9321,-2.9563,-2.9922,-3.0188,-3.0011,-3.0312,-3.0598,-3.0598,-3.0068,-2.9591,-2.9591,0.0,-2.7539,-2.7236,-2.6857,-2.6472,-2.619,-2.6361,-2.6499,-2.6499,-2.6499,-2.6725,-2.7278,-2.7482,-2.7896,-2.8549,-2.9365,-2.9792,-2.9792,-2.9792,-2.974,-2.965,-2.965,-2.9611,-2.9546,-2.9611,-2.965,-2.965,-2.974,-2.9792,-2.9729,-2.8599,-2.8109,-2.8021,-2.6952,-2.6499,-2.6499,-2.6499,-2.6499,-2.6537,-2.6876,-2.6788,-2.6549,-3.9421,-3.9668,-3.9813,-3.9813,-3.9479,-3.9204,-3.9204,-3.8638,-3.8202,-3.8202,-3.8202,-3.8202,-3.8202,-3.707,-3.6301,-3.6301,-3.5154,-3.4414,-3.4414,-3.4414,-3.4414,-3.4414,-3.4414,-3.4414,-3.4414,-3.4414,-3.4095,-3.3503,-3.3035,-3.2367,-3.148,-3.1076,-3.0786,-3.0598,-3.0598,-3.0598,-3.0598,-3.0598,-3.0598,-3.0598,-3.0598,-3.0598,-3.0598,-3.0598,-3.0598,-3.0598,-3.0598,-3.0598,-3.0538,-3.0068,-2.9453,-2.8762,-2.8293,-2.755,-2.685,-2.7095,-2.7351,-2.7703,-2.868,-2.8771,-2.87,-2.9171,-2.9435,-2.9654,-2.987,-2.9931,-2.9901,-2.9654,-2.9763,-3.0023,-3.0251,-2.9701,-2.9251,-2.9251,-2.8465,-2.7707,-2.7232,-2.6959,-2.6736,-2.6517,-2.6499,-2.6562,-2.6738,-2.6751,-2.6901,-2.7256,-2.7607,-2.821,-2.9151,-2.9402,-2.9603,-2.9779,-2.9792,-2.9792,-2.9792,-2.9792,-2.9792,-2.9792,-2.9792,-2.9792,-2.9792,-2.9792,-2.9792,-2.9741,-2.8775,-2.826,-2.8034,-2.714,-2.665,-2.6499,-2.6499,-2.6499,-2.6562,-2.7115,-2.7077,-2.6839,-3.8202,-3.8739,-3.9189,-3.9189,-3.9189,-3.9189,-3.9189,-3.8623,-3.8202,-3.8202,-3.8202,-3.8202,-3.8188,-3.707,-3.6301,-3.6301,-3.514,-3.4414,-3.4414,-3.4414,-3.4414,-3.4414,-3.4414,-3.4414,-3.4414,-3.4414,-3.4095,-3.3503,-3.3503,-3.2803,-3.1495,-3.1495,-3.1177,-3.0598,-3.0598,-3.0598,-3.0598,-3.0598,-3.0598,-3.0598,-3.0598,-3.0598,-3.0598,-3.0598,-3.0598,-3.0598,-3.0598,-3.0598,-3.0598,-3.0598,-3.016,-2.9591,-2.9591,-2.8615,-2.7384,-2.6679,-2.6973,-2.7484,-2.7517,-2.7986,-2.8826,-3.0251,-3.0099,-2.9777,-3.0447,-2.9501,-2.8716,-2.9453,-2.903,-2.873,-2.9453,-2.8985,-2.8492,-2.8492,-2.8492,-2.8019,-2.6679,-2.7061,-2.7263,-2.6589,-2.6499,-2.6713,-2.7231,-2.7281,-2.7329,-2.7329,-2.831,-2.9176,-2.9754,-2.9252,-2.9202,-2.9779,-2.9792,-2.9792,-2.9792,-2.9792,-2.9792,-2.9792,-2.9792,-2.9792,-2.9792,-2.9792,-2.9792,-2.9767,-2.9176,-2.8612,-2.8059,-2.7507,-2.7002,-2.6499,-2.6499,-2.6499,-2.6575,-2.7128,-2.7329,-2.7369,-3.8202,-3.8362,-3.8507,-3.8507,-3.8507,-3.8507,-3.8507,-3.8333,-3.8202,-3.8202,-3.8202,-3.8043,-3.7622,-3.6823,-3.6127,-3.5726,-3.4893,-3.4414,-3.4414,-3.4414,-3.4414,-3.4414,-3.4414,-3.4414,-3.4414,-3.4414,-3.4095,-3.3503,-3.3503,-3.2803,-3.1495,-3.1495,-3.1177,-3.0598,-3.0598,-3.0598,-3.0598,-3.0598,-3.0598,-3.0598,-3.0598,-3.0598,-3.0598,-3.0598,-3.0598,-3.0598,-3.0598,-3.0598,-3.0598,-3.0598,-3.016,-2.9421,-2.8454,-2.7835,-2.7384,-2.6679,-2.6658,-2.6905,-2.7384,-2.7637,-2.8149,-2.9546,-2.9747,-2.9654,-2.9839,-2.9577,-2.9188,-2.8889,-2.8652,-2.8556,-2.8794,-2.8666,-2.8492,-2.8492,-2.8492,-2.8214,-2.7317,-2.7384,-2.7263,-2.6589,-2.6839,-2.714,-2.7268,-2.7632,-2.7858,-2.7858,-2.8524,-2.8963,-2.9176,-2.9402,-2.9616,-2.9779,-2.9792,-2.9792,-2.9792,-2.9792,-2.9792,-2.9792,-2.9792,-2.9792,-2.9792,-2.9792,-2.9792,-2.9767,-2.9176,-2.8612,-2.8059,-2.7507,-2.7216,-2.7065,-2.7065,-2.7268,-2.7682,-2.8235,-2.8197,-2.7946,-3.8202,-3.8202,-3.8202,-3.8202,-3.8202,-3.8202,-3.8202,-3.8202,-3.8202,-3.8202,-3.8202,-3.8072,-3.7709,-3.7085,-3.6446,-3.5793,-3.4922,-3.4414,-3.4414,-3.4414,-3.4414,-3.4414,-3.4414,-3.4414,-3.4414,-3.4414,-3.4225,-3.3848,-3.3848,-3.3311,-3.2295,-3.2295,-3.1946,-3.1337,-3.1337,-3.1192,-3.0945,-3.0945,-3.083,-3.0598,-3.0598,-3.0447,-3.0221,-3.0507,-3.0251,-2.9794,-3.0085,-3.0023,-2.9763,-2.9763,-2.9501,-2.8967,-2.7868,-2.7517,-2.7384,-2.6679,-2.6499,-2.6589,-2.7007,-2.7095,-2.7364,-2.8487,-2.8776,-2.8903,-2.9453,-2.8949,-2.839,-2.8473,-2.8084,-2.7802,-2.8051,-2.8117,-2.8117,-2.8117,-2.8117,-2.7855,-2.7196,-2.7095,-2.7016,-2.6823,-2.7115,-2.7457,-2.7896,-2.8235,-2.8536,-2.875,-2.8863,-2.8988,-2.9252,-2.9603,-2.9792,-2.9792,-2.9792,-2.9792,-2.9792,-2.9792,-2.9792,-2.9792,-2.9792,-2.9792,-2.9792,-2.9792,-2.9792,-2.9779,-2.9415,-2.895,-2.8398,-2.8072,-2.767,-2.7306,-2.7519,-2.767,-2.7871,-2.8599,-2.8549,-2.8185,-3.8202,-3.8202,-3.8202,-3.8202,-3.8202,-3.8202,-3.8202,-3.8202,-3.8202,-3.8202,-3.8202,-3.8188,-3.813,-3.7636,-3.7012,-3.6286,-3.5111,-3.4414,-3.4414,-3.4414,-3.4414,-3.4414,-3.4414,-3.4414,-3.4414,-3.4414,-3.4414,-3.4414,-3.4414,-3.4095,-3.3503,-3.3503,-3.3122,-3.2481,-3.2481,-3.215,-3.1495,-3.1495,-3.1148,-3.0598,-3.0598,-3.019,-2.9685,-3.0282,-2.9656,-2.8588,-2.9251,-2.9062,-2.8492,-2.8492,-2.8492,-2.8363,-2.7703,-2.7517,-2.7384,-2.6679,-2.6499,-2.6499,-2.6499,-2.6499,-2.6658,-2.7263,-2.7417,-2.7769,-2.917,-2.798,-2.6952,-2.8216,-2.7423,-2.6705,-2.7361,-2.7529,-2.757,-2.7517,-2.759,-2.7416,-2.6692,-2.6589,-2.6744,-2.719,-2.7293,-2.7758,-2.8712,-2.8913,-2.9227,-2.9754,-2.9302,-2.9239,-2.9767,-2.9792,-2.9792,-2.9792,-2.9792,-2.9792,-2.9792,-2.9792,-2.9792,-2.9792,-2.9792,-2.9792,-2.9792,-2.9792,-2.9792,-2.9792,-2.9792,-2.9465,-2.8888,-2.8888,-2.831,-2.7406,-2.7959,-2.7871,-2.7557,-2.8612,-2.8624,-2.8247,-3.8202,-3.8202,-3.8202,-3.8202,-3.8202,-3.8202,-3.8202,-3.8202,-3.8202,-3.8202,-3.8202,-3.8028,-3.7549,-3.7389,-3.6838,-3.5697,-3.4864,-3.4414,-3.4414,-3.4414,-3.4414,-3.4414,-3.4414,-3.4414,-3.4414,-3.4414,-3.4414,-3.4414,-3.4414,-3.4095,-3.3503,-3.3503,-3.3122,-3.2481,-3.2481,-3.215,-3.1495,-3.1495,-3.1148,-3.0598,-3.0598,-3.019,-2.9623,-2.9747,-2.9282,-2.8524,-2.8698,-2.8634,-2.8492,-2.8492,-2.8492,-2.8363,-2.7703,-2.7517,-2.7384,-2.6679,-2.6499,-2.6499,-2.6499,-2.6499,-2.6521,-2.6692,-2.6714,-2.7061,-2.8441,-2.7986,-2.7481,-2.8182,-2.7383,-2.6659,-2.7227,-2.7752,-2.8007,-2.7549,-2.8306,-2.8539,-2.7449,-2.7297,-2.7113,-2.6719,-2.7442,-2.8021,-2.826,-2.9089,-2.9654,-2.9779,-2.9679,-2.9666,-2.9779,-2.9792,-2.9792,-2.9792,-2.9792,-2.9792,-2.9792,-2.9792,-2.9792,-2.9792,-2.9792,-2.9792,-2.9792,-2.9792,-2.9792,-2.9792,-2.9792,-2.9465,-2.8888,-2.8888,-2.8536,-2.7984,-2.8536,-2.8674,-2.8624,-2.9352,-2.9239,-2.8662,-3.8202,-3.8202,-3.8202,-3.8202,-3.8202,-3.8202,-3.8202,-3.8202,-3.8202,-3.8202,-3.8202,-3.8086,-3.7767,-3.7476,-3.678,-3.5508,-3.4777,-3.4414,-3.4414,-3.4414,-3.4414,-3.4414,-3.4414,-3.4414,-3.4414,-3.4414,-3.4414,-3.4414,-3.4414,-3.424,-3.392,-3.392,-3.3746,-3.3427,-3.3427,-3.2858,-3.1973,-3.1973,-3.1438,-3.0598,-3.0598,-3.019,-2.9623,-2.9962,-2.9219,-2.8051,-2.8395,-2.8084,-2.7537,-2.7537,-2.7537,-2.7484,-2.7129,-2.704,-2.6939,-2.6589,-2.6499,-2.6499,-2.6499,-2.6499,-2.6499,-2.6499,-2.6688,-2.7141,-2.8179,-2.7889,-2.7584,-2.8178,-2.754,-2.6901,-2.6914,-2.7395,-2.7661,-2.7096,-2.7764,-2.8035,-2.7151,-2.704,-2.6973,-2.6886,-2.7595,-2.831,-2.8863,-2.9453,-2.9792,-2.9792,-2.9792,-2.9792,-2.9792,-2.9792,-2.9792,-2.9792,-2.9792,-2.9792,-2.9792,-2.9792,-2.9792,-2.9792,-2.9792,-2.9792,-2.9792,-2.9792,-2.9792,-2.9792,-2.9792,-2.9616,-2.934,-2.934,-2.885,-2.816,-2.8675,-2.8612,-2.8247,-2.9076,-2.9026,-2.8386,-3.8202,-3.8202,-3.8202,-3.8202,-3.8202,-3.8202,-3.8202,-3.8202,-3.8202,-3.8202,-3.8202,-3.8202,-3.8202,-3.7564,-3.6649,-3.5508,-3.4777,-3.4414,-3.4414,-3.4414,-3.4414,-3.4414,-3.4414,-3.4414,-3.4414,-3.4414,-3.4414,-3.4414,-3.4414,-3.4414,-3.4414,-3.4414,-3.4414,-3.4414,-3.4414,-3.3775,-3.2687,-3.2687,-3.1932,-3.0757,-3.0757,-3.0291,-2.9654,-3.0221,-2.9219,-2.7571,-2.8149,-2.7537,-2.6512,-2.66,-2.6575,-2.6512,-2.66,-2.6562,-2.6499,-2.6499,-2.6499,-2.6499,-2.6499,-2.6499,-2.6512,-2.6612,-2.6977,-2.747,-2.8131,-2.7777,-2.747,-2.8131,-2.7666,-2.709,-2.6826,-2.7153,-2.7278,-2.6725,-2.7178,-2.7306,-2.66,-2.6663,-2.6876,-2.714,-2.7708,-2.8549,-2.9679,-2.9792,-2.9792,-2.9792,-2.9792,-2.9792,-2.9792,-2.9792,-2.9792,-2.9792,-2.9792,-2.9792,-2.9792,-2.9792,-2.9792,-2.9792,-2.9792,-2.9792,-2.9792,-2.9792,-2.9792,-2.9792,-2.9792,-2.9792,-2.9792,-2.9792,-2.9176,-2.8298,-2.8825,-2.8398,-2.7519,-2.8348,-2.8411,-2.7922,-3.8202,-3.8202,-3.8202,-3.8202,-3.8202,-3.8202,-3.8202,-3.8202,-3.8202,-3.8202,-3.8202,-3.8202,-3.8202,-3.7143,-3.6156,-3.5465,-3.4777,-3.4414,-3.4414,-3.4414,-3.4414,-3.4414,-3.4414,-3.4414,-3.4414,-3.4414,-3.4414,-3.4414,-3.4414,-3.4414,-3.4414,-3.4414,-3.4414,-3.4414,-3.4414,-3.4008,-3.3373,-3.3373,-3.2585,-3.1395,-3.1395,-3.0678,-2.9623,-2.9716,-2.8807,-2.7517,-2.7604,-2.7162,-2.6562,-2.7052,-2.6889,-2.6575,-2.7052,-2.6876,-2.6499,-2.6499,-2.6499,-2.6499,-2.6499,-2.6499,-2.6612,-2.709,-2.7266,-2.7442,-2.7992,-2.7691,-2.7454,-2.7992,-2.7301,-2.6876,-2.772,-2.7946,-2.7821,-2.7291,-2.8034,-2.8185,-2.6713,-2.7281,-2.7557,-2.6713,-2.7482,-2.8549,-2.9679,-2.9792,-2.9792,-2.9792,-2.9792,-2.9792,-2.9792,-2.9792,-2.9792,-2.9792,-2.9792,-2.9792,-2.9792,-2.9792,-2.9792,-2.9792,-2.9792,-2.9792,-2.9792,-2.9792,-2.9792,-2.9792,-2.9792,-2.9792,-2.9792,-2.9792,-2.9402,-2.8838,-2.9453,-2.8988,-2.7959,-2.762,-2.7758,-2.7922,-3.8202,-3.8202,-3.8202,-3.8202,-3.8202,-3.8202,-3.8202,-3.8202,-3.8202,-3.8202,-3.7912,-3.7709,-3.7709,-3.6548,-3.5532,-3.4893,-3.4574,-3.4414,-3.4414,-3.4414,-3.4414,-3.4414,-3.3962,-3.3928,-3.438,-3.3962,-3.3962,-3.4414,-3.4414,-3.4414,-3.4414,-3.4414,-3.4147,-3.3742,-3.4196,-3.3802,-3.2849,-3.331,-3.2933,-3.2046,-3.2046,-3.1498,-3.0614,-3.027,-2.9444,-2.8412,-2.7674,-2.7014,-2.6537,-2.6776,-2.67,-2.6537,-2.6788,-2.6688,-2.6549,-2.6864,-2.6738,-2.6625,-2.7241,-2.6964,-2.67,-2.7532,-2.7745,-2.7883,-2.8399,-2.8134,-2.7808,-2.8059,-2.772,-2.7532,-2.8009,-2.8109,-2.8021,-2.7783,-2.8411,-2.8461,-2.714,-2.7607,-2.8047,-2.7858,-2.8273,-2.8888,-2.9716,-2.9792,-2.9792,-2.9792,-2.9792,-2.9792,-2.9792,-2.9792,-2.9792,-2.9792,-2.9792,-2.9792,-2.9792,-2.9792,-2.9792,-2.9792,-2.9792,-2.9792,-2.9792,-2.9792,-2.9792,-2.9792,-2.9792,-2.9792,-2.9792,-2.9792,-2.9453,-2.8888,-2.8863,-2.836,-2.7582,-2.7065,-2.7168,-2.7496]},{"header":{"parameterUnit":"m.s-1","parameterCategory":1,"la1":30.6,"la2":28.766,"lo1":-90.7593,"lo2":-88.6598,"dy":0.0162,"dx":0.0183,"nx":116,"ny":114,"refTime":"2023-03-20T00:00:00:Z","depth":0,"parameterNumber":3,"parameterNumberName":"V-component_of_WINDS"},"data":[0.0,0.0,0.0,0.0,0.0,0.0,0.0,0.0,0.0,0.0,0.0,0.0,0.0,0.0,0.0,0.0,0.0,0.0,0.0,0.0,0.0,0.0,0.0,0.0,0.0,0.0,0.0,0.0,0.0,0.0,0.0,0.0,0.0,0.0,0.0,0.0,0.0,0.0,0.0,0.0,0.0,0.0,0.0,0.0,0.0,0.0,0.0,0.0,0.0,0.0,0.0,0.0,0.0,0.0,0.0,0.0,0.0,0.0,0.0,0.0,0.0,0.0,0.0,0.0,0.0,0.0,0.0,0.0,0.0,0.0,0.0,0.0,0.0,0.0,0.0,0.0,0.0,0.0,0.0,0.0,0.0,0.0,0.0,0.0,0.0,0.0,0.0,0.0,0.0,0.0,0.0,0.0,0.0,0.0,0.0,0.0,0.0,0.0,0.0,0.0,0.0,0.0,0.0,0.0,0.0,0.0,0.0,0.0,0.0,0.0,0.0,0.0,0.0,0.0,0.0,0.0,0.0,0.0,0.0,0.0,0.0,0.0,0.0,0.0,0.0,0.0,0.0,0.0,0.0,0.0,0.0,0.0,0.0,0.0,0.0,0.0,0.0,0.0,0.0,0.0,0.0,0.0,0.0,0.0,0.0,0.0,0.0,0.0,0.0,0.0,0.0,0.0,0.0,0.0,0.0,0.0,0.0,0.0,0.0,0.0,0.0,0.0,0.0,0.0,0.0,0.0,0.0,0.0,0.0,0.0,0.0,0.0,0.0,0.0,0.0,0.0,0.0,0.0,0.0,0.0,0.0,0.0,0.0,0.0,0.0,0.0,0.0,0.0,0.0,0.0,0.0,0.0,0.0,0.0,0.0,0.0,0.0,0.0,0.0,0.0,0.0,0.0,0.0,0.0,0.0,0.0,0.0,0.0,0.0,0.0,0.0,0.0,0.0,0.0,0.0,0.0,0.0,0.0,0.0,0.0,0.0,0.0,0.0,0.0,0.0,0.0,0.0,0.0,0.0,0.0,0.0,0.0,0.0,0.0,0.0,0.0,0.0,0.0,0.0,0.0,0.0,0.0,0.0,0.0,0.0,0.0,0.0,0.0,0.0,0.0,0.0,0.0,0.0,0.0,0.0,0.0,0.0,0.0,0.0,0.0,0.0,0.0,0.0,0.0,0.0,0.0,0.0,0.0,0.0,0.0,0.0,0.0,0.0,0.0,0.0,0.0,0.0,0.0,0.0,0.0,0.0,0.0,0.0,0.0,0.0,0.0,0.0,0.0,0.0,0.0,0.0,0.0,0.0,0.0,0.0,0.0,0.0,0.0,0.0,0.0,0.0,0.0,0.0,0.0,0.0,0.0,0.0,0.0,0.0,0.0,0.0,0.0,0.0,0.0,0.0,0.0,0.0,0.0,0.0,0.0,0.0,0.0,0.0,0.0,0.0,0.0,0.0,0.0,0.0,0.0,0.0,0.0,0.0,0.0,0.0,0.0,0.0,0.0,0.0,0.0,0.0,0.0,0.0,0.0,0.0,0.0,0.0,0.0,0.0,0.0,0.0,0.0,0.0,0.0,0.0,0.0,0.0,0.0,0.0,0.0,0.0,0.0,0.0,0.0,0.0,0.0,0.0,0.0,0.0,0.0,0.0,0.0,0.0,0.0,0.0,0.0,0.0,0.0,0.0,0.0,0.0,0.0,0.0,0.0,0.0,0.0,0.0,0.0,0.0,0.0,0.0,0.0,0.0,0.0,0.0,0.0,0.0,0.0,0.0,0.0,0.0,0.0,0.0,0.0,0.0,0.0,0.0,0.0,0.0,0.0,0.0,0.0,0.0,0.0,0.0,0.0,0.0,0.0,0.0,0.0,0.0,0.0,0.0,0.0,0.0,0.0,0.0,0.0,0.0,0.0,0.0,0.0,0.0,0.0,0.0,0.0,0.0,0.0,0.0,0.0,0.0,0.0,0.0,0.0,0.0,0.0,0.0,0.0,0.0,0.0,0.0,0.0,0.0,0.0,0.0,0.0,0.0,0.0,0.0,0.0,0.0,0.0,0.0,0.0,0.0,0.0,0.0,0.0,0.0,0.0,0.0,0.0,0.0,0.0,0.0,0.0,0.0,0.0,0.0,0.0,0.0,0.0,0.0,0.0,0.0,0.0,0.0,0.0,0.0,0.0,0.0,0.0,0.0,0.0,0.0,0.0,0.0,0.0,0.0,0.0,0.0,0.0,0.0,0.0,0.0,0.0,0.0,0.0,0.0,0.0,0.0,0.0,0.0,0.0,0.0,0.0,0.0,0.0,0.0,0.0,0.0,0.0,0.0,0.0,0.0,0.0,0.0,0.0,0.0,0.0,0.0,0.0,0.0,0.0,0.0,0.0,0.0,0.0,0.0,0.0,0.0,0.0,0.0,0.0,0.0,0.0,0.0,0.0,0.0,0.0,0.0,0.0,0.0,0.0,0.0,0.0,0.0,0.0,0.0,0.0,0.0,0.0,0.0,0.0,0.0,0.0,0.0,0.0,0.0,0.0,0.0,0.0,0.0,0.0,0.0,0.0,0.0,0.0,0.0,0.0,0.0,0.0,0.0,0.0,0.0,0.0,0.0,0.0,0.0,0.0,0.0,0.0,0.0,0.0,0.0,0.0,0.0,0.0,0.0,0.0,0.0,0.0,0.0,0.0,0.0,0.0,0.0,0.0,0.0,0.0,0.0,0.0,0.0,0.0,0.0,0.0,0.0,0.0,0.0,0.0,0.0,0.0,0.0,0.0,0.0,0.0,0.0,0.0,0.0,0.0,0.0,0.0,0.0,0.0,0.0,0.0,0.0,0.0,0.0,0.0,0.0,0.0,0.0,0.0,0.0,0.0,0.0,0.0,0.0,0.0,0.0,0.0,0.0,0.0,0.0,0.0,0.0,0.0,0.0,0.0,0.0,0.0,0.0,0.0,0.0,0.0,0.0,0.0,0.0,0.0,0.0,0.0,0.0,0.0,0.0,0.0,0.0,0.0,0.0,0.0,0.0,0.0,0.0,0.0,0.0,0.0,0.0,0.0,0.0,0.0,0.0,0.0,0.0,0.0,0.0,0.0,0.0,0.0,0.0,0.0,0.0,0.0,0.0,0.0,0.0,0.0,0.0,0.0,0.0,0.0,0.0,0.0,0.0,0.0,0.0,0.0,0.0,0.0,0.0,0.0,0.0,0.0,0.0,0.0,0.0,0.0,0.0,0.0,0.0,0.0,0.0,0.0,0.0,0.0,0.0,0.0,0.0,0.0,0.0,0.0,0.0,0.0,0.0,0.0,0.0,0.0,0.0,0.0,0.0,0.0,0.0,0.0,0.0,0.0,0.0,0.0,0.0,0.0,0.0,0.0,0.0,0.0,0.0,0.0,0.0,0.0,0.0,0.0,0.0,0.0,0.0,0.0,0.0,0.0,0.0,0.0,0.0,0.0,0.0,0.0,0.0,0.0,0.0,0.0,0.0,0.0,0.0,0.0,0.0,0.0,0.0,0.0,0.0,0.0,0.0,0.0,0.0,0.0,0.0,0.0,0.0,0.0,0.0,0.0,0.0,0.0,0.0,0.0,0.0,0.0,0.0,0.0,0.0,0.0,0.0,0.0,0.0,0.0,0.0,0.0,0.0,0.0,0.0,0.0,0.0,0.0,0.0,0.0,0.0,0.0,0.0,0.0,0.0,0.0,0.0,0.0,0.0,0.0,0.0,0.0,0.0,0.0,0.0,0.0,0.0,0.0,0.0,0.0,0.0,0.0,0.0,0.0,0.0,0.0,0.0,0.0,0.0,0.0,0.0,0.0,0.0,0.0,0.0,0.0,0.0,0.0,0.0,0.0,0.0,0.0,0.0,0.0,0.0,0.0,0.0,0.0,0.0,0.0,0.0,0.0,0.0,0.0,0.0,0.0,0.0,0.0,0.0,0.0,0.0,0.0,0.0,0.0,0.0,0.0,0.0,0.0,0.0,0.0,0.0,0.0,0.0,0.0,0.0,0.0,0.0,0.0,0.0,0.0,0.0,0.0,0.0,0.0,0.0,0.0,0.0,0.0,0.0,0.0,0.0,0.0,0.0,0.0,0.0,0.0,0.0,0.0,0.0,0.0,0.0,0.0,0.0,0.0,0.0,0.0,0.0,0.0,0.0,0.0,0.0,0.0,0.0,0.0,0.0,0.0,0.0,0.0,0.0,0.0,0.0,0.0,0.0,0.0,0.0,0.0,0.0,0.0,0.0,0.0,0.0,0.0,0.0,0.0,0.0,0.0,0.0,0.0,0.0,0.0,0.0,0.0,0.0,0.0,0.0,0.0,0.0,0.0,0.0,0.0,0.0,0.0,0.0,0.0,0.0,0.0,0.0,0.0,0.0,0.0,0.0,0.0,0.0,0.0,0.0,0.0,0.0,0.0,0.0,0.0,0.0,0.0,0.0,0.0,0.0,0.0,0.0,0.0,0.0,0.0,0.0,0.0,0.0,0.0,0.0,0.0,0.0,0.0,0.0,0.0,0.0,0.0,0.0,0.0,0.0,0.0,0.0,0.0,0.0,0.0,0.0,0.0,0.0,0.0,0.0,0.0,0.0,0.0,0.0,0.0,0.0,0.0,0.0,0.0,0.0,0.0,0.0,0.0,0.0,0.0,0.0,0.0,0.0,0.0,0.0,0.0,0.0,0.0,0.0,0.0,0.0,0.0,0.0,0.0,0.0,0.0,0.0,0.0,0.0,0.0,0.0,0.0,0.0,0.0,0.0,0.0,0.0,0.0,0.0,0.0,0.0,0.0,0.0,0.0,0.0,0.0,0.0,0.0,0.0,0.0,0.0,0.0,0.0,0.0,0.0,0.0,0.0,0.0,0.0,0.0,0.0,0.0,0.0,0.0,0.0,0.0,0.0,0.0,0.0,0.0,0.0,0.0,0.0,0.0,0.0,0.0,0.0,0.0,0.0,0.0,0.0,0.0,0.0,0.0,0.0,0.0,0.0,0.0,0.0,0.0,0.0,0.0,0.0,0.0,0.0,0.0,0.0,0.0,0.0,0.0,0.0,0.0,0.0,0.0,0.0,0.0,0.0,0.0,0.0,0.0,0.0,0.0,0.0,0.0,0.0,0.0,0.0,0.0,0.0,0.0,0.0,0.0,0.0,0.0,0.0,0.0,0.0,0.0,0.0,0.0,0.0,0.0,0.0,0.0,0.0,0.0,0.0,0.0,0.0,0.0,0.0,0.0,0.0,0.0,0.0,0.0,0.0,0.0,0.0,0.0,0.0,0.0,0.0,0.0,0.0,0.0,0.0,0.0,0.0,0.0,0.0,0.0,0.0,0.0,0.0,0.0,0.0,0.0,0.0,0.0,0.0,0.0,0.0,0.0,0.0,0.0,0.0,0.0,0.0,0.0,0.0,0.0,0.0,0.0,0.0,0.0,0.0,0.0,0.0,0.0,0.0,0.0,0.0,0.0,0.0,0.0,0.0,0.0,0.0,0.0,0.0,0.0,0.0,0.0,0.0,0.0,0.0,0.0,0.0,0.0,0.0,0.0,0.0,0.0,0.0,0.0,0.0,0.0,0.0,0.0,0.0,0.0,0.0,0.0,0.0,0.0,0.0,0.0,0.0,0.0,0.0,0.0,0.0,0.0,0.0,0.0,0.0,0.0,0.0,0.0,0.0,0.0,0.0,0.0,0.0,0.0,0.0,0.0,0.0,0.0,0.0,0.0,0.0,0.0,0.0,0.0,0.0,0.0,0.0,0.0,0.0,0.0,0.0,0.0,0.0,0.0,0.0,0.0,0.0,0.0,0.0,0.0,0.0,0.0,0.0,0.0,0.0,0.0,0.0,0.0,0.0,0.0,0.0,0.0,0.0,0.0,0.0,0.0,0.0,0.0,0.0,0.0,0.0,0.0,0.0,0.0,0.0,0.0,0.0,0.0,0.0,0.0,0.0,0.0,0.0,0.0,0.0,0.0,0.0,0.0,0.0,0.0,0.0,0.0,0.0,0.0,0.0,0.0,0.0,0.0,0.0,0.0,0.0,0.0,0.0,0.0,0.0,0.0,0.0,0.0,0.0,0.0,0.0,0.0,0.0,0.0,0.0,0.0,0.0,0.0,0.0,0.0,1.961,0.0,0.0,0.0,0.0,0.0,0.0,0.0,0.0,0.0,0.0,0.0,0.0,0.0,0.0,0.0,0.0,0.0,0.0,0.0,0.0,0.0,0.0,0.0,0.0,0.0,0.0,0.0,0.0,0.0,0.0,0.0,0.0,0.0,0.0,0.0,0.0,0.0,0.0,0.0,0.0,0.0,0.0,0.0,0.0,0.0,0.0,0.0,0.0,0.0,0.0,0.0,0.0,0.0,0.0,0.0,0.0,0.0,0.0,0.0,0.0,0.0,0.0,0.0,0.0,0.0,0.0,0.0,0.0,0.0,0.0,0.0,0.0,0.0,0.0,0.0,0.0,0.0,0.0,0.0,0.0,0.0,0.0,0.0,0.0,0.0,0.0,0.0,0.0,0.0,0.0,0.0,0.0,0.0,0.0,0.0,0.0,0.0,0.0,0.0,0.0,0.0,0.0,0.0,0.0,0.0,0.0,0.0,0.0,0.0,0.0,0.0,0.0,0.0,0.0,0.0,0.0,2.0334,0.0,0.0,0.0,0.0,0.0,0.0,0.0,0.0,0.0,0.0,0.0,0.0,0.0,0.0,0.0,0.0,0.0,0.0,0.0,0.0,0.0,0.0,0.0,0.0,0.0,0.0,0.0,0.0,0.0,0.0,0.0,0.0,0.0,0.0,0.0,0.0,0.0,0.0,0.0,0.0,0.0,0.0,0.0,0.0,0.0,0.0,0.0,0.0,0.0,0.0,0.0,0.0,0.0,0.0,0.0,0.0,0.0,0.0,0.0,0.0,0.0,0.0,0.0,0.0,0.0,0.0,0.0,0.0,0.0,0.0,0.0,0.0,0.0,0.0,0.0,0.0,0.0,0.0,0.0,0.0,0.0,0.0,0.0,0.0,0.0,0.0,0.0,0.0,0.0,0.0,0.0,0.0,0.0,0.0,0.0,0.0,0.0,0.0,0.0,0.0,0.0,0.0,0.0,0.0,0.0,0.0,0.0,0.0,2.4025,2.4324,2.467,2.467,2.5004,2.539,2.2831,2.1592,2.1389,2.1079,0.0,0.0,0.0,0.0,0.0,0.0,0.0,0.0,0.0,0.0,0.0,0.0,0.0,0.0,0.0,0.0,0.0,0.0,0.0,0.0,0.0,0.0,0.0,0.0,0.0,0.0,0.0,0.0,0.0,0.0,0.0,0.0,0.0,0.0,0.0,0.0,0.0,0.0,2.036,2.0803,2.0954,2.0775,1.9659,0.0,0.0,0.0,0.0,0.0,0.0,0.0,0.0,0.0,0.0,0.0,0.0,0.0,0.0,0.0,0.0,0.0,0.0,0.0,0.0,0.0,0.0,0.0,0.0,0.0,0.0,0.0,0.0,0.0,0.0,0.0,0.0,0.0,0.0,0.0,0.0,0.0,0.0,0.0,0.0,0.0,0.0,0.0,2.3083,2.3541,0.0,0.0,0.0,0.0,0.0,0.0,0.0,0.0,0.0,0.0,0.0,0.0,0.0,2.3772,2.5391,2.5871,2.5968,2.5647,2.6163,2.6175,2.5793,2.5793,2.6183,2.6827,2.6422,0.0,2.4512,2.356,0.0,0.0,0.0,0.0,0.0,0.0,0.0,0.0,0.0,0.0,0.0,0.0,0.0,0.0,0.0,0.0,0.0,0.0,0.0,0.0,0.0,0.0,0.0,0.0,0.0,0.0,0.0,0.0,0.0,0.0,0.0,0.0,0.0,0.0,0.0,0.0,2.0447,2.1237,2.1626,2.2046,2.2524,2.295,2.2382,2.1695,2.0891,2.006,0.0,0.0,0.0,0.0,0.0,0.0,0.0,0.0,0.0,0.0,0.0,0.0,0.0,0.0,0.0,0.0,0.0,0.0,0.0,0.0,0.0,0.0,0.0,0.0,0.0,0.0,0.0,0.0,0.0,0.0,0.0,0.0,0.0,0.0,0.0,0.0,0.0,0.0,0.0,2.3194,2.3583,2.3218,2.3291,2.3011,0.0,0.0,0.0,0.0,0.0,0.0,0.0,0.0,0.0,2.4423,2.4472,2.5114,2.6447,2.6765,2.711,2.7531,2.7828,2.8259,2.8771,2.8771,2.9191,2.9896,2.9598,2.9141,2.8476,2.6455,2.5181,2.4511,0.0,0.0,0.0,0.0,2.5102,2.5395,0.0,0.0,0.0,0.0,0.0,0.0,0.0,0.0,0.0,0.0,0.0,0.0,0.0,0.0,0.0,1.9039,0.0,0.0,0.0,0.0,0.0,0.0,0.0,0.0,0.0,0.0,0.0,0.0,2.1993,2.2804,2.3438,2.3709,2.4277,2.5018,2.498,2.3891,2.2136,2.1604,2.1808,0.0,0.0,0.0,0.0,0.0,0.0,0.0,0.0,0.0,0.0,0.0,0.0,0.0,0.0,0.0,0.0,0.0,0.0,0.0,0.0,0.0,0.0,0.0,0.0,0.0,0.0,0.0,0.0,0.0,0.0,0.0,0.0,0.0,0.0,0.0,0.0,0.0,0.0,2.3944,2.43,2.3218,2.4288,2.4456,0.0,0.0,0.0,0.0,0.0,0.0,2.4305,2.433,2.4888,2.6117,2.6166,2.6749,2.794,2.8101,2.855,2.9373,2.9555,3.0125,3.1104,3.1185,3.1636,3.2371,3.1968,3.1812,3.1669,2.909,2.7522,2.6742,2.6567,2.6425,2.6385,2.6961,2.7315,2.7513,0.0,0.0,0.0,0.0,0.0,0.0,0.0,0.0,0.0,0.0,0.0,0.0,0.0,0.0,1.9188,1.9188,1.9209,1.9243,0.0,0.0,0.0,0.0,0.0,0.0,0.0,0.0,0.0,2.4087,2.4011,2.4777,2.6301,2.6194,2.6417,2.6943,2.6739,2.6253,2.5491,2.413,2.4189,2.4982,0.0,0.0,0.0,0.0,0.0,0.0,0.0,0.0,0.0,0.0,0.0,0.0,0.0,0.0,0.0,0.0,0.0,0.0,0.0,0.0,0.0,0.0,0.0,0.0,0.0,0.0,0.0,0.0,0.0,0.0,0.0,0.0,0.0,0.0,0.0,0.0,0.0,0.0,0.0,2.4247,2.6093,0.0,0.0,0.0,0.0,2.5253,2.5713,2.6118,2.6327,2.6339,2.708,2.8675,2.8725,2.9502,3.116,3.1185,3.121,3.126,3.1473,3.1602,3.1679,3.1927,3.2434,3.3143,3.3115,3.3192,3.3245,3.1172,3.0157,2.9911,3.02,2.9766,2.9127,3.0028,2.9987,2.9464,0.0,0.0,0.0,0.0,0.0,0.0,0.0,0.0,0.0,0.0,0.0,0.0,0.0,1.9445,1.9981,2.0276,2.0771,2.0956,2.0705,0.0,0.0,0.0,0.0,0.0,0.0,0.0,2.3443,2.4736,2.5268,2.6097,2.7218,2.7179,2.7559,2.8281,2.8594,2.8603,2.8243,2.6023,2.5005,2.4823,2.3537,2.3169,0.0,0.0,0.0,0.0,0.0,0.0,0.0,0.0,0.0,0.0,0.0,0.0,0.0,0.0,0.0,0.0,0.0,0.0,0.0,0.0,0.0,0.0,0.0,0.0,0.0,0.0,0.0,0.0,0.0,0.0,0.0,0.0,0.0,0.0,0.0,0.0,0.0,2.627,2.754,0.0,2.6367,2.6579,2.6914,2.7135,2.7612,2.8287,2.9101,2.9139,2.9553,3.0482,3.052,3.0796,3.1386,3.1386,3.1386,3.1373,3.1603,3.1974,3.2493,3.2708,3.3227,3.3962,3.3962,3.4018,3.4003,3.3293,3.2454,3.1616,3.129,3.0971,3.0706,3.106,3.1047,3.0813,0.0,0.0,0.0,0.0,0.0,0.0,0.0,0.0,0.0,0.0,0.0,1.8778,1.9253,2.0271,2.101,2.1361,2.2114,2.236,2.1907,0.0,0.0,0.0,0.0,0.0,0.0,2.4012,2.5052,2.6137,2.674,2.7457,2.8322,2.8322,2.8753,2.9477,3.008,3.0331,3.0227,2.8435,2.7088,2.6021,2.5076,2.4707,2.4546,0.0,0.0,0.0,0.0,0.0,0.0,0.0,0.0,0.0,0.0,0.0,0.0,0.0,0.0,0.0,0.0,0.0,0.0,0.0,0.0,0.0,0.0,0.0,0.0,0.0,0.0,0.0,0.0,0.0,0.0,0.0,0.0,0.0,0.0,0.0,2.8398,2.7645,2.9026,2.9453,2.7984,2.8348,2.875,2.8938,2.9453,3.0093,3.0834,3.0871,3.1122,3.165,3.1675,3.1763,3.1951,3.1951,3.2117,3.2434,3.2385,3.2838,3.3711,3.3713,3.3997,3.4515,3.4549,3.4549,3.4515,3.4549,3.4072,3.327,3.2704,3.2367,3.2208,3.2411,3.2367,3.215,0.0,0.0,0.0,0.0,0.0,0.0,0.0,0.0,0.0,0.0,1.8568,1.9293,1.9512,2.1183,2.2316,2.2327,2.3033,2.3248,2.2661,2.221,0.0,0.0,0.0,0.0,2.5345,2.6468,2.7493,2.8451,2.8413,2.8923,2.9855,2.9855,3.0118,3.067,3.1185,3.1411,3.1386,3.1411,3.0482,2.8838,2.7091,2.6613,2.6859,0.0,0.0,0.0,0.0,0.0,0.0,0.0,0.0,0.0,0.0,0.0,0.0,0.0,0.0,0.0,0.0,0.0,0.0,0.0,0.0,0.0,0.0,0.0,0.0,0.0,0.0,0.0,0.0,0.0,0.0,0.0,0.0,0.0,2.665,2.8485,2.9453,2.836,3.0608,3.1399,2.9201,3.0495,3.1235,3.0733,3.1173,3.1461,3.1461,3.1461,3.17,3.2227,3.224,3.2503,3.3154,3.3154,3.3611,3.4454,3.3965,3.4293,3.5305,3.4897,3.4698,3.4698,3.4835,3.485,3.4731,3.4835,3.4902,3.4868,3.4534,3.407,3.3605,3.4182,3.4055,3.3463,0.0,0.0,0.0,0.0,0.0,0.0,0.0,0.0,0.0,0.0,1.8793,1.9439,2.0072,2.1435,2.2459,2.2772,2.3294,2.3544,2.3535,0.0,0.0,0.0,0.0,0.0,2.6519,2.7263,2.8164,2.9194,2.9194,2.9756,3.0828,3.0684,3.0909,3.1493,3.1833,3.1763,3.1411,3.1813,3.1499,3.0583,2.8849,2.7814,2.7172,0.0,0.0,0.0,0.0,0.0,0.0,0.0,0.0,0.0,0.0,0.0,0.0,0.0,0.0,0.0,0.0,0.0,0.0,0.0,0.0,0.0,0.0,0.0,0.0,0.0,0.0,0.0,0.0,0.0,0.0,0.0,0.0,2.89,2.8335,2.9804,3.0984,3.1072,3.2127,3.2441,3.1411,3.2102,3.2554,3.2416,3.2905,3.3206,3.3206,3.3206,3.3093,3.2842,3.2842,3.3318,3.4233,3.4275,3.4746,3.5708,3.529,3.5238,3.5502,3.5054,3.4835,3.4835,3.4902,3.4868,3.4835,3.4902,3.4902,3.4902,3.4802,3.4651,3.4534,3.4695,3.4651,3.4343,0.0,0.0,0.0,0.0,0.0,0.0,0.0,0.0,0.0,0.0,1.8821,1.955,2.0308,2.1995,2.3048,2.31,2.3929,2.432,2.404,0.0,0.0,0.0,0.0,2.6587,2.7579,2.8385,2.9099,2.9634,2.9891,3.0419,3.1214,3.1352,3.168,3.2145,3.2525,3.2475,3.2114,3.2441,3.2252,3.165,3.0683,2.9654,2.8662,2.8423,2.8185,2.7908,2.7444,2.7632,2.7971,2.714,0.0,0.0,0.0,0.0,0.0,0.0,0.0,0.0,0.0,0.0,0.0,0.0,0.0,0.0,0.0,0.0,0.0,0.0,0.0,0.0,0.0,0.0,0.0,0.0,2.9515,3.0846,3.0997,3.1838,3.2654,3.3194,3.3558,3.3633,3.3294,3.3571,3.3771,3.3771,3.406,3.4248,3.4248,3.4022,3.3759,3.3432,3.3323,3.3713,3.4705,3.4787,3.5494,3.6721,3.598,3.5798,3.6214,3.5375,3.5034,3.5034,3.5115,3.5115,3.5034,3.5115,3.5148,0.0,0.0,0.0,0.0,0.0,3.4563,3.4021,0.0,0.0,0.0,0.0,0.0,0.0,0.0,0.0,0.0,0.0,0.0,1.9554,2.0271,2.2543,2.3786,2.3258,2.4575,2.5073,0.0,0.0,0.0,2.646,2.718,2.7858,2.8569,2.9666,3.0144,3.0036,3.0567,3.1035,3.1485,3.1972,3.2429,3.28,3.3212,3.3351,3.3212,3.3149,3.2817,3.2403,3.234,3.1662,3.0658,3.0156,2.9616,2.895,2.7946,2.7921,2.8298,2.767,0.0,0.0,0.0,0.0,0.0,0.0,0.0,0.0,0.0,0.0,0.0,0.0,0.0,0.0,0.0,0.0,0.0,0.0,0.0,0.0,0.0,0.0,0.0,0.0,3.1348,3.2867,3.3935,3.4135,3.4311,3.4675,3.4731,3.4788,3.4726,3.4839,3.4876,3.4781,3.4831,3.4851,3.4726,0.0,0.0,0.0,0.0,3.3995,3.491,3.5183,3.6134,3.7701,3.6509,3.6351,3.708,3.5882,3.532,3.5261,3.5439,3.5392,3.5261,3.5439,3.5504,3.5472,3.5115,3.4968,3.4953,3.4879,3.4127,3.3155,0.0,0.0,0.0,0.0,0.0,0.0,0.0,0.0,0.0,1.8261,1.8916,1.9442,1.9882,2.2046,2.327,2.2788,2.3713,2.4343,0.0,0.0,2.6388,2.7261,2.8338,2.9174,2.9748,3.0464,3.1001,3.142,3.155,3.2098,3.3126,3.3027,3.3294,3.3795,3.3518,3.3609,3.3958,3.3343,3.3269,3.3533,3.3081,3.224,3.1223,3.1122,3.0746,3.0206,2.9553,2.9666,2.9967,2.895,2.9289,2.9955,2.89,0.0,0.0,0.0,0.0,0.0,0.0,0.0,0.0,0.0,0.0,0.0,0.0,0.0,0.0,0.0,0.0,0.0,0.0,0.0,0.0,3.0331,3.2591,3.4417,3.5094,3.5604,3.5592,3.4813,3.5069,3.5169,3.4718,3.5529,3.5855,3.537,3.5793,3.5655,3.4763,3.4805,3.4426,3.3503,3.4285,3.5183,3.6213,3.6919,3.7866,3.9017,0.0,0.0,3.7321,3.6559,3.5932,3.5439,3.5472,3.5472,3.5439,3.5472,3.5504,3.5504,3.5407,3.5359,3.5332,3.478,3.4407,3.4065,0.0,0.0,0.0,0.0,0.0,0.0,0.0,0.0,0.0,0.0,1.8263,1.8678,1.9634,2.1219,2.2079,2.1827,2.2974,0.0,0.0,2.5923,2.7263,2.8209,2.9164,3.0074,3.0936,3.0986,3.1405,3.2267,3.1941,3.2398,3.3587,3.3452,3.3628,3.4076,3.3725,3.3623,3.3748,3.3323,3.3395,3.3872,3.3608,3.3156,3.2591,3.2014,3.1474,3.0972,3.0696,3.0595,3.057,3.0269,3.0369,3.052,2.9916,2.939,2.8787,0.0,0.0,0.0,0.0,0.0,0.0,0.0,0.0,0.0,0.0,0.0,0.0,0.0,0.0,2.7457,0.0,0.0,3.1373,3.2491,3.4016,3.5328,3.6008,3.637,3.6285,3.5651,3.5793,3.5843,3.5567,3.6172,3.6386,3.5981,3.6335,3.618,3.5373,3.516,3.4749,3.4028,3.436,3.5196,3.6607,3.7088,3.7858,3.8901,3.8556,3.7883,3.6941,3.6626,3.6133,3.5504,3.5504,3.5504,3.5504,3.5504,3.5504,3.5504,3.5504,3.5504,3.5429,3.4758,3.4294,3.3874,0.0,0.0,0.0,0.0,0.0,0.0,0.0,0.0,0.0,0.0,0.0,1.7925,1.9308,2.0422,2.1108,0.0,0.0,0.0,0.0,2.6339,2.7988,2.9044,2.9865,3.0745,3.1733,3.142,3.1784,3.2868,3.2411,3.2672,3.3716,3.3716,3.3814,3.4034,3.3883,3.3773,3.3728,3.3525,3.3721,3.4211,3.411,3.3997,3.3796,3.2893,3.2127,3.1537,3.1436,3.1122,3.0834,3.1248,3.1185,3.0922,3.0922,3.0545,2.988,2.8762,2.8273,0.0,0.0,0.0,0.0,0.0,0.0,0.0,0.0,0.0,2.6728,2.7846,2.8524,2.9315,3.067,3.1942,3.3199,3.4557,3.537,3.6042,3.6705,3.6769,3.6722,3.6546,3.6499,3.6499,3.6546,3.6628,3.6675,3.6546,3.6675,3.6527,3.6006,3.5493,3.5066,3.4653,3.45,3.5128,3.6646,3.6972,3.7644,3.8586,3.8586,3.7913,3.6671,3.6671,3.6252,3.5504,3.5504,3.5504,3.5504,3.5504,3.5504,3.5504,3.5504,3.5504,3.5429,3.4758,3.4099,3.3395,0.0,0.0,0.0,0.0,0.0,0.0,0.0,0.0,0.0,0.0,0.0,0.0,0.0,0.0,0.0,0.0,0.0,0.0,2.4957,2.7062,2.8622,2.9407,3.0496,3.1229,3.1539,3.2006,3.2683,3.3496,3.343,3.3636,3.4027,3.4027,3.3927,3.3738,3.4035,3.4426,3.4908,3.4627,3.4806,3.527,3.4781,3.4336,3.3884,3.3759,3.3043,3.2051,3.1562,3.1348,3.1311,3.1373,3.1675,3.2039,3.2039,3.165,3.0997,2.9917,0.0,2.7959,2.7281,2.6914,2.6901,2.7783,2.7595,2.7744,0.0,0.0,2.9628,3.0708,3.1373,3.1813,3.2001,3.353,3.4838,3.5028,3.6111,3.6938,3.7049,3.7062,3.7062,3.7015,3.6815,3.6769,3.7015,3.6815,3.6769,3.7015,3.7062,3.6819,3.6301,3.5942,3.545,3.4857,3.5297,3.5963,3.6841,3.7668,3.8457,3.9305,3.9305,3.8601,3.73,3.73,3.6641,3.5504,3.5504,3.5504,3.5504,3.5504,3.5504,3.5504,3.5504,3.5504,3.5429,3.4758,3.4099,3.3395,0.0,0.0,0.0,0.0,0.0,0.0,0.0,0.0,0.0,0.0,0.0,0.0,0.0,0.0,0.0,0.0,0.0,0.0,2.4406,2.6629,2.8511,2.9783,3.0701,3.1561,3.2309,3.2219,3.2658,3.3685,3.3333,3.3408,3.3852,3.3852,3.399,3.4238,3.4221,3.4553,3.5098,3.4816,3.4994,3.5445,3.4906,3.4587,3.4311,3.3671,3.2918,3.2139,3.1587,3.0984,0.0,0.0,3.0884,3.0909,3.1537,3.0922,2.993,2.9829,2.8762,0.0,2.8134,2.7833,2.7695,0.0,2.9164,2.9541,3.0783,3.1135,3.1512,3.2629,3.3031,3.3426,3.4199,3.5028,3.5714,0.0,3.6721,3.7155,3.7307,3.7307,3.7284,3.7072,3.7101,3.7155,3.7108,3.7155,3.7155,3.7108,3.7261,3.7096,3.6515,3.6063,3.5595,3.5128,3.5033,3.5561,3.688,3.6849,3.7519,3.8826,3.8826,3.8138,3.6881,3.724,3.6701,3.5504,3.5504,3.5504,3.5504,3.5504,3.5504,3.5504,3.5504,3.5504,3.537,3.4307,3.3724,3.335,0.0,0.0,0.0,0.0,0.0,0.0,0.0,0.0,0.0,0.0,0.0,0.0,0.0,0.0,0.0,0.0,0.0,0.0,0.0,2.6034,2.8035,2.9694,3.0558,3.1516,3.258,3.2296,3.2669,3.3713,3.3328,3.3299,3.3598,3.3751,3.4058,3.4392,3.4508,3.4786,3.5203,3.516,3.5316,3.547,3.5069,3.4675,3.4173,3.3382,3.234,3.126,3.0846,3.0218,0.0,0.0,2.9528,2.9465,3.0231,2.988,2.9214,2.9478,2.8586,2.7682,2.8486,0.0,0.0,2.9955,3.0771,3.1436,3.1964,3.239,3.2993,3.4123,3.4394,3.4817,3.5889,3.6264,3.6529,3.7137,3.7261,3.74,3.7564,3.7468,3.7254,3.7006,3.7053,3.7078,3.7096,3.7309,3.7459,3.7307,3.7363,3.717,3.6728,3.6041,3.5557,3.5312,3.4711,3.521,3.688,3.6406,3.7026,3.8676,3.8482,3.7808,3.6746,3.6851,3.6372,3.5504,3.5504,3.5504,3.5504,3.5504,3.5504,3.5504,3.5504,3.5385,3.51,3.4128,3.3649,3.3335,0.0,0.0,0.0,0.0,0.0,0.0,0.0,0.0,0.0,0.0,0.0,0.0,0.0,0.0,0.0,0.0,0.0,0.0,0.0,2.5515,2.7253,2.8888,3.0018,3.0992,3.183,3.2311,3.294,3.3713,3.37,3.3573,3.3411,3.3956,3.4091,3.3947,3.5014,3.5458,3.5508,3.6081,3.6019,3.5495,3.5483,3.4562,3.3174,3.3093,3.1386,2.8988,2.8976,0.0,0.0,0.0,2.772,2.816,2.8197,2.8925,0.0,2.9076,2.8499,0.0,0.0,0.0,3.0005,3.1072,3.2177,3.3144,3.3696,3.3834,3.4161,3.5219,3.5663,3.6011,3.6582,3.7083,3.7433,3.7505,3.7716,3.7854,3.79,3.7403,3.7024,3.6998,3.6502,3.6384,0.0,3.7319,3.7598,3.7854,3.7364,3.7024,3.6998,3.594,3.5312,3.5299,3.4711,3.521,3.688,3.6866,3.7724,3.9343,3.8706,3.8033,3.7345,3.6118,3.5549,3.5504,3.5504,3.5504,3.5504,3.5504,3.5504,3.5504,3.5504,3.51,3.4533,3.4488,3.4038,3.3395,0.0,0.0,0.0,0.0,0.0,0.0,0.0,0.0,0.0,0.0,0.0,0.0,0.0,0.0,0.0,0.0,0.0,0.0,0.0,2.4272,2.602,2.7758,2.9264,3.0358,3.0992,3.1521,3.2104,3.2689,3.2689,3.2861,3.3197,3.3386,3.3633,3.3922,3.4286,3.4663,3.4969,3.519,3.5165,3.4893,3.4198,3.3571,3.2998,3.1863,3.0394,2.875,0.0,0.0,0.0,0.0,0.0,0.0,2.7031,0.0,0.0,2.757,0.0,0.0,0.0,0.0,3.1552,3.2465,3.372,3.4755,3.4909,3.5357,3.5848,3.6227,3.5489,3.4914,3.5436,3.5368,3.5426,3.5965,3.6757,3.7442,3.7848,3.773,3.7299,3.6502,3.658,0.0,0.0,0.0,0.0,3.7848,3.7351,3.6998,3.6998,3.6253,3.5665,3.5312,3.4711,3.521,3.688,3.6041,3.663,3.8721,3.7644,3.7015,3.6761,3.5908,3.5504,3.5504,3.5504,3.5504,3.5504,3.5504,3.5504,3.5504,3.5504,3.537,3.51,3.4668,3.4369,3.3978,0.0,0.0,0.0,0.0,0.0,0.0,0.0,0.0,0.0,0.0,0.0,0.0,0.0,0.0,0.0,0.0,0.0,0.0,0.0,0.0,2.4332,2.5902,2.726,2.8186,2.8737,2.9113,2.9792,3.0746,3.0947,3.1436,3.2202,3.2591,3.2955,3.3307,3.352,3.3809,3.4135,3.4135,3.3897,3.347,3.2754,3.2114,3.1474,3.0419,2.9189,0.0,0.0,0.0,0.0,0.0,0.0,0.0,0.0,0.0,0.0,0.0,0.0,0.0,0.0,3.1523,3.2611,3.3594,3.4804,3.5782,3.5775,3.6328,3.6748,3.6307,3.5271,3.4438,3.4314,3.4092,3.4035,3.4304,3.5168,3.6057,3.6867,3.6789,3.6593,3.6449,3.658,3.6397,0.0,0.0,0.0,3.7181,3.6907,3.6593,3.6397,3.6018,3.5561,3.4999,3.4593,3.521,3.688,3.5807,3.6099,3.7704,3.6881,3.6357,3.6118,3.5699,3.5504,3.5504,3.5504,3.5504,3.5504,3.5504,3.5504,3.5504,3.5504,3.5355,3.5115,3.4921,3.4532,3.3978,0.0,0.0,0.0,0.0,0.0,0.0,0.0,0.0,0.0,0.0,0.0,0.0,0.0,0.0,0.0,0.0,0.0,0.0,0.0,0.0,0.0,2.3411,2.4201,2.4825,2.5278,2.5498,2.6393,2.7985,2.8537,2.9389,3.0518,3.1521,3.2022,3.2114,3.2667,3.2948,3.2905,3.2905,3.2277,3.126,3.1235,3.0281,2.885,2.8813,0.0,0.0,0.0,0.0,0.0,0.0,0.0,0.0,0.0,0.0,0.0,0.0,0.0,3.0611,3.1176,3.2151,3.328,3.4409,3.5513,3.6321,3.6321,3.666,3.6711,3.5622,3.5015,3.4331,0.0,0.0,3.3247,3.2738,3.3234,3.4071,3.5221,3.492,3.5182,0.0,0.0,0.0,0.0,0.0,0.0,3.607,0.0,3.5874,3.5365,3.5338,3.5064,3.4463,3.4426,3.521,3.6838,3.623,3.6115,3.6432,3.6432,3.6118,3.5504,3.5504,3.5504,3.5504,3.5504,3.5504,3.5504,3.5504,3.5504,3.5504,3.5504,3.51,3.4638,3.5265,3.4696,3.3499,0.0,0.0,0.0,0.0,0.0,0.0,0.0,0.0,0.0,0.0,0.0,0.0,0.0,0.0,0.0,0.0,0.0,0.0,0.0,0.0,0.0,0.0,0.0,0.0,0.0,0.0,0.0,0.0,0.0,2.7977,2.9186,2.946,2.9888,3.0419,3.057,3.0541,3.0408,3.0408,3.0009,2.9336,0.0,2.8537,2.8273,0.0,0.0,0.0,0.0,0.0,0.0,0.0,0.0,0.0,0.0,0.0,2.8333,0.0,0.0,3.1694,3.2709,3.3814,3.4812,3.5365,3.6165,3.6728,3.6366,3.6206,3.5896,3.5161,3.3256,3.1656,0.0,0.0,0.0,3.1902,3.3639,0.0,3.641,3.6828,0.0,3.6998,0.0,3.6593,3.6149,3.5979,0.0,0.0,3.6109,3.6044,3.59,3.59,3.5639,3.509,3.4764,3.5109,3.6154,3.6273,3.6166,3.5744,3.5744,3.5669,3.5504,3.5504,3.5504,3.5504,3.5504,3.5504,3.5504,3.5504,3.5504,3.5504,3.5504,3.54,3.5265,3.5444,3.5295,3.4891,0.0,0.0,0.0,0.0,0.0,0.0,0.0,0.0,0.0,0.0,0.0,0.0,0.0,0.0,0.0,0.0,0.0,0.0,0.0,0.0,0.0,0.0,0.0,0.0,0.0,0.0,0.0,0.0,0.0,0.0,0.0,2.7295,2.7729,2.8138,2.8138,2.8064,2.7978,0.0,0.0,0.0,0.0,0.0,0.0,0.0,0.0,0.0,0.0,0.0,0.0,0.0,0.0,2.6773,2.7423,2.8543,2.9818,3.0889,0.0,3.2751,3.3417,3.4241,3.4995,3.5466,3.5931,3.6165,3.5945,3.5699,3.5254,3.4163,3.2253,0.0,0.0,0.0,0.0,0.0,0.0,0.0,3.5665,3.6384,3.692,0.0,3.7403,0.0,3.6554,3.6502,3.6397,0.0,3.6345,3.6279,3.577,3.5979,3.5903,3.5495,3.4955,3.4981,3.5585,3.6192,3.6148,3.5504,3.5504,3.5504,3.5504,3.5504,3.5504,3.5504,0.0,3.5504,3.5504,3.5504,3.5504,3.5504,3.5504,3.5504,3.5504,3.5504,3.531,3.4996,0.0,0.0,0.0,0.0,0.0,0.0,0.0,0.0,0.0,0.0,0.0,0.0,0.0,0.0,0.0,0.0,0.0,0.0,0.0,0.0,0.0,0.0,0.0,0.0,0.0,0.0,0.0,0.0,0.0,0.0,0.0,0.0,0.0,0.0,0.0,0.0,0.0,0.0,0.0,0.0,0.0,0.0,0.0,0.0,0.0,0.0,0.0,0.0,0.0,0.0,2.7551,2.7883,2.8516,3.0024,3.1551,3.1668,3.2564,3.3519,3.3597,3.4003,3.4499,3.51,3.5191,3.5182,3.5182,3.5064,3.4502,3.2908,0.0,3.0451,2.9493,2.931,2.9362,2.9519,0.0,3.2633,3.4384,3.5142,3.6123,3.7717,3.79,3.7691,3.7168,3.7116,3.6867,3.6266,3.6711,3.6541,3.5456,3.5978,3.6135,3.5785,3.5198,3.5017,3.5232,3.5993,3.6073,3.5504,3.5504,3.5504,3.5504,3.5504,3.5504,3.5504,3.5504,3.5504,3.5504,3.5504,3.5504,3.5504,3.5504,3.5504,3.5504,3.5504,3.513,3.4638,0.0,0.0,0.0,0.0,0.0,0.0,0.0,0.0,0.0,0.0,1.5818,0.0,0.0,0.0,0.0,0.0,0.0,0.0,0.0,0.0,0.0,0.0,0.0,0.0,0.0,0.0,0.0,0.0,0.0,0.0,0.0,0.0,0.0,0.0,0.0,0.0,0.0,0.0,0.0,0.0,0.0,0.0,0.0,0.0,0.0,0.0,0.0,0.0,0.0,0.0,2.8273,2.89,3.0074,3.1041,3.182,3.2455,3.2818,3.3104,3.354,3.3901,3.4302,3.483,3.4738,3.4554,3.4554,3.3822,0.0,0.0,3.0699,2.9545,2.9349,2.931,2.9624,3.0529,0.0,0.0,0.0,0.0,3.6998,0.0,0.0,0.0,0.0,0.0,0.0,0.0,3.6946,3.6698,3.6005,3.6737,3.6866,3.6141,3.5991,3.5772,3.5439,3.5603,3.5624,3.5504,3.5504,3.5504,3.5504,3.5504,3.5504,3.5504,3.5504,0.0,3.5504,3.5504,3.5504,3.5504,3.5504,3.5504,3.5504,3.5504,3.5429,3.5325,0.0,0.0,0.0,0.0,0.0,0.0,0.0,0.0,0.0,1.6567,1.6468,1.6333,0.0,0.0,0.0,0.0,0.0,0.0,0.0,0.0,0.0,0.0,0.0,0.0,0.0,0.0,0.0,0.0,0.0,0.0,0.0,0.0,0.0,0.0,0.0,0.0,0.0,0.0,0.0,0.0,0.0,0.0,0.0,0.0,0.0,0.0,0.0,0.0,0.0,0.0,2.8285,2.875,3.0273,3.1415,3.2219,3.2622,3.3245,3.379,3.3738,3.4113,3.4593,3.4865,3.4451,3.3979,3.3979,0.0,0.0,0.0,3.0268,2.931,2.931,0.0,0.0,0.0,0.0,0.0,0.0,0.0,0.0,0.0,0.0,0.0,0.0,0.0,3.7181,3.658,3.6541,3.6485,3.6308,3.7262,3.7341,3.6244,3.6611,3.6403,3.5519,3.5504,3.5504,3.5504,3.5504,3.5504,3.5504,3.5504,3.5504,3.5504,3.5504,3.5504,3.5504,3.5504,3.5504,3.5504,3.5504,3.5504,3.5504,3.5504,3.528,3.5026,0.0,0.0,0.0,0.0,0.0,0.0,0.0,1.5355,1.5838,1.7006,1.7278,1.7301,1.7145,1.666,1.6575,0.0,0.0,0.0,0.0,0.0,0.0,0.0,0.0,0.0,0.0,0.0,0.0,0.0,0.0,0.0,0.0,0.0,0.0,0.0,0.0,0.0,0.0,0.0,0.0,0.0,0.0,0.0,0.0,0.0,0.0,0.0,0.0,0.0,0.0,0.0,2.8021,2.8185,2.9616,3.1029,3.219,3.2304,3.3178,3.4032,3.3688,3.4059,3.4564,3.4607,3.3991,3.3364,3.3404,3.2489,0.0,0.0,3.0176,2.9431,2.9301,0.0,2.947,0.0,0.0,0.0,0.0,0.0,0.0,0.0,0.0,0.0,0.0,0.0,0.0,3.5979,3.6141,3.6414,3.677,3.7664,3.7681,3.6514,3.708,3.6791,3.5519,3.5504,3.5504,3.5504,3.5504,3.5504,3.5504,3.5504,3.5504,3.5504,3.5504,3.5504,3.5504,3.5504,3.5504,3.5504,3.5504,3.5504,3.5504,3.5504,3.516,3.4771,0.0,0.0,0.0,0.0,0.0,0.0,0.0,1.5762,1.6351,1.7811,1.8104,1.8261,1.8397,1.7744,1.7347,0.0,0.0,0.0,0.0,0.0,0.0,0.0,0.0,0.0,0.0,0.0,0.0,0.0,0.0,0.0,0.0,0.0,0.0,0.0,0.0,0.0,0.0,0.0,0.0,0.0,0.0,0.0,0.0,0.0,0.0,0.0,0.0,0.0,0.0,0.0,0.0,2.7469,2.8134,2.9453,3.0899,3.1364,0.0,0.0,3.3028,3.3351,3.359,3.376,3.3176,3.2551,3.2737,0.0,0.0,3.0999,3.049,2.9902,2.9379,2.931,2.947,0.0,0.0,3.1901,0.0,0.0,0.0,0.0,0.0,0.0,0.0,0.0,0.0,3.5456,3.628,3.7091,3.7662,3.8026,3.7938,3.7312,3.737,3.6791,3.5519,3.5504,3.5504,3.5504,3.5504,3.5504,3.5504,3.5504,3.5504,3.5504,3.5504,3.5504,0.0,3.5504,3.5504,3.5504,3.5504,3.5504,3.5504,3.5504,3.5459,3.5429,0.0,0.0,0.0,0.0,0.0,0.0,0.0,1.5372,1.6025,1.7711,1.8086,1.8445,1.9136,1.8815,1.8247,0.0,0.0,0.0,0.0,0.0,0.0,0.0,0.0,0.0,0.0,0.0,0.0,0.0,0.0,0.0,0.0,0.0,0.0,0.0,0.0,0.0,0.0,0.0,0.0,0.0,0.0,0.0,0.0,0.0,0.0,0.0,0.0,0.0,0.0,0.0,0.0,0.0,2.7544,2.8298,0.0,0.0,3.1273,3.2265,3.2491,3.3215,3.3817,3.3602,3.2851,3.2273,3.246,0.0,3.0849,3.0986,3.0255,2.9653,2.9771,2.9209,2.9039,0.0,0.0,0.0,0.0,0.0,0.0,0.0,0.0,0.0,0.0,0.0,3.5841,3.5583,3.6379,3.724,3.8002,3.8215,3.8044,3.74,3.7045,3.6417,3.5519,3.5504,3.5504,3.5504,3.5504,3.5504,3.5504,3.5504,3.5504,3.5504,3.5504,3.5504,0.0,3.5504,3.5504,3.5504,3.5504,3.5504,3.5504,3.5504,3.5504,3.5504,0.0,0.0,0.0,0.0,0.0,0.0,1.5386,1.556,1.6149,1.7606,1.8011,1.8483,1.9258,1.9136,1.8825,1.8279,0.0,0.0,0.0,0.0,0.0,0.0,0.0,0.0,0.0,0.0,0.0,0.0,0.0,0.0,0.0,0.0,0.0,0.0,0.0,0.0,0.0,0.0,0.0,0.0,0.0,0.0,0.0,0.0,0.0,0.0,0.0,0.0,0.0,0.0,0.0,0.0,0.0,0.0,0.0,0.0,3.0696,3.2001,3.2177,3.3033,3.3768,3.3297,3.2612,3.2074,0.0,0.0,3.0849,3.0986,3.0202,2.9601,2.9836,2.9052,2.8647,0.0,0.0,3.0244,0.0,0.0,0.0,0.0,0.0,3.5025,0.0,3.5025,3.5332,3.6004,3.6582,3.7372,3.8501,3.8288,3.7883,3.7419,3.6985,3.6357,3.5519,3.5504,3.5504,3.5504,3.5504,3.5504,3.5504,3.5504,3.5504,3.5504,3.5504,3.5504,0.0,3.5504,3.5504,3.5504,3.5504,3.5504,3.5504,3.5504,3.5504,3.5504,0.0,0.0,0.0,0.0,0.0,0.0,0.0,1.6642,1.7107,1.7718,1.8154,1.8471,1.8692,1.8521,1.8864,2.0073,0.0,0.0,0.0,0.0,0.0,0.0,0.0,0.0,0.0,0.0,0.0,2.2695,2.2894,0.0,0.0,0.0,0.0,0.0,0.0,0.0,0.0,0.0,0.0,0.0,0.0,0.0,0.0,0.0,0.0,0.0,0.0,0.0,0.0,0.0,0.0,0.0,0.0,0.0,0.0,0.0,3.0105,3.1524,3.2064,3.2641,3.3041,3.2672,3.2306,3.1893,0.0,0.0,3.0986,3.0986,3.0529,2.9918,2.9392,2.8826,2.842,2.8433,0.0,0.0,0.0,0.0,0.0,0.0,0.0,0.0,3.441,3.441,3.5101,3.6763,3.6894,0.0,3.9301,3.8153,3.7419,3.7404,3.7404,3.6791,3.5519,3.5504,3.5504,3.5504,3.5504,3.5504,3.5504,3.5504,3.5504,3.5504,3.5504,3.5504,0.0,3.5504,3.5504,3.5504,3.5504,3.5504,3.5504,3.5504,3.5504,3.5504,0.0,0.0,0.0,0.0,0.0,0.0,0.0,1.5991,1.6355,1.7079,1.7528,1.8031,1.8625,1.887,1.9347,2.0211,0.0,0.0,0.0,0.0,0.0,0.0,0.0,0.0,0.0,0.0,2.215,2.3449,2.42,2.4662,2.4819,0.0,0.0,0.0,0.0,0.0,0.0,0.0,0.0,0.0,0.0,0.0,0.0,0.0,0.0,0.0,0.0,0.0,0.0,0.0,0.0,0.0,0.0,0.0,0.0,0.0,0.0,0.0,3.0859,3.1512,3.1917,3.1823,3.1491,3.1274,3.1279,0.0,3.0849,3.0986,3.0529,3.0048,2.9902,2.9052,2.8647,2.9457,0.0,0.0,0.0,0.0,0.0,0.0,0.0,0.0,0.0,0.0,3.5101,3.6763,3.688,3.7639,3.9301,3.8571,3.7868,3.7419,3.6567,3.5908,3.5504,3.5504,3.5504,3.5504,3.5504,3.5504,3.5504,3.5504,3.5504,3.5504,3.5504,3.5504,3.5504,3.5504,3.5504,3.5459,3.4996,3.4833,3.4833,3.4833,3.4833,3.4833,0.0,0.0,0.0,0.0,0.0,0.0,0.0,1.6056,1.6276,1.6642,1.7092,1.7703,1.8487,1.8814,1.9456,2.0657,0.0,0.0,0.0,0.0,0.0,0.0,0.0,0.0,0.0,2.1252,2.24,2.37,2.4787,2.5312,2.5312,2.5516,2.5216,0.0,0.0,0.0,0.0,0.0,0.0,0.0,0.0,0.0,2.6273,0.0,0.0,0.0,0.0,0.0,0.0,0.0,0.0,0.0,0.0,0.0,0.0,0.0,0.0,0.0,0.0,3.0997,3.1348,3.1148,3.1046,0.0,0.0,0.0,3.0849,3.0986,3.0529,3.0035,2.9849,2.9026,2.8556,2.903,0.0,0.0,0.0,0.0,0.0,0.0,0.0,0.0,0.0,3.428,3.5101,3.6763,3.688,3.7639,3.9301,3.8527,3.7838,3.7419,3.6417,3.5759,3.5504,3.5504,3.5504,3.5504,3.5504,3.5504,3.5504,3.5504,3.5504,3.5504,3.5504,3.5504,0.0,3.5504,3.5504,3.5459,3.504,3.4728,3.4503,3.4503,3.4503,3.4474,0.0,0.0,0.0,0.0,0.0,0.0,0.0,0.0,0.0,0.0,1.6875,1.7509,1.8276,1.8423,1.9262,0.0,0.0,0.0,0.0,0.0,0.0,0.0,0.0,0.0,0.0,2.1007,2.25,2.3618,2.4779,2.5384,2.5432,2.5925,2.5612,2.4592,2.4592,2.458,2.4544,2.4508,2.4843,2.5408,2.5865,2.5769,0.0,0.0,0.0,0.0,0.0,0.0,0.0,0.0,0.0,0.0,0.0,0.0,0.0,0.0,0.0,0.0,0.0,0.0,0.0,0.0,0.0,0.0,0.0,0.0,0.0,3.0934,3.0503,2.9931,2.9379,2.8852,2.8255,2.7646,0.0,0.0,0.0,0.0,0.0,0.0,3.279,0.0,3.3535,3.4084,3.5101,3.6763,3.6838,3.7567,3.9226,3.8078,3.7345,3.7345,3.6746,3.6118,3.5504,3.5504,3.5504,3.5504,3.5504,3.5504,3.5504,3.5504,3.5504,0.0,3.5504,3.5504,3.5504,3.5504,3.5504,3.5504,3.5444,3.504,3.4503,3.4459,3.4444,3.4339,0.0,0.0,0.0,0.0,0.0,0.0,0.0,0.0,0.0,0.0,1.7164,1.7625,1.8135,1.8716,1.9421,0.0,0.0,0.0,0.0,0.0,0.0,0.0,0.0,0.0,0.0,2.1823,2.3304,2.4873,2.5577,2.6129,2.6513,2.6645,2.637,2.5721,2.5721,2.5504,2.5095,2.4652,2.5059,2.5889,2.5612,2.5661,0.0,0.0,0.0,0.0,2.5528,2.5719,0.0,0.0,0.0,0.0,0.0,0.0,0.0,0.0,2.8197,0.0,2.8624,0.0,3.0143,3.0018,3.0278,3.0407,0.0,0.0,0.0,0.0,0.0,0.0,0.0,2.9192,2.8904,0.0,0.0,0.0,2.9826,0.0,0.0,3.3313,3.3744,3.3888,3.3626,3.4084,3.5101,3.6763,3.6406,3.6871,3.856,3.7404,3.6701,3.6701,3.6073,3.5669,3.5504,3.5504,3.5504,3.5504,3.5504,3.5504,3.5504,3.5504,3.5504,3.5504,3.5504,3.5504,3.5504,3.5504,3.5504,3.5444,3.4921,3.4653,3.4444,3.3903,3.3724,3.3634,0.0,0.0,0.0,0.0,0.0,0.0,0.0,0.0,0.0,0.0,0.0,0.0,0.0,0.0,0.0,0.0,0.0,0.0,0.0,0.0,0.0,0.0,0.0,0.0,2.1341,2.2774,2.4104,2.5312,2.5841,2.6382,2.6885,2.6633,2.6382,2.6093,2.5841,2.5576,2.5288,2.4999,2.5216,2.5709,2.5432,0.0,0.0,0.0,0.0,0.0,2.5312,2.5382,0.0,2.5793,2.598,2.6181,0.0,0.0,0.0,0.0,2.7908,2.8109,2.8109,2.8737,2.934,2.9202,2.977,3.0252,2.9762,0.0,0.0,0.0,0.0,0.0,0.0,0.0,0.0,0.0,2.8712,0.0,0.0,0.0,0.0,3.3077,3.3208,3.3326,0.0,3.419,3.525,3.6788,3.6944,3.7395,3.8336,3.7449,3.6776,3.6492,3.5848,3.5504,3.5504,3.5504,3.5504,3.5504,3.5504,3.5504,3.5504,3.5504,3.5504,3.5504,3.5504,3.5504,3.5504,3.5504,3.5504,3.5474,3.51,3.4788,3.4429,3.3739,3.3499,3.3365,0.0,0.0,0.0,0.0,0.0,0.0,0.0,0.0,0.0,0.0,0.0,0.0,0.0,0.0,0.0,0.0,0.0,0.0,0.0,0.0,0.0,0.0,0.0,2.2353,2.2144,2.3494,2.4631,2.5432,2.5961,2.6514,2.7006,2.6647,2.6382,2.6202,2.5673,2.5384,2.5312,2.5312,2.5312,2.5312,2.5312,0.0,0.0,0.0,0.0,0.0,0.0,0.0,0.0,2.5758,2.591,2.598,2.6361,0.0,0.0,0.0,0.0,0.0,2.7959,2.8323,2.8673,2.8442,2.9272,3.0059,2.9755,0.0,0.0,0.0,0.0,0.0,0.0,2.842,0.0,0.0,0.0,0.0,3.1836,3.1692,3.1744,3.2712,3.2476,0.0,3.3685,3.4499,3.5505,3.6827,3.7552,3.7952,3.8088,3.7479,3.6881,3.6357,3.5804,3.5504,3.5504,3.5504,3.5504,3.5504,3.5504,3.5504,3.5504,3.5504,3.5504,3.5504,0.0,0.0,3.5504,3.5504,3.5504,3.5504,3.5504,3.5145,3.4578,3.3769,3.3499,3.3305,0.0,0.0,0.0,0.0,0.0,0.0,0.0,0.0,0.0,0.0,0.0,0.0,0.0,0.0,0.0,0.0,0.0,0.0,0.0,0.0,0.0,0.0,2.1957,2.1846,2.3202,2.3063,2.3944,2.5973,2.6489,2.7042,2.757,2.7969,2.7669,2.6741,2.6226,2.5733,2.5312,2.5312,2.5312,2.5312,2.5312,0.0,0.0,0.0,0.0,0.0,0.0,0.0,0.0,2.5758,2.591,2.598,2.6361,0.0,0.0,0.0,0.0,0.0,2.7281,2.7624,2.7896,2.8288,2.8686,2.9006,2.9109,0.0,0.0,0.0,0.0,0.0,0.0,2.842,2.8381,0.0,0.0,3.1326,0.0,0.0,3.326,3.343,0.0,3.4161,3.4591,3.5195,3.6016,3.7065,3.6744,3.657,3.6772,3.6163,3.5759,3.5669,3.5549,3.5504,3.5504,3.5504,3.5504,3.5504,3.5504,3.5504,3.5504,3.5504,3.5504,3.5504,0.0,3.5504,3.5504,3.5504,3.5504,3.5504,3.5504,3.5444,3.519,3.3963,3.3499,3.3305,0.0,0.0,0.0,0.0,0.0,0.0,0.0,0.0,0.0,0.0,0.0,0.0,0.0,0.0,0.0,0.0,0.0,0.0,0.0,0.0,0.0,2.4626,2.3132,2.272,2.3658,2.4236,2.4898,2.5673,2.6477,2.7018,2.727,2.751,2.7198,2.6454,2.5913,2.5697,2.5733,2.5733,2.5733,2.5733,0.0,0.0,0.0,0.0,0.0,0.0,0.0,0.0,0.0,0.0,2.591,2.598,2.6361,0.0,0.0,0.0,0.0,0.0,2.6905,2.705,2.7218,2.7694,2.836,2.8841,2.8694,0.0,0.0,0.0,0.0,0.0,0.0,0.0,2.917,3.0098,0.0,3.1836,3.2947,3.3104,3.3104,0.0,0.0,3.3687,3.4209,3.4931,3.5737,3.6599,3.6787,3.6744,3.6522,3.6207,3.5863,3.5519,3.5504,3.5504,3.5504,3.5504,3.5504,3.5504,3.5504,3.5504,3.5504,3.5504,3.5504,3.5504,0.0,3.5504,3.5504,3.5504,3.5504,3.5474,3.51,3.4951,3.4786,3.3455,3.2736,3.2318,0.0,0.0,0.0,0.0,0.0,0.0,0.0,0.0,0.0,0.0,0.0,0.0,0.0,0.0,0.0,0.0,0.0,0.0,0.0,0.0,2.4696,2.4578,2.3802,2.3688,2.4314,2.5218,2.5696,2.5685,2.6609,2.7138,2.7258,2.7138,2.6789,2.6274,2.5733,2.5721,2.6093,2.6093,2.6178,2.6286,0.0,0.0,0.0,0.0,0.0,0.0,0.0,0.0,0.0,0.0,0.0,0.0,0.0,0.0,0.0,2.6499,2.6499,2.6559,2.6822,2.6828,2.6901,2.7369,0.0,0.0,0.0,0.0,0.0,0.0,0.0,0.0,0.0,2.8595,0.0,3.1367,3.1954,3.2411,3.3012,3.3091,3.3091,3.3091,3.3119,3.3461,3.4211,3.4943,3.5625,3.6231,3.6837,3.6926,3.6297,3.6252,3.6028,3.5519,3.5504,3.5504,3.5504,3.5504,3.5504,3.5504,3.5504,3.5504,3.5504,3.5504,3.5504,3.5504,3.5504,3.5415,3.528,3.5444,3.531,3.4996,3.4653,3.4324,3.3903,3.2886,3.2064,3.1511,0.0,0.0,0.0,0.0,0.0,0.0,0.0,0.0,0.0,0.0,0.0,0.0,0.0,0.0,0.0,0.0,0.0,0.0,0.0,0.0,2.2934,2.2446,2.2831,2.3951,2.5877,2.4966,2.52,2.6777,2.7342,2.7921,2.8378,2.7897,2.7342,2.6813,2.6286,2.6057,2.6093,2.6093,2.6406,2.6789,2.631,0.0,0.0,0.0,0.0,0.0,0.0,0.0,0.0,0.0,0.0,0.0,0.0,0.0,2.6499,2.6499,2.6499,2.6647,2.7351,2.7249,2.7139,2.7859,2.7721,0.0,2.8234,2.7968,0.0,2.8268,0.0,0.0,0.0,2.8886,3.0257,3.0947,3.2411,3.3652,3.4201,0.0,3.428,3.428,3.4433,3.4862,3.5669,3.596,3.6237,3.6447,3.6518,3.6267,3.5609,3.5579,3.5549,3.5504,3.5504,3.5504,3.5504,3.5504,3.5504,3.5504,3.5504,3.5504,3.5504,3.5504,3.5504,3.5504,3.5504,3.5145,3.4638,3.5235,3.4771,3.3694,3.4294,3.3724,3.2647,3.2557,3.2064,3.1511,0.0,0.0,0.0,0.0,0.0,0.0,0.0,0.0,0.0,0.0,0.0,0.0,0.0,0.0,0.0,0.0,0.0,0.0,0.0,0.0,2.3025,2.4094,2.3836,2.4434,2.6045,2.5475,2.5744,2.6898,2.7426,2.7993,2.8498,2.7969,2.7402,2.6873,2.6346,2.6093,2.6093,2.6093,2.6226,2.6394,2.6178,2.5901,0.0,0.0,0.0,0.0,0.0,0.0,0.0,0.0,2.5099,2.5265,0.0,0.0,2.6499,2.6499,2.6499,2.6618,2.7109,2.7122,2.713,2.7608,2.7559,0.0,0.0,2.8203,2.8229,2.8852,2.8765,0.0,0.0,0.0,3.0572,3.1542,3.2988,3.4058,3.4257,3.46,3.5018,3.5507,3.518,3.5245,3.62,3.5848,3.5658,3.5857,3.5878,3.5774,3.5519,3.5504,3.5504,3.5504,3.5504,3.5504,3.5504,3.5504,3.5504,3.5504,3.5504,3.5504,3.5504,3.5504,3.5504,3.5504,3.5504,3.5115,3.4563,3.522,3.4711,3.3529,3.3769,3.3305,3.2512,3.2512,3.2064,3.1511,0.0,0.0,0.0,0.0,0.0,0.0,0.0,0.0,0.0,0.0,0.0,0.0,0.0,0.0,0.0,0.0,0.0,0.0,0.0,2.2684,2.3017,2.475,2.4139,2.443,2.5953,2.5791,2.6185,2.715,2.7678,2.8065,2.8246,2.7885,2.7402,2.6873,2.6346,2.619,2.6346,2.6178,2.6202,2.6346,2.6166,2.5877,0.0,0.0,0.0,0.0,0.0,0.0,0.0,0.0,2.4595,0.0,0.0,0.0,0.0,0.0,2.6248,2.6076,2.659,2.6742,2.6771,2.6941,0.0,0.0,2.8242,2.842,2.859,2.9192,2.931,2.9428,2.9856,0.0,0.0,0.0,3.3051,3.39,3.39,3.446,3.5087,3.5611,3.5405,3.5458,3.6116,3.5697,3.5392,3.5502,3.5504,3.5504,3.5504,3.5504,3.5504,3.5504,3.5504,3.5504,3.5504,3.5504,3.5504,3.5504,3.5504,3.5504,3.5504,3.5504,3.5504,3.5489,3.528,3.4906,3.4533,3.4756,3.4203,3.3155,3.2961,3.2602,3.2168,3.2168,3.1884,3.1511,0.0,0.0,0.0,0.0,0.0,0.0,0.0,0.0,0.0,0.0,0.0,0.0,0.0,0.0,0.0,0.0,0.0,0.0,2.2859,2.2499,2.2699,2.3776,2.3321,2.3857,2.5674,2.5708,2.6348,2.769,2.8246,2.8234,2.7678,2.7678,2.7402,2.6861,2.6346,2.6406,2.6837,2.6322,2.6406,2.6837,2.631,2.6081,2.6033,0.0,0.0,0.0,0.0,0.0,0.0,0.0,2.3489,0.0,0.0,0.0,0.0,2.616,2.5674,2.501,2.5868,2.6153,2.6135,2.5899,0.0,0.0,2.8268,2.842,2.859,2.9205,2.9323,2.9358,2.9557,0.0,0.0,3.1559,3.253,3.3302,3.3302,3.3943,3.4424,3.4424,3.5168,3.5629,3.5521,3.5639,3.5638,3.5504,3.5504,3.5504,3.5504,3.5504,3.5504,3.5504,3.5504,3.5504,3.5504,3.5504,3.5504,3.5504,3.5504,3.5504,3.5504,3.5504,3.5504,3.5474,3.4771,3.4503,3.4444,3.3754,3.3095,3.2452,3.1765,3.1511,3.1511,3.1511,3.1511,3.1511,0.0,0.0,0.0,0.0,0.0,0.0,0.0,0.0,0.0,0.0,0.0,0.0,0.0,0.0,0.0,0.0,0.0,0.0,0.0,2.2673,2.3198,2.5337,2.4728,2.4834,2.5953,2.6332,2.71,2.827,2.8026,2.7873,2.7678,2.7678,2.7198,2.6358,2.6586,2.6321,2.5757,2.5216,2.53,2.5745,2.5204,2.5216,2.5528,0.0,0.0,0.0,0.0,0.0,0.0,0.0,0.0,0.0,0.0,0.0,0.0,2.5322,2.5335,2.5464,2.6016,2.5871,0.0,2.73,0.0,0.0,0.0,2.9301,0.0,0.0,3.0273,3.0079,3.0151,0.0,0.0,3.1173,3.229,3.3308,3.3813,3.4409,3.5215,3.632,3.6134,3.6123,3.6634,3.6209,3.591,3.5861,3.5861,3.5782,3.5638,3.5638,3.5604,3.5504,3.5504,3.5504,3.5504,3.5504,3.5504,3.5504,3.5504,3.5504,3.5504,3.5504,3.5504,3.5474,3.4771,3.4249,3.3709,3.2572,3.2512,3.314,3.2482,3.2183,3.2183,3.2183,3.1899,3.1511,0.0,0.0,0.0,0.0,0.0,0.0,0.0,0.0,0.0,0.0,0.0,0.0,0.0,0.0,0.0,0.0,0.0,0.0,0.0,0.0,2.3853,2.6296,2.5749,2.5794,2.6731,2.703,2.7522,2.8198,2.7846,2.75,2.7091,2.7486,2.7222,2.6454,2.697,2.6729,2.5889,2.5372,2.5204,2.5276,2.4963,2.5023,2.5312,0.0,0.0,0.0,0.0,0.0,0.0,0.0,0.0,0.0,0.0,0.0,0.0,2.475,2.4569,2.4457,2.5275,2.5243,0.0,2.6987,2.7183,2.7497,2.9366,0.0,0.0,0.0,0.0,3.0917,3.0977,3.1194,0.0,3.1834,3.258,3.3373,3.408,3.4738,3.5508,3.6432,3.6322,3.6358,3.6775,3.6345,3.6068,3.6005,3.6005,3.5941,3.5831,3.5752,3.5671,3.5572,3.5522,3.5504,3.5504,3.5504,3.5504,3.5504,3.5504,3.5504,3.5504,3.5504,3.5504,3.5474,3.4771,3.3799,3.2677,3.2108,3.2213,3.2677,3.2243,3.2093,3.2093,3.2093,3.1854,3.1511,0.0,0.0,0.0,0.0,0.0,0.0,0.0,0.0,0.0,0.0,2.1223,0.0,0.0,0.0,0.0,0.0,0.0,0.0,0.0,0.0,2.4611,2.6788,2.649,2.6707,2.7666,2.763,2.7582,2.7534,2.7582,2.7115,2.6117,2.7164,2.733,2.6837,2.7378,2.7294,2.6717,2.6142,2.56,2.5168,2.5168,2.5168,2.5168,2.5216,0.0,0.0,0.0,0.0,0.0,0.0,0.0,0.0,2.4453,2.401,2.3371,2.4349,2.3597,2.2745,2.4058,0.0,0.0,2.5704,2.685,0.0,2.9087,3.0382,3.131,3.131,0.0,3.1683,3.1853,3.189,3.2191,3.3052,3.3178,3.3492,3.4279,3.4993,3.5432,3.5497,3.6085,3.6414,3.6242,3.6242,3.6179,3.6068,3.6037,3.6037,3.6037,3.5816,3.572,3.5688,3.5572,3.5504,3.5504,3.5504,3.5504,3.5504,3.5504,3.5474,3.5415,3.5474,3.5474,3.537,3.4681,3.3365,3.1735,3.2333,3.2228,3.1675,3.1615,3.1585,3.1585,3.1525,3.1511,3.1511,0.0,0.0,0.0,0.0,0.0,0.0,0.0,0.0,0.0,0.0,0.0,0.0,0.0,0.0,0.0,0.0,0.0,0.0,0.0,0.0,2.5923,2.6861,2.7174,2.7438,2.7678,2.7282,2.6887,2.6442,2.6887,2.6755,2.6105,2.6791,2.6777,2.6298,2.6813,2.6525,2.5588,2.4662,2.4239,2.4131,2.4131,2.4131,2.4145,2.4542,2.4109,0.0,0.0,0.0,0.0,0.0,0.0,0.0,2.4035,2.4004,2.3766,2.3534,2.3534,2.3739,2.4336,2.4492,0.0,0.0,2.8338,2.9558,2.9526,3.0563,3.1485,3.131,3.1582,3.1853,3.189,3.2036,3.2372,3.3087,3.3178,3.3665,3.4993,3.5302,3.5608,3.6179,3.6383,3.6492,3.6445,3.6445,3.6414,3.6398,3.6398,3.632,3.6179,3.6037,3.5863,3.5688,3.5572,3.5504,3.5504,3.5504,3.5504,3.5504,3.5504,3.522,3.4711,3.525,3.5205,3.4698,3.3993,3.3469,3.308,3.323,3.32,3.3021,3.2497,3.2273,3.2213,3.169,3.1511,3.1511,0.0,0.0,0.0,0.0,0.0,0.0,0.0,0.0,0.0,0.0,0.0,0.0,0.0,0.0,0.0,0.0,0.0,0.0,0.0,0.0,0.0,2.6596,2.7579,2.7942,2.769,2.7414,2.6873,2.6093,2.6394,2.6382,2.6105,2.6633,2.6741,2.6514,2.6765,2.6285,2.5252,2.447,2.4023,2.3806,2.3806,2.3806,2.383,2.4061,2.3833,2.3396,2.3396,0.0,0.0,0.0,0.0,0.0,0.0,0.0,2.3496,2.3195,2.3133,2.3311,2.3897,0.0,0.0,2.7365,0.0,2.998,2.9547,3.0576,3.1479,3.11,3.1566,3.2132,3.2453,3.2596,3.2903,3.3596,3.4027,3.4647,3.5769,3.5911,3.6085,3.646,3.6492,3.6492,3.6492,3.6492,3.6492,3.6492,3.6492,3.646,3.6352,3.6195,3.6022,3.5863,3.5686,3.5422,3.5011,3.5011,3.4861,3.4547,3.4547,3.4517,3.4518,3.4846,3.4816,3.4488,3.4144,3.3784,3.3499,3.3499,3.3499,3.3469,3.3125,3.2796,3.2452,3.2108,3.178,3.1511,0.0,0.0,0.0,0.0,0.0,0.0,0.0,0.0,0.0,0.0,0.0,0.0,0.0,0.0,0.0,0.0,0.0,0.0,0.0,0.0,0.0,0.0,2.7862,2.827,2.769,2.7594,2.7091,2.6093,2.6009,2.6094,2.6286,2.661,2.6801,2.6885,2.6705,2.6069,2.5131,2.4518,2.3965,2.3541,2.3625,2.3613,2.3541,2.3637,2.3613,2.3529,2.3529,0.0,2.3694,2.4055,0.0,0.0,0.0,0.0,2.3108,2.3108,2.2782,2.2619,2.3382,0.0,2.529,2.7673,2.9118,0.0,2.9545,3.057,3.1486,3.1146,3.1672,3.2408,3.3087,3.3178,3.3492,3.4346,3.4993,3.5672,3.6383,3.6492,3.6492,3.6492,3.6492,3.6492,3.6492,3.6492,3.6492,3.6492,3.6492,3.6445,3.6322,3.6136,3.5919,3.5702,3.5483,3.5022,3.437,3.4339,3.4038,3.3499,3.3499,3.3844,3.4503,3.4503,3.4578,3.4683,3.4563,3.4233,3.3844,3.3844,3.3844,3.3829,3.3709,3.3335,3.2841,3.2721,3.2303,3.1824,0.0,0.0,0.0,0.0,0.0,0.0,0.0,0.0,0.0,0.0,0.0,0.0,0.0,0.0,0.0,0.0,0.0,0.0,0.0,0.0,0.0,0.0,2.8395,2.827,2.769,2.7234,2.6693,2.6093,2.5636,2.5961,2.7052,2.6468,2.6466,2.6861,0.0,2.5192,2.4566,2.3592,2.2883,2.2438,2.2939,2.2811,2.245,2.2939,2.283,2.2402,0.0,0.0,0.0,2.3504,2.355,0.0,0.0,0.0,2.3108,2.3108,2.3058,2.3067,0.0,0.0,2.5957,0.0,2.8516,2.9581,0.0,0.0,3.1776,0.0,3.2398,3.2408,3.3087,3.3178,3.3665,3.5026,3.5335,3.5672,3.6383,3.6492,3.6492,3.6492,3.6492,3.6492,3.6492,3.6492,3.6492,3.6492,3.6492,3.6245,3.5645,3.5447,3.5064,3.4454,3.4122,3.3939,3.3818,3.3681,3.3589,3.3499,3.3499,3.3844,3.4503,3.4503,3.4801,3.5325,3.4741,3.4771,3.5235,3.5235,3.5235,3.5175,3.4577,3.4324,3.4174,3.3574,3.3305,3.3155,0.0,0.0,0.0,0.0,0.0,0.0,0.0,0.0,0.0,0.0,0.0,0.0,0.0,0.0,0.0,0.0,0.0,0.0,0.0,0.0,0.0,0.0,0.0,2.8126,2.7258,2.7018,2.6477,2.5661,2.5538,2.6081,2.7186,2.67,2.6663,0.0,0.0,0.0,0.0,2.2979,2.2402,2.2209,2.245,2.2221,2.1813,0.0,0.0,0.0,0.0,0.0,0.0,2.2941,2.3034,2.3047,2.306,0.0,0.0,0.0,2.2857,0.0,2.3909,2.4632,2.5556,0.0,2.8164,2.8957,2.963,0.0,3.1573,3.215,3.2441,3.2818,3.3665,3.3837,3.4177,3.5237,3.5737,3.6148,3.646,3.6492,3.6492,3.6492,3.6492,3.6492,3.6492,3.6492,3.6492,3.6492,3.6492,3.6199,3.5552,3.5415,3.5002,3.4208,3.3984,3.3638,3.3126,3.3081,3.2871,3.257,3.2796,3.329,3.3933,3.4339,3.4861,3.5489,3.519,3.522,3.5504,3.5504,3.5504,3.5474,3.5175,3.4816,3.4474,3.4189,3.3814,3.3455,0.0,0.0,0.0,0.0,0.0,0.0,0.0,0.0,0.0,0.0,0.0,0.0,0.0,0.0,0.0,0.0,0.0,0.0,0.0,0.0,0.0,0.0,0.0,0.0,2.6922,2.6898,2.6297,2.5107,0.0,2.6055,2.6871,2.6796,2.6918,0.0,2.615,2.5119,0.0,0.0,2.2421,2.2366,2.2101,0.0,0.0,0.0,0.0,0.0,0.0,0.0,0.0,0.0,0.0,0.0,0.0,0.0,0.0,0.0,0.0,0.0,0.0,0.0,2.5073,2.6674,2.7628,2.832,0.0,0.0,3.1023,0.0,3.225,3.3009,3.4066,3.443,3.4769,3.5336,3.5904,3.6245,3.6245,3.6245,3.6307,3.6476,3.6492,3.643,3.6245,3.6245,3.6168,3.5984,3.5984,3.5676,3.4983,3.4982,3.457,3.3762,3.3601,3.3226,3.2536,3.2448,3.2193,3.1799,3.2436,3.3021,3.3529,3.4352,3.5026,3.5489,3.5325,3.525,3.525,3.525,3.525,3.5265,3.5429,3.519,3.4741,3.4741,3.4427,3.3978,0.0,0.0,0.0,0.0,0.0,0.0,0.0,0.0,0.0,0.0,0.0,0.0,0.0,0.0,0.0,2.3602,0.0,0.0,0.0,0.0,0.0,0.0,0.0,0.0,0.0,2.6898,0.0,0.0,0.0,0.0,2.5961,2.6689,2.6984,2.6996,2.6226,2.544,2.4672,0.0,0.0,0.0,0.0,0.0,0.0,0.0,0.0,0.0,0.0,0.0,0.0,0.0,0.0,0.0,0.0,0.0,0.0,0.0,0.0,0.0,0.0,2.4172,0.0,2.5683,0.0,0.0,0.0,0.0,0.0,0.0,3.1848,3.2532,3.3868,3.4773,3.5366,3.5477,3.5537,3.5568,3.5568,3.5568,3.5799,3.6415,3.6492,3.6245,3.5629,3.5568,3.5306,3.4659,3.4597,3.4289,3.3552,3.3506,3.3198,3.2521,3.2366,3.2198,3.2042,3.1728,3.1627,3.1814,3.2931,3.3469,3.3544,3.4861,3.5474,3.5474,3.4816,3.4563,3.4563,3.4563,3.4563,3.4623,3.525,3.5489,3.5444,3.5444,3.5429,3.531,0.0,0.0,0.0,0.0,0.0,0.0,0.0,0.0,0.0,0.0,0.0,0.0,0.0,2.4157,2.3798,2.3651,2.3668,0.0,0.0,0.0,0.0,0.0,0.0,0.0,0.0,0.0,0.0,0.0,0.0,2.5381,2.591,2.6293,2.6754,2.7149,2.6412,2.5496,2.4434,2.37,0.0,0.0,0.0,0.0,0.0,0.0,0.0,0.0,0.0,0.0,0.0,0.0,0.0,0.0,0.0,0.0,0.0,0.0,0.0,0.0,0.0,0.0,0.0,2.5402,2.6348,2.7131,0.0,2.8651,2.9596,3.0262,3.1149,3.2145,3.3303,3.4213,3.4782,3.4848,3.4874,3.4874,3.4874,3.4874,3.4951,3.5198,3.5229,3.5136,3.489,3.4874,3.4767,3.452,3.4505,3.4197,3.3444,3.3398,3.309,3.2413,3.2274,3.215,3.1996,3.1813,3.1727,3.1814,3.2961,3.3275,3.2931,3.4696,3.5265,3.4831,3.4608,3.4726,3.51,3.4698,3.4741,3.516,3.5415,3.5504,3.5504,3.5504,3.5504,3.5474,0.0,0.0,0.0,0.0,0.0,0.0,0.0,0.0,0.0,0.0,0.0,0.0,0.0,0.0,2.4574,2.4187,2.4549,2.4931,2.5288,2.5636,0.0,0.0,0.0,0.0,0.0,0.0,0.0,0.0,0.0,0.0,0.0,2.5629,2.5999,2.644,2.5961,2.5319,0.0,0.0,0.0,2.2982,0.0,0.0,2.1849,0.0,0.0,0.0,0.0,0.0,0.0,0.0,0.0,0.0,0.0,0.0,0.0,0.0,0.0,0.0,2.2486,0.0,0.0,0.0,0.0,2.6426,2.6837,0.0,2.8607,2.9302,3.0104,3.1091,3.2456,3.324,3.3757,3.408,3.4135,3.4135,3.4135,3.4135,3.4227,3.4474,3.4505,3.4412,3.4166,3.4135,3.4058,3.3827,3.3812,0.0,3.309,3.3059,3.2859,3.2398,3.2274,3.2163,3.215,3.1912,3.1813,3.187,3.2511,3.2721,3.2557,3.4128,3.4696,3.4503,3.4279,3.4532,3.513,3.4666,3.4741,3.519,3.5415,3.5504,3.5504,3.5504,3.5504,3.5504,0.0,0.0,0.0,0.0,0.0,0.0,0.0,0.0,0.0,0.0,0.0,0.0,0.0,0.0,0.0,2.5432,2.5817,2.5889,2.5348,2.5324,0.0,0.0,0.0,0.0,0.0,0.0,0.0,0.0,0.0,0.0,0.0,0.0,2.4775,2.4788,2.4775,2.4953,2.5198,0.0,2.3931,2.4103,0.0,2.2253,2.2597,0.0,0.0,0.0,2.2445,2.261,0.0,2.3417,0.0,0.0,0.0,0.0,0.0,0.0,0.0,0.0,0.0,0.0,0.0,0.0,0.0,0.0,2.5735,0.0,2.705,2.8324,2.8739,2.9397,3.1251,3.1855,3.2377,3.3194,3.3352,3.3367,3.3367,3.3367,3.3629,3.4351,3.4443,3.4166,3.3444,3.3367,3.3106,3.2444,3.2398,3.2398,3.2398,3.2398,3.2398,3.2398,3.2259,3.2259,3.2398,3.1996,3.187,3.1996,3.167,3.1854,3.2482,3.3185,3.3874,3.4444,3.3769,3.3858,3.4474,3.4474,3.4474,3.4548,3.5205,3.5474,3.5474,3.5459,3.5474,3.5504,0.0,0.0,0.0,0.0,0.0,0.0,0.0,0.0,0.0,0.0,0.0,0.0,0.0,0.0,2.6609,2.5937,2.6382,2.631,2.5372,2.5661,2.5949,2.6093,2.6093,2.6466,2.726,0.0,0.0,0.0,0.0,0.0,0.0,0.0,0.0,0.0,2.4406,2.4274,2.4335,2.4023,0.0,2.3269,2.2811,2.2664,0.0,0.0,0.0,0.0,0.0,2.3318,2.3361,0.0,2.3592,2.324,0.0,0.0,0.0,0.0,0.0,0.0,2.1274,0.0,0.0,0.0,0.0,0.0,0.0,0.0,0.0,2.603,2.6762,2.7715,2.8751,2.9435,3.0223,3.1463,3.2228,3.2675,3.2675,3.2675,3.2752,3.2952,3.2967,3.289,3.269,3.2675,3.2598,0.0,3.2398,3.2398,3.2398,3.2398,3.2398,3.2398,3.237,3.2274,3.2122,3.1996,3.1855,3.1655,3.2047,3.2064,3.1809,3.2976,3.3589,3.3754,3.3574,3.3604,3.3769,3.3769,3.3769,3.3829,3.4502,3.4788,3.4728,3.4218,3.4666,3.5429,0.0,0.0,0.0,0.0,0.0,0.0,0.0,0.0,0.0,0.0,0.0,0.0,0.0,0.0,0.0,2.649,2.691,2.6765,2.5709,2.5925,2.5997,2.5781,2.5769,2.6166,2.7019,0.0,0.0,0.0,0.0,0.0,0.0,0.0,0.0,0.0,0.0,0.0,0.0,0.0,0.0,0.0,2.3087,0.0,0.0,2.2978,2.283,0.0,0.0,0.0,2.3753,2.4065,2.3773,0.0,0.0,0.0,0.0,0.0,0.0,0.0,0.0,0.0,0.0,0.0,0.0,0.0,2.4541,2.481,2.4984,0.0,2.5173,2.6099,2.755,2.8197,2.8921,3.0277,3.1009,3.1523,3.1854,3.1955,3.1967,3.1967,3.1967,3.2074,3.2367,3.2398,3.2398,3.2398,3.2398,3.2398,3.2398,3.2398,3.2398,3.2398,3.2398,3.2315,3.2178,3.2053,3.1912,3.1712,3.1687,3.16,3.1525,3.2033,3.2557,3.3051,3.2482,3.2407,3.2677,3.2677,3.2841,3.3155,3.3814,3.4068,3.4053,3.3948,3.4397,3.5055,0.0,0.0,0.0,0.0,0.0,0.0,0.0,0.0,0.0,0.0,0.0,0.0,0.0,0.0,0.0,0.0,0.0,2.726,2.6166,2.6093,2.5865,2.5336,2.5312,2.5552,2.6093,2.5119,0.0,0.0,0.0,0.0,0.0,0.0,0.0,0.0,0.0,0.0,0.0,0.0,0.0,2.3954,2.3409,2.3547,0.0,0.0,2.3205,2.3262,2.4467,2.4453,2.3996,2.4605,2.376,0.0,0.0,0.0,0.0,0.0,2.1493,0.0,0.0,0.0,0.0,0.0,0.0,0.0,2.3935,2.3979,2.4083,2.4083,2.4083,2.4781,2.6981,2.7539,2.8068,2.9265,2.9682,3.0137,3.0956,3.1167,3.1247,0.0,0.0,0.0,3.2121,3.2244,3.2259,3.2182,3.2244,3.2321,3.2398,3.2398,3.2398,3.2398,3.2398,3.2398,3.237,3.2122,3.1996,3.1968,3.0977,3.0838,3.1481,3.0821,3.1195,3.2303,3.1061,3.0806,3.1286,3.1286,3.163,3.2273,3.3066,3.329,3.3245,3.3934,3.4279,3.4488,0.0,0.0,0.0,0.0,0.0,0.0,0.0,0.0,0.0,0.0,0.0,0.0,0.0,0.0,0.0,0.0,0.0,0.0,0.0,2.6093,2.5865,2.5336,2.5312,2.5552,2.6093,2.5634,2.5728,0.0,0.0,0.0,0.0,0.0,0.0,0.0,0.0,0.0,0.0,0.0,0.0,2.3991,2.3879,0.0,2.4612,2.4499,2.4462,2.4518,2.5189,2.5339,2.5202,2.4901,2.4305,2.3489,0.0,0.0,0.0,2.1493,0.0,0.0,0.0,0.0,0.0,0.0,0.0,0.0,2.3654,2.3789,2.3949,0.0,2.4037,2.4382,2.5361,2.5911,2.6482,2.7256,2.8314,2.9323,0.0,0.0,0.0,0.0,0.0,0.0,3.0771,3.1274,3.1366,3.0817,3.1289,3.184,3.2367,3.2398,3.2398,3.2398,3.2398,3.2342,3.2247,3.2066,3.194,3.1841,3.0921,3.0838,3.1481,3.0821,3.0956,3.1645,3.0866,3.0298,2.9968,2.9968,3.0043,3.0328,3.2033,3.2048,3.1165,3.1824,3.2781,3.3709,0.0,0.0,0.0,0.0,0.0,0.0,0.0,0.0,0.0,0.0,0.0,0.0,0.0,0.0,0.0,0.0,0.0,0.0,0.0,0.0,2.6154,2.5348,2.5312,2.5588,2.6239,2.5802,2.5944,2.6709,0.0,0.0,0.0,0.0,0.0,0.0,0.0,0.0,0.0,0.0,2.3446,2.4004,2.4004,0.0,2.4788,2.4788,2.4788,2.4863,2.541,2.5598,2.5523,2.4996,2.4612,0.0,0.0,2.2506,2.2309,0.0,2.2121,2.1958,0.0,0.0,0.0,2.2888,0.0,0.0,0.0,2.3205,2.3364,2.345,2.3508,2.3846,0.0,0.0,2.6004,2.6643,0.0,0.0,0.0,0.0,0.0,0.0,0.0,0.0,3.0278,3.0652,3.0766,3.0432,3.1012,3.1563,3.1874,3.2213,3.2398,3.2398,3.2398,3.237,3.2287,3.2178,3.2038,3.1883,3.1394,3.1267,3.1466,3.0492,3.0402,3.0913,2.9624,2.9056,2.9086,2.9086,2.8918,2.8768,3.0402,3.0642,3.0163,3.1137,3.2123,3.3095,0.0,0.0,0.0,0.0,0.0,0.0,0.0,0.0,0.0,0.0,0.0,0.0,0.0,0.0,0.0,0.0,0.0,0.0,0.0,0.0,2.6419,2.554,2.5539,2.5767,2.625,2.5908,2.6084,2.6836,0.0,0.0,0.0,0.0,0.0,0.0,0.0,0.0,0.0,0.0,0.0,2.4004,0.0,2.4418,2.4788,2.4788,2.485,2.5046,2.5573,2.5686,2.5523,2.4996,2.4788,2.4612,2.3597,2.312,0.0,0.0,0.0,0.0,0.0,0.0,0.0,0.0,0.0,2.3217,0.0,0.0,0.0,0.0,0.0,0.0,0.0,0.0,0.0,0.0,0.0,0.0,0.0,0.0,0.0,0.0,0.0,0.0,2.9929,3.0135,3.0263,3.0386,3.1012,3.1409,3.1409,3.2028,3.2398,3.2398,3.2398,3.2398,3.2398,3.2274,3.215,3.1996,3.1734,3.1488,3.1271,3.0118,2.9789,3.0058,2.8483,2.8034,2.8412,2.8412,2.8094,2.772,2.9082,2.9532,2.9549,3.0823,3.1809,3.2677,2.9013,2.9013,0.0,0.0,0.0,0.0,0.0,0.0,0.0,0.0,0.0,0.0,0.0,0.0,0.0,0.0,0.0,0.0,2.7853,0.0,0.0,2.6287,2.6431,2.6272,2.5703,2.5982,2.6169,2.63,0.0,0.0,0.0,0.0,0.0,0.0,2.3108,0.0,0.0,0.0,2.3941,0.0,2.4531,2.4738,0.0,2.4788,2.5109,2.5586,2.6185,2.6059,2.5523,0.0,2.4788,2.4675,0.0,2.3213,2.2669,2.4161,0.0,0.0,0.0,0.0,0.0,0.0,2.3108,0.0,0.0,0.0,2.3331,2.3361,0.0,0.0,0.0,0.0,0.0,0.0,0.0,0.0,0.0,0.0,0.0,0.0,0.0,0.0,0.0,2.9444,2.9756,3.0356,3.1012,3.1409,3.1409,3.2028,3.2398,3.2398,3.2398,3.2398,3.2398,3.2274,3.215,3.1981,3.1263,3.0809,3.0597,2.9909,2.9295,2.8801,2.8577,2.8173,2.7705,2.7705,2.766,2.772,2.9082,2.922,2.8861,3.0148,3.142,3.2617,2.9131,2.9091,0.0,0.0,0.0,0.0,0.0,0.0,0.0,0.0,0.0,0.0,0.0,0.0,0.0,0.0,0.0,2.8264,0.0,0.0,0.0,2.7042,2.6833,2.6599,2.6424,2.628,2.627,2.6361,2.5854,0.0,0.0,0.0,0.0,0.0,2.3108,0.0,2.3653,0.0,2.418,0.0,0.0,0.0,0.0,2.4788,2.5146,2.5674,2.6285,2.6122,2.5561,0.0,2.5272,0.0,0.0,0.0,0.0,0.0,0.0,0.0,0.0,0.0,0.0,0.0,0.0,0.0,2.3032,0.0,2.3271,0.0,0.0,0.0,0.0,0.0,0.0,0.0,2.5205,0.0,0.0,0.0,0.0,0.0,0.0,0.0,0.0,0.0,0.0,2.9143,3.0176,3.0828,3.0828,3.1459,3.1982,3.2382,3.2398,3.2398,3.2398,3.2274,3.215,3.1996,3.1583,3.1262,3.1032,3.0043,2.9457,2.9131,2.8364,2.7869,2.76,2.76,2.76,2.766,2.8229,2.8274,2.8184,2.949,3.0552,3.1495,2.9326,0.0,0.0,0.0,0.0,0.0,0.0,0.0,0.0,0.0,0.0,0.0,2.841,2.8744,0.0,0.0,2.9209,2.8975,0.0,0.0,2.8087,0.0,0.0,0.0,2.6772,2.6606,2.6489,2.6499,2.6072,0.0,0.0,0.0,0.0,0.0,0.0,2.3333,2.3778,0.0,2.4368,2.4619,2.4888,2.4913,2.4813,2.4938,2.5272,2.5674,2.6285,2.6122,2.5598,2.5598,2.5498,0.0,2.4469,0.0,0.0,0.0,0.0,0.0,2.3258,0.0,0.0,0.0,0.0,0.0,0.0,0.0,0.0,0.0,0.0,0.0,0.0,0.0,0.0,0.0,0.0,0.0,0.0,0.0,0.0,0.0,0.0,0.0,0.0,0.0,2.9103,2.8272,2.9736,3.0586,3.0402,3.1043,3.1705,3.2367,3.2398,3.237,3.2342,3.2302,3.2135,3.194,3.1898,3.1622,3.1182,3.0088,2.9517,2.925,2.8109,2.76,2.76,2.76,2.76,2.76,2.76,2.76,2.7735,2.8903,2.9819,3.0672,2.9792,2.9792,0.0,0.0,0.0,0.0,0.0,0.0,0.0,0.0,0.0,0.0,0.0,0.0,0.0,0.0,0.0,2.922,2.8636,0.0,2.8189,0.0,0.0,2.8025,0.0,2.6899,2.6992,2.6499,0.0,0.0,0.0,0.0,0.0,0.0,0.0,2.3108,2.3208,2.4299,2.4462,2.4117,2.5159,2.5272,2.4838,0.0,2.5586,2.5674,2.6285,0.0,0.0,2.5598,2.5259,0.0,0.0,0.0,0.0,0.0,0.0,0.0,0.0,0.0,0.0,2.3095,0.0,0.0,0.0,0.0,2.3108,0.0,0.0,0.0,0.0,0.0,0.0,0.0,0.0,0.0,0.0,0.0,0.0,0.0,0.0,0.0,0.0,2.924,2.9608,2.8302,3.0176,3.1074,3.0432,3.1043,3.1705,3.2367,3.2398,3.2342,3.2219,3.2342,3.2206,3.1828,3.194,3.1464,3.0507,2.9864,2.9235,2.8592,2.7899,2.76,2.76,2.76,2.76,2.76,2.76,2.76,2.769,2.8368,2.9415,3.0612,0.0,0.0,0.0,0.0,0.0,0.0,0.0,2.9176,0.0,0.0,2.9063,0.0,0.0,3.0382,3.0493,0.0,0.0,2.9975,2.9413,2.9426,0.0,0.0,0.0,2.8461,0.0,0.0,0.0,0.0,0.0,0.0,0.0,0.0,0.0,0.0,0.0,2.3321,0.0,0.0,0.0,0.0,0.0,2.5485,2.536,0.0,2.5598,2.5674,2.6285,2.6122,0.0,2.6072,2.5573,2.485,2.5222,2.4833,2.4224,2.4268,2.3879,0.0,0.0,0.0,2.2221,2.292,0.0,0.0,0.0,0.0,0.0,0.0,0.0,0.0,0.0,0.0,0.0,0.0,0.0,0.0,0.0,0.0,0.0,0.0,0.0,0.0,0.0,0.0,0.0,2.797,2.8697,2.9287,2.9593,3.0236,3.0948,3.1705,3.2151,3.2342,3.2191,3.2247,3.1893,3.1134,3.119,3.097,3.0462,2.9415,2.9056,2.919,2.8079,2.76,2.76,2.76,2.76,2.76,2.76,2.76,2.7675,2.8353,2.9146,3.0178,2.9829,0.0,0.0,0.0,0.0,0.0,0.0,0.0,0.0,0.0,2.9566,0.0,3.0809,0.0,3.1035,0.0,3.0783,3.0482,2.9553,2.9679,0.0,2.8662,2.8787,0.0,0.0,0.0,0.0,0.0,0.0,2.6499,0.0,0.0,0.0,0.0,0.0,2.3308,2.3703,2.3916,2.4506,0.0,0.0,2.59,0.0,0.0,2.5774,2.5674,0.0,2.6248,2.5971,2.6135,2.5561,2.4813,2.4983,2.4657,2.4123,2.3791,2.369,2.3615,2.3208,2.2594,0.0,2.2932,2.2569,0.0,2.2945,0.0,0.0,0.0,0.0,0.0,0.0,0.0,0.0,0.0,0.0,0.0,0.0,0.0,0.0,0.0,0.0,0.0,0.0,0.0,2.7876,2.7152,2.7879,2.8464,0.0,0.0,3.0494,3.1286,3.1922,3.2247,3.2191,3.2191,3.1744,3.087,3.087,3.0787,3.0518,2.9217,2.8966,2.9532,2.8184,2.76,2.76,2.76,2.76,2.76,2.76,2.76,2.7645,2.8094,2.8678,2.9564,2.9892,0.0,0.0,0.0,2.934,0.0,0.0,0.0,2.9829,0.0,3.0771,3.1436,3.1474,3.1938,3.1825,3.0746,3.111,3.0696,2.9038,2.949,0.0,0.0,2.8674,2.8461,2.7394,0.0,0.0,0.0,0.0,0.0,0.0,0.0,0.0,0.0,2.3634,0.0,2.3145,2.3753,2.4305,2.4838,2.5984,2.6411,2.6411,2.6449,2.6109,2.5707,2.6285,2.6499,2.6411,2.5787,2.5247,2.47,2.4205,2.3597,2.3108,2.3145,2.3133,2.3108,2.3108,2.3083,2.307,2.3095,0.0,0.0,0.0,0.0,2.3108,0.0,0.0,0.0,0.0,0.0,0.0,0.0,0.0,0.0,0.0,0.0,0.0,0.0,0.0,0.0,0.0,2.7851,2.7876,2.5975,2.7733,0.0,0.0,0.0,3.0377,3.1148,3.1698,3.2035,3.2191,3.2219,3.1799,3.0995,3.0964,3.0852,3.0626,2.9184,2.8933,2.9487,2.8169,2.76,2.76,2.76,2.76,2.76,2.76,2.76,2.76,2.763,2.8079,2.8921,2.9817,2.9792,2.9792,0.0,2.9666,2.9428,0.0,0.0,0.0,0.0,3.1336,3.2164,3.2591,3.2767,3.2403,3.1286,3.1311,0.0,0.0,0.0,0.0,2.8712,2.9264,2.9239,2.8524,2.8612,0.0,2.8298,0.0,0.0,2.7065,0.0,0.0,0.0,0.0,0.0,2.3145,2.3753,2.4079,2.4268,2.4971,2.5247,0.0,0.0,2.5949,2.5886,2.6319,2.6499,2.6411,2.5787,2.5247,2.4763,2.4625,2.3898,2.3195,2.3653,2.3446,2.3108,2.3108,2.2807,2.2594,2.3007,2.2794,2.2606,0.0,0.0,0.0,0.0,0.0,0.0,0.0,0.0,0.0,0.0,0.0,0.0,0.0,0.0,0.0,2.7255,0.0,0.0,0.0,2.6786,2.6411,2.6405,2.6909,0.0,0.0,0.0,0.0,3.0595,3.1225,3.1769,3.2191,3.2287,3.191,3.0995,3.0586,3.0331,3.0125,2.8665,2.8372,2.8944,2.801,2.76,2.76,2.76,2.76,2.76,2.76,2.76,2.766,2.8169,2.8757,2.9549,2.9842,0.0,0.0,2.9792,0.0,0.0,2.939,2.9854,0.0,3.0583,3.1549,0.0,3.2667,3.2918,3.2616,3.1486,3.1386,0.0,2.9867,0.0,0.0,2.9315,2.9377,2.9264,2.89,2.865,0.0,2.8561,0.0,0.0,2.6927,0.0,0.0,0.0,0.0,2.3816,2.3521,2.4117,2.4494,2.472,2.5034,2.5343,0.0,2.6097,2.629,2.6408,2.6625,2.6658,2.6429,2.5556,2.5059,2.47,2.4211,2.3622,2.317,2.3496,2.3358,2.3108,2.3108,2.2882,2.2719,2.3032,2.2869,2.2732,2.3032,2.3108,2.3108,0.0,0.0,0.0,0.0,0.0,0.0,0.0,0.0,0.0,0.0,0.0,0.0,0.0,2.6878,0.0,0.0,2.6378,2.5764,2.6138,2.6716,0.0,0.0,0.0,0.0,3.0308,3.1175,3.1864,3.2287,3.2287,3.1784,3.0743,3.0081,2.9735,2.96,2.8374,2.8177,2.8766,2.7961,2.76,2.76,2.76,2.76,2.76,2.76,2.76,2.7645,2.8034,2.8408,2.8963,2.988,0.0,0.0,0.0,0.0,0.0,0.0,3.0068,0.0,3.0758,0.0,3.2303,3.2227,3.2667,3.2516,3.1386,0.0,3.0859,2.9867,2.9792,2.9792,2.9792,2.9239,2.8925,2.9001,2.8423,2.8134,0.0,0.0,0.0,0.0,0.0,0.0,0.0,0.0,0.0,0.0,2.4587,2.5034,2.5431,2.5569,2.6034,2.6659,2.6722,2.6897,2.7045,2.7045,2.6909,2.6561,2.5282,2.4885,2.4651,2.3489,2.3138,2.3138,2.3108,2.3108,2.3108,2.3108,2.3108,2.3108,2.3108,2.3108,2.3108,2.3138,2.3108,2.3108,2.3138,2.3207,2.3132,0.0,0.0,0.0,0.0,0.0,0.0,0.0,0.0,0.0,0.0,0.0,0.0,0.0,0.0,0.0,0.0,0.0,0.0,0.0,0.0,0.0,3.0066,3.118,3.1949,3.2259,0.0,3.1569,3.0509,2.9623,2.9245,2.919,2.8243,2.8132,2.8645,2.7931,2.76,2.76,2.76,2.76,2.76,2.76,2.76,2.76,2.76,2.766,2.7989,2.9817,0.0,0.0,0.0,0.0,3.0733,3.106,3.1499,3.1825,3.1926,3.2516,3.2742,3.2265,3.2303,3.1926,3.0846,3.0758,0.0,0.0,0.0,0.0,2.9792,2.9239,2.9113,2.9628,2.8637,2.8335,0.0,0.0,0.0,0.0,0.0,0.0,0.0,0.0,0.0,2.4682,2.475,0.0,2.4526,2.5476,2.6019,2.6337,2.6953,2.7201,2.7235,2.7235,2.7113,2.6777,2.5594,2.5211,2.4976,2.3745,2.3343,2.33,2.3138,2.3108,2.3108,2.3108,2.3108,2.3108,2.3108,2.3108,2.3138,2.33,2.321,2.3138,2.33,2.3035,2.2832,2.3158,0.0,0.0,0.0,0.0,0.0,0.0,0.0,0.0,0.0,0.0,2.5824,0.0,0.0,0.0,0.0,0.0,0.0,0.0,0.0,0.0,0.0,3.0221,0.0,0.0,0.0,3.1417,3.1197,2.9971,2.9362,2.9331,2.8383,2.8031,2.8122,2.776,2.76,2.76,2.76,2.76,2.76,2.76,2.76,2.76,2.76,2.7959,2.8547,3.0413,0.0,0.0,0.0,0.0,0.0,0.0,3.2374,3.2781,3.2667,3.2641,3.2641,3.2654,3.239,3.1888,3.1085,3.0771,3.0382,2.9829,2.9792,2.9792,2.9792,2.9528,2.9503,2.9779,2.8687,2.8373,2.8888,0.0,0.0,0.0,0.0,0.0,0.0,0.0,2.487,0.0,0.0,0.0,2.5521,2.5886,2.6345,2.6806,2.7165,2.7335,2.7403,2.7403,2.7174,2.6712,2.5653,2.5102,2.4699,2.3777,2.3463,2.3403,2.3378,2.3318,2.3271,2.3348,2.3348,2.3348,2.3348,2.3348,2.3378,2.348,2.342,2.3378,2.348,2.3394,2.335,2.3619,2.3557,0.0,0.0,0.0,0.0,0.0,0.0,0.0,0.0,0.0,0.0,0.0,0.0,0.0,0.0,0.0,0.0,0.0,0.0,0.0,0.0,0.0,0.0,0.0,0.0,0.0,3.0874,2.9535,2.9048,2.9371,2.8799,2.8521,2.8495,2.8241,2.8113,2.8094,2.775,2.76,2.76,2.76,2.76,2.76,2.76,2.8244,2.9146,0.0,3.1275,0.0,0.0,3.1747,0.0,3.236,3.309,3.3538,3.3136,3.278,3.2654,3.2867,3.2591,3.2077,3.1298,3.0846,3.0382,2.9829,2.9792,2.9792,2.9792,2.9679,2.9666,2.9792,2.8574,2.8197,0.0,0.0,0.0,0.0,0.0,0.0,0.0,0.0,0.0,0.0,0.0,2.5884,2.6591,2.6473,2.6814,2.7335,2.7335,2.7403,2.7477,2.7359,2.6987,2.638,2.5541,2.4926,2.4433,2.3838,2.3569,2.3463,2.3539,2.348,2.3433,2.3539,2.3569,2.3599,2.3599,2.3599,2.3628,2.3658,2.3628,2.3628,2.3658,2.3789,2.3891,2.3891,2.3816,0.0,0.0,0.0,0.0,0.0,0.0,0.0,0.0,0.0,0.0,2.7036,0.0,0.0,0.0,0.0,0.0,0.0,0.0,0.0,0.0,0.0,3.1006,3.0565,0.0,3.0782,3.0386,2.9058,2.8842,2.9587,2.9058,2.8946,2.9178,2.8632,2.8382,2.8338,2.7824,2.76,2.76,2.76,2.76,2.76,2.76,2.8364,2.9427,0.0,0.0,0.0,0.0,0.0,0.0,3.2826,3.3773,3.4155,3.323,3.3458,3.337,3.2403,3.2717,3.2365,3.0821,3.0645,3.0382,2.9829,2.9792,2.9792,2.9792,2.9289,2.9252,2.9779,2.8197,2.7632,0.0,0.0,2.5984,0.0,0.0,0.0,0.0,0.0,0.0,0.0,2.6283,2.6434,2.6294,2.6943,2.7317,2.7503,2.7503,2.749,2.7425,2.6935,2.6386,2.5793,2.5206,2.4984,2.481,2.4088,2.373,2.3569,2.3463,2.3403,2.3403,2.3433,2.3509,2.3599,2.3599,2.3599,2.3658,2.3832,2.373,2.3658,2.3819,2.3891,2.3891,2.3891,2.3553,2.3386,0.0,0.0,0.0,0.0,0.0,0.0,0.0,0.0,0.0,0.0,2.6956,0.0,0.0,2.7225,0.0,0.0,0.0,0.0,2.9716,0.0,3.1185,3.1124,3.0119,2.9848,3.0386,2.9058,2.9064,3.0263,2.8758,2.8763,2.9815,2.8357,2.769,2.769,2.763,2.76,2.76,2.76,2.76,2.76,2.76,2.8064,2.8771,0.0,0.0,0.0,0.0,0.0,0.0,0.0,3.4418,3.4709,3.4576,3.4399,3.4285,3.4127,3.3445,3.2539,3.1415,3.0996,3.0487,2.9829,2.9792,2.9792,2.9792,2.9566,2.9553,2.9779,2.8461,2.7883,0.0,0.0,0.0,0.0,0.0,0.0,0.0,0.0,2.5858,2.6451,2.6416,2.6575,2.6891,2.7278,2.7469,2.749,2.749,2.749,2.7425,2.6883,2.6308,2.5702,2.5188,2.4769,2.4426,2.4103,2.3907,2.3789,2.3819,2.376,2.37,2.3789,2.3848,2.3907,2.3907,2.3907,2.3907,2.3995,2.3966,2.3936,2.3995,2.4037,2.4037,2.4037,2.3871,2.3691,0.0,0.0,0.0,0.0,0.0,0.0,0.0,0.0,0.0,0.0,0.0,0.0,0.0,0.0,0.0,0.0,0.0,0.0,3.031,0.0,3.0495,3.0548,3.0186,3.0125,3.0386,2.9433,2.9704,3.0982,3.0171,2.9977,3.0238,2.9229,2.8573,2.8184,2.7764,2.76,2.76,2.76,2.76,2.76,2.76,2.8289,2.922,3.3939,0.0,3.4042,0.0,3.396,3.4285,3.4947,3.5318,3.5556,3.5657,3.5303,3.4984,3.493,3.3841,3.2723,3.172,3.1247,3.071,3.001,2.9972,2.9972,2.9972,2.9972,0.0,2.9908,2.8749,2.817,2.8109,2.7075,0.0,0.0,0.0,0.0,0.0,2.5461,2.6049,2.6998,2.6655,2.6806,2.7302,2.7469,2.749,2.749,2.749,2.749,2.7398,2.6687,2.6164,2.5675,2.4975,2.4452,2.4083,2.4083,2.4008,2.392,2.4008,2.3979,2.392,2.4037,2.4054,2.4083,2.4083,2.4083,2.4083,2.4083,2.4083,2.4083,2.4083,2.4083,2.4083,2.4083,2.4083,2.3952,2.3522,0.0,0.0,0.0,0.0,0.0,0.0,2.4818,2.5203,2.5305,2.6093,0.0,0.0,0.0,0.0,0.0,0.0,0.0,0.0,0.0,0.0,3.0635,3.0256,3.0268,3.0705,3.0002,3.0397,3.1674,3.1421,3.0905,3.0208,2.9786,2.9205,2.8547,2.7884,2.76,2.76,2.76,2.772,2.7899,2.7899,2.8618,2.9636,3.5378,3.5273,3.5273,3.5273,3.5273,3.5456,3.6005,3.6606,3.6776,3.6175,3.6096,3.5492,3.3896,3.3713,3.3034,3.1355,3.1214,3.0971,3.0445,3.0406,3.0406,0.0,0.0,3.0292,3.0113,2.8996,2.8303,2.8109,0.0,0.0,2.5902,0.0,2.636,2.6701,2.6897,2.6977,2.7024,2.7201,2.7302,2.7302,2.7469,2.749,2.749,2.749,2.749,2.7346,2.6211,2.5806,2.5623,2.4475,2.4096,2.4083,2.4083,2.4008,2.3891,2.3891,2.3891,2.3891,2.3891,2.4008,2.4083,2.4083,2.4083,2.4083,2.4083,2.4083,2.4083,2.4083,2.4083,2.4083,2.4083,2.4083,2.4083,2.4083,0.0,0.0,0.0,0.0,0.0,0.0,2.5431,2.5474,2.4685,2.5824,0.0,0.0,0.0,0.0,0.0,0.0,0.0,3.0477,3.006,0.0,3.1951,3.0151,2.9945,3.1366,3.072,3.1078,3.2382,3.2107,3.1129,2.9621,2.9606,2.9205,2.8547,2.7884,2.76,2.76,2.76,2.8004,2.8592,2.8592,2.9011,2.9696,3.5874,3.5848,3.5848,3.5848,3.5848,3.6044,3.6619,3.6881,3.6933,3.6737,3.6358,3.5622,3.4305,3.3851,3.3226,0.0,3.1616,3.1113,0.0,3.0406,3.0406,3.0406,3.0406,3.0368,3.0292,2.9193,2.8582,2.8509,0.0,0.0,0.0,2.6542,2.666,2.6508,2.6865,2.7113,2.7335,2.7302,2.7335,2.7436,2.7503,2.749,2.749,2.749,2.7255,2.6844,2.6099,2.5576,2.5149,2.4374,2.4083,2.4083,2.4083,2.4054,2.4037,2.4037,2.4037,2.4037,2.4037,2.4054,2.4083,2.4083,2.4083,2.4083,2.4083,2.4083,2.4083,2.4083,2.4083,2.4083,2.4083,2.4083,2.4083,2.4083,2.4083,0.0,0.0,0.0,0.0,0.0,2.5309,2.5374,2.4664,2.5809,0.0,0.0,0.0,0.0,0.0,0.0,0.0,0.0,3.027,0.0,3.1781,3.097,3.0796,3.1263,3.1155,3.1497,3.2274,3.2066,3.1656,3.105,3.0038,2.9699,2.9774,2.8244,2.7869,2.8263,2.8263,2.8412,2.8652,2.9101,2.9669,3.0238,3.6488,3.6449,3.6449,3.6449,3.6449,3.6645,3.7246,3.7155,3.692,3.6698,3.6162,3.5443,3.4502,3.3718,0.0,3.224,3.1656,3.1124,3.066,3.0634,3.0634,3.0634,3.0634,3.0596,3.052,2.9413,0.0,2.869,2.7631,2.6933,2.6631,2.7013,2.7041,2.6771,2.7046,2.7302,2.749,2.7403,2.7436,2.749,2.749,2.749,2.749,2.749,2.717,2.6627,2.6033,2.5458,2.4913,2.4308,2.4083,2.4083,2.4083,2.4258,2.439,2.4171,2.4083,2.4083,2.4083,2.4083,2.4083,2.4083,2.4083,2.4083,2.4083,2.4083,2.4083,2.4083,2.4083,2.4083,2.4083,2.4295,2.4439,2.4439,2.4439,2.4573,2.494,0.0,0.0,0.0,0.0,0.0,0.0,2.5959,2.6841,0.0,0.0,0.0,0.0,0.0,0.0,3.0748,3.0108,0.0,3.171,3.1341,3.128,3.1564,3.1974,3.2161,3.2206,3.2325,3.2154,3.1739,3.0486,3.0148,3.0372,2.8667,2.8353,2.8951,2.8697,2.8891,2.9355,2.9774,3.0342,3.0896,3.7168,3.7063,3.7063,0.0,3.7063,0.0,3.7756,3.7364,3.6776,3.6136,3.5613,3.5064,3.4463,3.3417,3.2515,3.1915,0.0,0.0,0.0,3.0986,3.0986,3.0986,3.0986,3.0911,3.0736,2.9634,2.8954,2.8674,2.7778,2.7302,2.7302,2.7436,2.7436,2.7302,2.7436,2.749,2.749,2.749,2.749,2.749,2.749,2.749,2.749,2.749,2.7144,2.6575,2.6007,2.5432,2.4861,2.4354,2.4171,2.4171,2.42,2.4607,2.492,2.4287,2.4112,2.4171,2.4171,2.4112,2.4112,2.4141,2.4112,2.4083,2.4083,2.4083,2.4083,2.4083,2.4083,2.4096,2.4164,2.4609,2.5018,2.5044,2.5061,2.5082,2.5112,0.0,0.0,0.0,0.0,0.0,0.0,2.6273,2.6437,0.0,0.0,0.0,0.0,0.0,3.1032,2.9786,2.9786,3.0486,3.1905,3.1442,3.1594,3.2372,3.3126,3.3064,3.2311,3.2781,3.2576,3.1754,3.0863,3.0537,3.0477,2.919,2.9056,2.9579,2.8981,2.946,3.0507,3.0552,3.0957,3.1511,0.0,0.0,3.7691,3.7691,3.7691,3.7586,3.726,3.709,3.6632,3.5626,3.5378,3.5064,3.4463,3.3783,3.3143,3.2542,3.1575,3.0986,3.0986,3.0986,3.0986,3.0986,3.0986,3.0986,3.0911,3.022,2.9376,2.8491,2.7775,2.7469,2.7469,2.749,2.7503,2.7469,2.749,2.749,2.749,2.749,2.749,2.749,2.749,2.749,2.749,2.749,2.6876,2.6007,2.5845,2.5171,2.4354,2.4689,2.4778,2.4863,2.5286,2.5495,2.5412,2.439,2.4419,2.4778,2.4778,2.4447,2.42,2.4677,2.4447,2.4083,2.4083,2.4083,2.4083,2.4083,2.4083,2.4243,2.4717,2.49,2.5136,2.555,2.5618,2.5758,2.6223,2.571,0.0,0.0,2.6303,2.6366,2.6378,2.6986,2.772,0.0,0.0,0.0,0.0,3.2138,3.2422,3.1077,3.1554,3.2242,3.3081,3.3244,3.3509,3.3954,3.4152,3.3844,3.3111,3.3052,3.2634,3.191,3.0919,3.0806,3.1152,2.9879,2.9729,3.0268,3.0118,3.0238,3.0567,3.1062,3.1361,3.1511,3.79,3.79,3.79,3.79,3.79,3.7704,3.709,3.6776,3.6279,3.5417,3.5051,3.4763,3.4437,3.3679,3.3051,3.2725,3.1888,3.1261,3.0999,3.0986,3.0986,3.0986,3.0986,3.0986,3.0986,3.0424,2.9562,2.842,2.8072,2.7785,2.749,2.749,2.749,2.749,2.749,2.749,2.749,2.749,2.749,2.749,2.749,2.749,2.749,2.749,2.6942,2.6177,2.5884,2.5389,2.4896,2.4973,2.516,2.5425,2.5715,2.5987,2.5987,2.4863,2.4907,2.5314,2.5061,2.4935,2.4907,2.4977,2.4563,2.4083,2.4083,2.4321,2.4504,2.4504,2.4713,2.4988,2.5301,2.5607,2.579,2.5793,2.5814,2.5904,2.6251,2.599,0.0,2.6144,2.6693,2.7061,2.7061,2.7675,2.8498,2.9532,3.0731,0.0,3.1511,3.3365,3.3664,3.2004,3.2617,3.314,3.3499,3.3834,3.4164,3.4505,3.4813,3.4538,3.3775,3.3861,3.3333,3.2291,3.1671,3.1436,3.1421,3.0417,3.0387,3.0941,3.0627,3.0702,3.0987,3.1376,3.1511,3.1511,3.79,3.79,3.79,3.79,3.79,3.7678,3.6972,3.6436,3.5874,3.5247,3.4711,3.4397,3.4397,3.3456,3.279,3.2698,3.2137,3.1562,3.1026,3.0986,3.0986,3.0986,3.0986,3.0986,3.0986,3.0424,2.964,2.8647,2.8464,2.8137,2.762,2.7529,2.749,2.749,2.749,2.749,2.749,2.749,2.749,2.749,2.749,2.749,2.749,2.749,2.717,2.6641,2.6125,2.5835,2.5632,2.5347,2.5564,2.5978,2.6183,2.6632,2.6932,2.5869,2.5953,2.6172,2.5243,2.5314,2.555,2.5005,2.4476,2.4109,2.423,2.4622,2.5018,2.511,2.5484,2.5819,2.591,2.6347,2.6543,2.6151,2.6054,2.606,2.6063,0.0,2.6199,2.6148,2.7187,2.7899,2.7899,2.8438,2.9071,2.9819,3.142,3.2228,3.1959,3.4113,3.4622,3.3021,3.3514,3.383,3.3891,3.4167,3.4469,3.4813,3.5353,3.517,3.4361,3.4775,3.4197,3.284,3.2601,3.2168,3.16,3.0941,3.0972,3.1451,3.0853,3.0987,3.1511,3.1511,3.1511,3.1511,3.79,3.79,3.79,3.79,3.79,3.7521,3.641,3.6162,3.573,3.4672,3.445,3.4397,3.4397,3.3835,3.3247,3.2738,3.2137,3.1562,3.1026,3.0986,3.0986,3.0986,3.0986,3.0986,3.0986,3.0424,3.0009,2.9826,2.8869,2.8368,2.8242,2.7758,2.749,2.749,2.749,2.749,2.749,2.749,2.749,2.749,2.749,2.749,2.749,2.749,2.717,2.6693,2.6601,2.5944,2.5266,2.6155,2.654,2.6819,2.7844,2.8631,2.9008,2.8347,2.8541,2.8431,2.5715,2.5061,2.4977,2.439,2.4171,2.4243,2.4756,2.4926,2.5136,2.5589,2.5728,2.5968,2.6452,2.6654,2.6837,2.7163,2.7278,2.7339,2.7317,0.0,2.8147,2.8163,2.8808,2.9292,2.9292,2.9397,2.9924,3.1122,3.1481,3.2333,3.3933,3.4444,3.4756,3.504,3.5145,3.5351,3.5607,3.5655,3.5858,3.6184,3.6106,3.5722,3.5049,3.4849,3.4317,3.3502,3.2811,3.2452,3.2273,3.1615,3.1406,3.1496,3.1391,3.1406,3.1511,3.1511,3.1511,3.1511,3.7848,3.79,3.79,3.79,3.7639,3.7116,3.624,3.5848,3.5365,3.4502,3.4397,3.4397,3.4397,3.3626,3.2999,3.2712,3.1888,3.1261,3.0999,3.0986,3.0986,3.0986,3.0986,3.0986,3.0986,3.0725,3.0451,3.01,2.9274,2.8734,2.8407,2.7798,2.749,2.749,2.749,2.749,2.749,2.749,2.749,2.749,2.749,2.749,2.749,2.749,2.7333,2.7092,2.6811,2.6575,2.6492,2.7049,2.7485,2.7922,2.886,2.9367,2.9483,2.8889,2.8418,2.7929,2.716,2.6468,2.588,2.5567,2.5522,2.5518,2.5446,2.5667,2.5999,2.6229,2.653,2.6785,2.7092,2.7131,2.7118,2.7079,2.6822,0.0,0.0,2.794,2.8422,2.9062,2.9684,3.0073,3.0073,3.0073,3.0627,3.1929,3.2363,3.314,3.4444,3.4831,3.5175,3.5489,3.5504,3.5619,3.5831,3.5831,3.5958,3.6226,3.6132,3.5854,3.5456,3.5299,3.4842,3.4102,3.335,3.2841,3.2437,3.178,3.1511,3.1511,3.1511,3.1511,3.1511,3.1511,3.1511,3.1511,3.739,3.7599,3.7691,3.7691,3.7312,3.6802,3.6188,3.5639,3.5077,3.4476,3.4397,3.4397,3.4397,3.3378,3.2685,3.2685,3.1653,3.0986,3.0986,3.0986,3.0986,3.0986,3.0986,3.0986,3.0986,3.0986,3.0699,3.01,2.9562,2.9009,2.8407,2.7798,2.749,2.749,2.749,2.749,2.749,2.749,2.749,2.749,2.749,2.749,2.749,2.749,2.749,2.7438,2.7027,2.7088,2.7427,2.761,2.8107,2.8727,2.9389,2.9784,2.9946,2.9484,2.8354,2.7343,2.7803,2.7272,2.6559,2.6488,2.6521,2.6478,2.6107,2.636,2.6745,2.6844,2.7223,2.749,2.749,2.7623,2.7611,2.7195,0.0,0.0,0.0,2.8151,2.8613,2.968,3.0357,3.0746,3.0746,3.0746,3.1225,3.2422,3.3125,3.3709,3.4249,3.504,3.5504,3.5504,3.5504,3.5572,3.5688,3.5688,3.5799,3.6005,3.5941,3.5863,3.5688,3.5671,3.5304,3.4698,3.3844,3.3215,3.2677,3.1839,3.1511,3.1511,3.1511,3.1511,3.1511,3.1511,3.1511,3.1511,3.6227,3.6684,3.7063,3.7063,3.7037,3.6802,3.6188,3.5639,3.5077,3.4476,3.4397,3.4397,3.4397,3.3378,3.2685,3.2685,3.1653,3.0986,3.0986,3.0986,3.0986,3.0986,3.0986,3.0986,3.0986,3.0986,3.0699,3.01,2.9562,2.9009,2.8407,2.7798,2.749,2.749,2.749,2.749,2.749,2.749,2.749,2.749,2.749,2.749,2.749,2.749,2.749,2.749,2.7451,2.7151,2.6854,2.7422,2.8077,2.8787,2.9333,3.0366,3.1361,3.1303,2.9987,2.82,2.6467,2.5932,2.587,2.587,2.5879,2.6018,2.6523,2.668,2.6831,2.732,2.7464,2.749,2.749,2.8006,2.8403,2.8363,0.0,0.0,2.9261,2.9377,2.9652,3.0349,3.1017,3.1436,3.1436,3.1436,3.172,3.2437,3.3125,3.3514,3.3559,3.4801,3.5504,3.5504,3.5504,3.5572,3.5688,3.5688,3.5799,3.6005,3.5831,3.572,3.5688,3.5572,3.5474,3.5355,3.4053,3.3469,3.332,3.2034,3.1511,3.1511,3.1511,3.1511,3.1511,3.1511,3.1511,3.1511,3.6031,3.6292,3.6449,3.6449,3.6175,3.5874,3.5639,3.5103,3.4659,3.4424,3.4397,3.4397,3.4397,3.3378,3.2685,3.2685,3.1653,3.0986,3.0986,3.0986,3.0986,3.0986,3.0986,3.0986,3.0986,3.0986,3.0699,3.01,2.9562,2.9009,2.8407,2.7798,2.749,2.749,2.749,2.749,2.749,2.749,2.749,2.749,2.749,2.749,2.749,2.749,2.749,2.749,2.749,2.7359,2.7295,2.7932,2.8636,2.9304,2.9909,3.0778,3.1409,3.0999,3.0364,2.9474,2.789,2.7233,2.6966,2.6934,2.7202,2.7522,2.775,2.7478,2.7361,2.7986,2.7776,2.749,2.749,2.8039,2.8514,2.8514,0.0,2.8957,2.9985,2.9827,2.9987,3.1005,3.1346,3.1511,3.1511,3.1511,3.178,3.2437,3.2751,3.3245,3.4099,3.4996,3.5504,3.5504,3.5504,3.5522,3.5572,3.5572,3.5604,3.5683,3.5604,3.5572,3.5572,3.5522,3.5504,3.5429,3.4083,3.3499,3.3395,3.2049,3.1511,3.1511,3.1511,3.1511,3.1555,3.1959,3.1854,3.157,3.5495,3.5717,3.5848,3.5848,3.5547,3.5299,3.5299,3.4789,3.4397,3.4397,3.4397,3.4397,3.4397,3.3378,3.2685,3.2685,3.1653,3.0986,3.0986,3.0986,3.0986,3.0986,3.0986,3.0986,3.0986,3.0986,3.0699,3.01,2.9745,2.9144,2.8407,2.7981,2.7659,2.749,2.749,2.749,2.749,2.749,2.749,2.749,2.749,2.749,2.749,2.749,2.749,2.749,2.749,2.749,2.7556,2.8039,2.8629,2.9268,2.9749,3.0464,3.1161,3.0896,3.0644,3.0299,2.9376,2.8709,2.8142,2.7682,2.8056,2.8449,2.8222,2.8157,2.8189,2.8449,2.8306,2.8059,2.7842,2.8371,2.8807,2.8807,2.8903,2.9389,3.0645,3.0338,3.0353,3.1393,3.1511,3.1585,3.1795,3.1809,3.1989,3.2482,3.2901,3.3619,3.4741,3.504,3.528,3.5489,3.5504,3.5504,3.5504,3.5504,3.5504,3.5504,3.5504,3.5504,3.5504,3.5504,3.5504,3.5444,3.4292,3.3679,3.341,3.2273,3.169,3.1511,3.1511,3.1511,3.1585,3.2243,3.2198,3.1914,3.4397,3.4881,3.5286,3.5286,3.5286,3.5286,3.5286,3.4776,3.4397,3.4397,3.4397,3.4397,3.4384,3.3378,3.2685,3.2685,3.164,3.0986,3.0986,3.0986,3.0986,3.0986,3.0986,3.0986,3.0986,3.0986,3.0699,3.01,3.01,2.9536,2.842,2.842,2.8072,2.749,2.749,2.749,2.749,2.749,2.749,2.749,2.749,2.749,2.749,2.749,2.749,2.749,2.749,2.749,2.749,2.749,2.7941,2.8514,2.8514,2.9439,3.0614,3.1307,3.1029,3.0524,3.0494,3.0011,2.9205,2.7842,2.8006,2.832,2.7656,2.8551,2.9286,2.8629,2.903,2.93,2.8629,2.9048,2.9504,2.9504,2.9504,2.9981,3.1307,3.0925,3.0748,3.1409,3.1511,3.1765,3.2452,3.2512,3.2497,3.2497,3.3739,3.4771,3.5459,3.4861,3.4801,3.5489,3.5504,3.5504,3.5504,3.5504,3.5504,3.5504,3.5504,3.5504,3.5504,3.5504,3.5504,3.5474,3.4771,3.4098,3.344,3.2781,3.2108,3.1511,3.1511,3.1511,3.16,3.2258,3.2497,3.2617,3.4397,3.4541,3.4672,3.4672,3.4672,3.4672,3.4672,3.4515,3.4397,3.4397,3.4397,3.4254,3.3875,3.3156,3.2529,3.2098,3.1418,3.0986,3.0986,3.0986,3.0986,3.0986,3.0986,3.0986,3.0986,3.0986,3.0699,3.01,3.01,2.9536,2.842,2.842,2.8072,2.749,2.749,2.749,2.749,2.749,2.749,2.749,2.749,2.749,2.749,2.749,2.749,2.749,2.749,2.749,2.749,2.749,2.7941,2.8661,2.9594,3.0178,3.0614,3.1307,3.1351,3.1087,3.0614,3.0359,2.9858,2.8532,2.8352,2.8449,2.8254,2.85,2.8871,2.9142,2.9348,2.9442,2.9237,2.9362,2.9504,2.9504,2.9504,2.9797,3.0673,3.0614,3.0748,3.1409,3.1914,3.2273,3.2497,3.2931,3.32,3.32,3.3993,3.4593,3.4771,3.504,3.5295,3.5489,3.5504,3.5504,3.5504,3.5504,3.5504,3.5504,3.5504,3.5504,3.5504,3.5504,3.5504,3.5474,3.4771,3.4098,3.344,3.2781,3.2363,3.2183,3.2183,3.2497,3.2991,3.3649,3.3604,3.3305,3.4397,3.4397,3.4397,3.4397,3.4397,3.4397,3.4397,3.4397,3.4397,3.4397,3.4397,3.428,3.3953,3.3391,3.2816,3.2228,3.1444,3.0986,3.0986,3.0986,3.0986,3.0986,3.0986,3.0986,3.0986,3.0986,3.0817,3.0477,3.0477,2.9993,2.9078,2.9078,2.8765,2.8216,2.8216,2.8085,2.7863,2.7863,2.7699,2.749,2.749,2.7656,2.7875,2.759,2.7842,2.8274,2.7993,2.8059,2.8306,2.8306,2.8551,2.9093,3.0147,3.0494,3.0614,3.1307,3.1511,3.1409,3.0999,3.0896,3.0658,2.9563,2.9282,2.9156,2.8629,2.9139,2.9656,2.9549,2.9919,3.0208,2.995,2.9889,2.9889,2.9889,2.9889,3.0133,3.0807,3.0896,3.1146,3.1825,3.2243,3.2721,3.3245,3.3649,3.4008,3.4262,3.4397,3.4623,3.4861,3.528,3.5504,3.5504,3.5504,3.5504,3.5504,3.5504,3.5504,3.5504,3.5504,3.5504,3.5504,3.5504,3.5504,3.5489,3.5055,3.4502,3.3844,3.3455,3.2976,3.2542,3.2796,3.2976,3.3215,3.4159,3.4099,3.3589,3.4397,3.4397,3.4397,3.4397,3.4397,3.4397,3.4397,3.4397,3.4397,3.4397,3.4397,3.4384,3.4332,3.3888,3.3326,3.2672,3.1614,3.0986,3.0986,3.0986,3.0986,3.0986,3.0986,3.0986,3.0986,3.0986,3.0986,3.0986,3.0986,3.0699,3.01,3.01,2.9823,2.931,2.931,2.8948,2.842,2.842,2.8046,2.749,2.749,2.7908,2.8417,2.7809,2.839,2.9411,2.8807,2.8998,2.9504,2.9504,2.9504,2.9628,3.0299,3.0494,3.0614,3.1307,3.1511,3.1511,3.1511,3.1511,3.1351,3.0748,3.0584,3.0238,2.8917,3.007,3.1073,2.9929,3.0657,3.1336,3.0791,3.0641,3.0552,3.0494,3.0507,3.0717,3.1322,3.1409,3.1662,3.2333,3.2527,3.308,3.4294,3.4533,3.4831,3.5459,3.4921,3.4846,3.5474,3.5504,3.5504,3.5504,3.5504,3.5504,3.5504,3.5504,3.5504,3.5504,3.5504,3.5504,3.5504,3.5504,3.5504,3.5504,3.5504,3.5115,3.4503,3.4503,3.3739,3.2662,3.332,3.3215,3.2841,3.4098,3.4189,3.3664,3.4397,3.4397,3.4397,3.4397,3.4397,3.4397,3.4397,3.4397,3.4397,3.4397,3.4397,3.4241,3.3809,3.3666,3.3169,3.2071,3.1392,3.0986,3.0986,3.0986,3.0986,3.0986,3.0986,3.0986,3.0986,3.0986,3.0986,3.0986,3.0986,3.0699,3.01,3.01,2.9823,2.931,2.931,2.8948,2.842,2.842,2.8046,2.749,2.749,2.7908,2.8481,2.8352,2.8776,2.9473,2.9331,2.9393,2.9504,2.9504,2.9504,2.9628,3.0299,3.0494,3.0614,3.1307,3.1511,3.1511,3.1511,3.1511,3.1467,3.1322,3.1278,3.0925,2.958,3.0011,3.0789,3.1025,3.1293,3.1631,3.202,3.1645,3.1105,3.0597,3.0487,3.0537,3.0687,3.0718,3.0984,3.1632,3.2632,3.3395,3.3679,3.4666,3.534,3.5489,3.537,3.5355,3.5489,3.5504,3.5504,3.5504,3.5504,3.5504,3.5504,3.5504,3.5504,3.5504,3.5504,3.5504,3.5504,3.5504,3.5504,3.5504,3.5504,3.5115,3.4503,3.4503,3.4008,3.335,3.4008,3.4173,3.4189,3.4981,3.4846,3.4234,3.4397,3.4397,3.4397,3.4397,3.4397,3.4397,3.4397,3.4397,3.4397,3.4397,3.4397,3.4293,3.4005,3.3744,3.3117,3.1902,3.1313,3.0986,3.0986,3.0986,3.0986,3.0986,3.0986,3.0986,3.0986,3.0986,3.0986,3.0986,3.0986,3.083,3.0542,3.0542,3.0385,3.0098,3.0098,2.965,2.8852,2.8852,2.8307,2.749,2.749,2.7908,2.8481,2.8124,2.8839,2.995,2.9597,2.9919,3.045,3.045,3.045,3.0524,3.0866,3.097,3.1058,3.1409,3.1511,3.1511,3.1511,3.1511,3.1511,3.1511,3.1735,3.1708,3.0684,3.0974,3.1454,3.1502,3.1751,3.1989,3.2004,3.2005,3.175,3.1102,3.1243,3.1342,3.1028,3.097,3.1235,3.19,3.2886,3.3739,3.4397,3.51,3.5504,3.5504,3.5504,3.5504,3.5504,3.5504,3.5504,3.5504,3.5504,3.5504,3.5504,3.5504,3.5504,3.5504,3.5504,3.5504,3.5504,3.5504,3.5504,3.5504,3.5504,3.5295,3.4966,3.4966,3.4382,3.3559,3.4249,3.4098,3.3664,3.4651,3.4592,3.3904,3.4397,3.4397,3.4397,3.4397,3.4397,3.4397,3.4397,3.4397,3.4397,3.4397,3.4397,3.4397,3.4397,3.3822,3.2999,3.1902,3.1313,3.0986,3.0986,3.0986,3.0986,3.0986,3.0986,3.0986,3.0986,3.0986,3.0986,3.0986,3.0986,3.0986,3.0986,3.0986,3.0986,3.0986,3.0986,3.0411,2.9431,2.9431,2.8752,2.7633,2.7633,2.8,2.8449,2.7875,2.8839,3.0419,2.9858,3.045,3.1525,3.163,3.16,3.1525,3.163,3.1585,3.1511,3.1511,3.1511,3.1511,3.1511,3.1511,3.1525,3.1645,3.2079,3.2378,3.1936,3.2166,3.2378,3.1936,3.2108,3.2213,3.1899,3.2288,3.2437,3.178,3.2318,3.2542,3.163,3.1705,3.1959,3.2273,3.3021,3.4023,3.537,3.5504,3.5504,3.5504,3.5504,3.5504,3.5504,3.5504,3.5504,3.5504,3.5504,3.5504,3.5504,3.5504,3.5504,3.5504,3.5504,3.5504,3.5504,3.5504,3.5504,3.5504,3.5504,3.5504,3.5504,3.5504,3.4771,3.3724,3.4429,3.3844,3.2796,3.3784,3.3858,3.335,3.4397,3.4397,3.4397,3.4397,3.4397,3.4397,3.4397,3.4397,3.4397,3.4397,3.4397,3.4397,3.4397,3.3443,3.2555,3.1863,3.1313,3.0986,3.0986,3.0986,3.0986,3.0986,3.0986,3.0986,3.0986,3.0986,3.0986,3.0986,3.0986,3.0986,3.0986,3.0986,3.0986,3.0986,3.0986,3.062,2.9983,2.9983,2.934,2.8268,2.8268,2.8358,2.8481,2.8384,2.9251,3.0494,3.0389,3.0837,3.1585,3.2168,3.1974,3.16,3.2168,3.1959,3.1511,3.1511,3.1511,3.1511,3.1511,3.1511,3.1645,3.2213,3.2422,3.2632,3.3139,3.2856,3.2647,3.3139,3.2393,3.1959,3.3036,3.3305,3.3155,3.2452,3.341,3.3589,3.1765,3.2512,3.2841,3.1765,3.2751,3.4023,3.537,3.5504,3.5504,3.5504,3.5504,3.5504,3.5504,3.5504,3.5504,3.5504,3.5504,3.5504,3.5504,3.5504,3.5504,3.5504,3.5504,3.5504,3.5504,3.5504,3.5504,3.5504,3.5504,3.5504,3.5504,3.5504,3.504,3.4444,3.51,3.4547,3.332,3.2916,3.308,3.335,3.4397,3.4397,3.4397,3.4397,3.4397,3.4397,3.4397,3.4397,3.4397,3.4397,3.4136,3.3953,3.3953,3.2908,3.1993,3.1418,3.113,3.0986,3.0986,3.0986,3.0986,3.0986,3.1394,3.1431,3.1024,3.1394,3.1394,3.0986,3.0986,3.0986,3.0986,3.0986,3.1222,3.1603,3.1198,3.0906,3.0699,3.0256,2.9653,2.8917,2.8917,2.8736,2.8485,2.8851,2.9637,3.0602,3.1349,3.156,3.1555,3.1839,3.175,3.1555,3.1854,3.1735,3.157,3.1944,3.1795,3.166,3.2392,3.2064,3.175,3.2811,3.3066,3.323,3.3919,3.3529,3.314,3.344,3.3036,3.2811,3.338,3.3499,3.3395,3.311,3.3858,3.3918,3.2273,3.2901,3.3425,3.32,3.3694,3.4427,3.5415,3.5504,3.5504,3.5504,3.5504,3.5504,3.5504,3.5504,3.5504,3.5504,3.5504,3.5504,3.5504,3.5504,3.5504,3.5504,3.5504,3.5504,3.5504,3.5504,3.5504,3.5504,3.5504,3.5504,3.5504,3.5504,3.51,3.4503,3.4397,3.3799,3.2871,3.2183,3.2377,3.2841]}]]